[[{"header":{"parameterUnit":"m.s-1","parameterCategory":1,"la1":30.6,"la2":29.2853,"lo1":-89.7004,"lo2":-87.6739,"dy":0.0162,"dx":0.0183,"nx":112,"ny":82,"refTime":"2023-10-14T18:00:00:Z","depth":0,"parameterNumber":2,"parameterNumberName":"U-component_of_WINDS"},"data":[0.0,0.0,0.0,0.0,0.0,0.0,0.0,0.0,0.0,0.0,0.0,0.0,0.0,0.0,0.0,0.0,0.0,0.0,0.0,0.0,0.0,0.0,0.0,0.0,0.0,0.0,0.0,0.0,0.0,0.0,0.0,0.0,0.0,0.0,0.0,0.0,0.0,0.0,0.0,0.0,0.0,0.0,0.0,0.0,0.0,0.0,0.0,0.0,0.0,0.0,0.0,0.0,0.0,0.0,0.0,0.0,0.0,0.0,0.0,0.0,0.0,0.0,0.0,0.0,0.0,0.0,0.0,0.0,0.0,0.0,0.0,0.0,0.0,0.0,0.0,0.0,0.0,0.0,0.0,0.0,0.0,0.0,0.0,0.0,0.0,0.0,0.0,0.0,0.0,0.0,-0.6433,-0.6753,-0.5931,-0.5863,-0.7041,-0.6248,-0.5087,-0.3659,0.0,0.0,0.0,0.0,0.0,0.0,0.0,0.0,0.0,0.0,0.0,0.0,0.0,0.0,0.0,0.0,0.0,0.0,0.0,0.0,0.0,0.0,0.0,0.0,0.0,0.0,0.0,0.0,0.0,0.0,0.0,0.0,0.0,0.0,0.0,0.0,0.0,0.0,0.0,0.0,0.0,0.0,0.0,0.0,0.0,0.0,0.0,0.0,0.0,0.0,0.0,0.0,0.0,0.0,0.0,0.0,0.0,0.0,0.0,0.0,0.0,0.0,0.0,0.0,0.0,0.0,0.0,0.0,0.0,0.0,0.0,0.0,0.0,0.0,0.0,0.0,0.0,0.0,0.0,0.0,0.0,0.0,0.0,0.0,0.0,0.0,0.0,0.0,0.0,0.0,0.0,0.0,0.0,0.0,0.0,0.0,0.0,0.0,0.0,0.0,0.0,0.0,0.0,0.0,-0.5783,-0.688,-0.6916,-0.6848,-0.7051,-0.6962,-0.5888,-0.3748,0.0,0.0,0.0,0.0,0.0,0.0,0.0,0.0,0.0,0.0,0.0,0.0,0.0,0.0,0.0,0.0,0.0,0.0,0.0,0.0,0.0,0.0,0.0,0.0,0.0,0.0,0.0,0.0,0.0,0.0,0.0,0.0,0.0,0.0,0.0,0.0,0.0,0.0,0.0,0.0,0.0,0.0,0.0,0.0,0.0,0.0,0.0,0.0,0.0,0.0,0.0,0.0,0.0,0.0,0.0,0.0,0.0,0.0,0.0,0.0,0.0,0.0,0.0,0.0,0.0,0.0,0.0,0.0,0.0,0.0,0.0,0.0,0.0,0.0,0.0,0.0,0.0,0.0,0.0,0.0,0.0,0.0,0.0,0.0,0.0,0.0,0.0,0.0,0.0,0.0,0.0,0.0,0.0,0.0,0.0,0.0,0.0,0.0,0.0,0.0,0.0,0.0,0.0,-0.6115,-0.6446,-0.7044,-0.7139,-0.7139,-0.7139,-0.7139,-0.6068,-0.3748,-0.575,0.0,0.0,0.0,0.0,0.0,0.0,0.0,0.0,0.0,0.0,0.0,0.0,0.0,0.0,0.0,0.0,0.0,0.0,0.0,0.0,0.0,0.0,0.0,0.0,0.0,0.0,0.0,0.0,0.0,0.0,0.0,0.0,0.0,0.0,0.0,0.0,0.0,0.0,0.0,0.0,0.0,0.0,0.0,0.0,0.0,0.0,0.0,0.0,0.0,0.0,0.0,0.0,0.0,0.0,0.0,0.0,0.0,0.0,0.0,0.0,0.0,0.0,0.0,0.0,0.0,0.0,0.0,0.0,0.0,0.0,0.0,0.0,0.0,0.0,0.0,0.0,0.0,0.0,0.0,0.0,0.0,0.0,0.0,0.0,0.0,0.0,0.0,0.0,0.0,0.0,0.0,0.0,0.0,0.0,0.0,0.0,0.0,0.0,0.0,0.0,0.0,0.0,-0.6896,-0.7139,-0.7139,-0.7139,-0.7139,-0.7139,-0.7139,-0.6245,-0.4194,-0.5977,0.0,0.0,0.0,0.0,0.0,0.0,0.0,0.0,0.0,0.0,0.0,0.0,0.0,0.0,0.0,0.0,0.0,0.0,0.0,0.0,0.0,0.0,0.0,0.0,0.0,0.0,0.0,0.0,0.0,0.0,0.0,0.0,0.0,0.0,0.0,0.0,0.0,0.0,0.0,0.0,0.0,0.0,0.0,0.0,0.0,0.0,0.0,0.0,0.0,0.0,0.0,0.0,0.0,0.0,0.0,0.0,0.0,0.0,0.0,0.0,0.0,0.0,0.0,0.0,0.0,0.0,0.0,0.0,0.0,0.0,0.0,0.0,0.0,0.0,0.0,0.0,0.0,0.0,0.0,0.0,0.0,0.0,0.0,0.0,0.0,0.0,0.0,0.0,0.0,0.0,0.0,0.0,0.0,0.0,0.0,0.0,0.0,0.0,0.0,0.0,0.0,0.0,-0.6422,-0.7139,-0.7139,-0.7139,-0.7139,-0.7139,-0.7139,-0.6605,-0.5359,-0.6428,0.0,0.0,0.0,0.0,0.0,0.0,0.0,0.0,0.0,0.0,0.0,0.0,0.0,0.0,0.0,0.0,0.0,0.0,0.0,0.0,0.0,0.0,0.0,0.0,0.0,0.0,0.0,0.0,0.0,0.0,0.0,0.0,0.0,0.0,0.0,0.0,0.0,0.0,0.0,0.0,0.0,0.0,0.0,0.0,0.0,0.0,0.0,0.0,0.0,0.0,0.0,0.0,0.0,0.0,0.0,0.0,0.0,0.0,0.0,0.0,0.0,0.0,0.0,0.0,0.0,0.0,0.0,0.0,0.0,0.0,0.0,0.0,0.0,0.0,0.0,0.0,0.0,0.0,0.0,0.0,0.0,0.0,0.0,0.0,0.0,0.0,0.0,0.0,0.0,0.0,0.0,0.0,0.0,0.0,0.0,0.0,0.0,0.0,0.0,0.0,0.0,0.0,-0.6871,-0.7139,-0.7139,-0.7139,-0.7139,-0.7139,-0.7139,-0.6605,-0.5447,0.0,0.0,0.0,0.0,0.0,0.0,0.0,0.0,0.0,0.0,0.0,0.0,0.0,0.0,0.0,0.0,0.0,0.0,0.0,0.0,0.0,0.0,0.0,0.0,0.0,0.0,0.0,0.0,0.0,0.0,0.0,0.0,0.0,0.0,0.0,0.0,0.0,0.0,0.0,0.0,0.0,0.0,0.0,0.0,0.0,0.0,0.0,0.0,0.0,0.0,0.0,0.0,0.0,0.0,0.0,0.0,0.0,0.0,0.0,0.0,0.0,0.0,0.0,0.0,0.0,0.0,0.0,0.0,0.0,0.0,0.0,0.0,0.0,0.0,0.0,0.0,0.0,0.0,0.0,0.0,0.0,0.0,0.0,0.0,0.0,0.0,0.0,0.0,0.0,0.0,0.0,0.0,0.0,0.0,0.0,0.0,0.0,0.0,0.0,0.0,0.0,0.0,-0.7139,-0.7183,-0.7214,-0.7214,-0.7258,-0.7285,-0.7285,-0.7285,-0.6921,-0.6105,0.0,0.0,0.0,0.0,0.0,0.0,0.0,0.0,0.0,0.0,0.0,0.0,0.0,0.0,0.0,0.0,0.0,0.0,0.0,0.0,0.0,0.0,0.0,0.0,0.0,0.0,0.0,0.0,0.0,0.0,0.0,0.0,0.0,0.0,0.0,0.0,0.0,0.0,0.0,0.0,0.0,0.0,0.0,0.0,0.0,0.0,0.0,0.0,0.0,0.0,0.0,0.0,0.0,0.0,0.0,0.0,0.0,0.0,0.0,0.0,0.0,0.0,0.0,0.0,0.0,0.0,0.0,0.0,0.0,0.0,0.0,0.0,0.0,0.0,0.0,0.0,0.0,0.0,0.0,0.0,0.0,0.0,0.0,0.0,0.0,0.0,0.0,0.0,0.0,0.0,0.0,0.0,0.0,0.0,0.0,0.0,0.0,0.0,0.0,0.0,0.0,0.0,-0.7143,-0.7278,-0.7464,-0.7464,-0.7509,-0.7597,-0.7597,-0.76,-0.76,0.0,0.0,0.0,0.0,0.0,0.0,0.0,0.0,0.0,0.0,0.0,0.0,0.0,0.0,0.0,0.0,0.0,0.0,0.0,0.0,0.0,0.0,0.0,0.0,0.0,0.0,0.0,0.0,0.0,0.0,0.0,0.0,0.0,0.0,0.0,0.0,0.0,0.0,0.0,0.0,0.0,0.0,0.0,0.0,0.0,0.0,0.0,0.0,0.0,0.0,0.0,0.0,0.0,0.0,0.0,0.0,0.0,0.0,0.0,0.0,0.0,0.0,0.0,0.0,0.0,0.0,0.0,0.0,0.0,0.0,0.0,0.0,0.0,0.0,0.0,0.0,0.0,0.0,0.0,0.0,0.0,0.0,0.0,0.0,0.0,0.0,0.0,0.0,0.0,0.0,0.0,0.0,0.0,0.0,0.0,0.0,0.0,0.0,0.0,0.0,0.0,0.0,0.0,-0.8798,-0.9679,-1.0264,-1.0264,-0.949,-0.8975,-0.8975,-0.8149,-0.76,-0.76,0.0,0.0,0.0,0.0,0.0,0.0,0.0,0.0,0.0,0.0,0.0,0.0,0.0,0.0,0.0,0.0,0.0,0.0,0.0,0.0,0.0,0.0,0.0,0.0,0.0,0.0,0.0,0.0,0.0,0.0,0.0,0.0,0.0,0.0,0.0,0.0,0.0,0.0,0.0,0.0,0.0,0.0,0.0,0.0,0.0,0.0,0.0,0.0,0.0,0.0,0.0,0.0,0.0,0.0,0.0,0.0,0.0,0.0,0.0,0.0,0.0,0.0,0.0,0.0,0.0,0.0,0.0,0.0,0.0,0.0,0.0,0.0,0.0,0.0,0.0,0.0,0.0,0.0,0.0,0.0,0.0,0.0,0.0,0.0,0.0,0.0,0.0,0.0,0.0,0.0,0.0,0.0,0.0,0.0,0.0,0.0,0.0,0.0,0.0,0.0,0.0,0.0,-0.9507,-1.07,-1.1404,-1.0846,-1.0175,-0.9655,-0.9655,-0.9001,-0.8818,-0.9291,0.0,0.0,0.0,0.0,0.0,0.0,0.0,0.0,0.0,0.0,0.0,0.0,0.0,0.0,0.0,0.0,0.0,0.0,0.0,0.0,0.0,0.0,0.0,0.0,0.0,0.0,0.0,0.0,0.0,0.0,0.0,0.0,0.0,0.0,0.0,0.0,0.0,0.0,0.0,0.0,0.0,0.0,0.0,0.0,0.0,0.0,0.0,0.0,0.0,0.0,0.0,0.0,0.0,0.0,0.0,0.0,0.0,0.0,0.0,0.0,0.0,0.0,0.0,0.0,0.0,0.0,0.0,0.0,0.0,0.0,0.0,0.0,0.0,0.0,0.0,0.0,0.0,0.0,0.0,0.0,0.0,0.0,0.0,0.0,0.0,0.0,0.0,0.0,0.0,0.0,0.0,0.0,0.0,0.0,0.0,0.0,0.0,0.0,0.0,0.0,0.0,0.0,-0.9939,-1.1135,-1.1642,-1.05,-1.0378,-1.0386,-1.0386,-1.0293,-1.0681,-1.1848,0.0,0.0,0.0,0.0,0.0,0.0,0.0,0.0,0.0,0.0,0.0,0.0,0.0,0.0,0.0,0.0,0.0,0.0,0.0,0.0,0.0,0.0,0.0,0.0,0.0,0.0,0.0,0.0,0.0,0.0,0.0,0.0,0.0,0.0,0.0,0.0,0.0,0.0,0.0,0.0,0.0,0.0,0.0,0.0,0.0,0.0,0.0,0.0,0.0,0.0,0.0,0.0,0.0,0.0,0.0,0.0,0.0,0.0,0.0,0.0,0.6014,1.2345,0.0,0.0,0.0,0.0,0.0,0.0,0.0,0.0,0.0,0.0,0.0,0.0,0.0,0.0,0.0,0.0,0.0,0.0,0.0,0.0,0.0,0.0,0.0,0.0,0.0,0.0,0.0,0.0,0.0,0.0,0.0,0.0,0.0,0.0,0.0,0.0,0.0,0.0,0.0,0.0,-1.2819,-1.4147,-1.4861,-1.457,-1.3651,-1.3097,-1.3097,-1.2134,-1.1658,-1.1848,-1.1609,0.0,0.0,0.0,0.0,0.0,0.0,0.0,0.0,0.0,0.0,0.0,0.0,0.0,0.0,0.0,0.0,0.0,0.0,0.0,0.0,0.0,0.0,0.0,0.0,0.0,0.0,0.0,0.0,0.0,0.0,0.0,0.0,0.0,0.0,0.0,0.0,0.0,0.0,0.0,0.0,0.0,0.0,0.0,0.0,0.0,0.0,0.0,0.0,0.0,0.0,0.0,0.0,0.0,0.0,0.0,0.0,0.0,0.0,0.0,0.0851,0.5216,0.0,0.0,0.0,0.0,0.0,0.0,0.0,0.0,0.0,0.0,0.0,0.0,0.0,0.0,0.0,0.0,0.0,0.0,0.0,0.0,0.0,0.0,0.0,0.0,0.0,0.0,0.0,0.0,0.0,0.0,0.0,0.0,0.0,0.0,0.0,0.0,0.0,0.0,0.0,0.0,-1.3765,-1.5045,-1.5534,-1.4949,-1.4268,-1.3878,-1.3878,-1.3295,-1.3108,-1.3788,-1.3759,0.0,0.0,0.0,0.0,0.0,0.0,0.0,0.0,0.0,0.0,0.0,0.0,0.0,0.0,0.0,0.0,0.0,0.0,0.0,0.0,0.0,0.0,0.0,0.0,0.0,0.0,0.0,0.0,0.0,0.0,0.0,0.0,0.0,0.0,0.0,0.0,0.0,0.0,0.0,0.0,0.0,0.0,0.0,0.0,0.0,0.0,0.0,0.0,0.0,0.0,0.0,0.0,0.0,-1.2487,-1.1198,-1.0916,-0.7676,-0.8413,-1.2025,-0.5606,-0.3931,-0.5189,0.252,0.0,0.0,0.0,0.0,0.0,0.0,0.0,0.0,0.0,0.0,0.0,0.0,0.0,0.0,0.0,0.0,0.0,0.0,0.0,0.0,0.0,0.0,-0.8455,-0.8759,-1.0479,-1.1728,-1.0187,0.0,0.0,0.0,0.0,0.0,0.0,0.0,0.0,0.0,0.0,0.0,-1.4166,-1.533,-1.5717,-1.4638,-1.4721,-1.4912,-1.4912,-1.4912,-1.5298,-1.6372,-1.6418,-1.6872,0.0,0.0,0.0,0.0,0.0,0.0,0.0,0.0,0.0,0.0,0.0,0.0,0.0,0.0,0.0,0.0,0.0,0.0,0.0,0.0,0.0,0.0,0.0,0.0,0.0,0.0,0.0,0.0,0.0,0.0,0.0,0.0,-1.3149,-1.517,0.0,0.0,0.0,0.0,0.0,0.0,0.0,0.0,0.0,0.0,0.0,0.0,0.0,-2.1829,-2.1839,-2.2775,-2.2876,-2.2124,-2.1722,-2.1149,-2.0398,-1.9896,-1.9996,-2.0567,-1.9572,0.0,-0.9465,-0.8343,0.0,0.0,0.0,0.0,0.0,0.0,0.0,0.0,0.0,0.0,0.0,0.0,0.0,0.0,0.0,0.0,0.0,0.0,0.0,0.0,0.0,0.0,-1.3671,-1.3957,-1.5014,-1.5708,-1.4461,-1.2756,-1.141,-1.141,-1.2341,-1.2797,0.0,0.0,0.0,0.0,0.0,0.0,-1.5439,-1.6662,-1.7404,-1.721,-1.811,-1.874,-1.874,-1.874,-1.884,-1.9039,-1.9023,-1.9115,-1.9222,-1.9115,0.0,0.0,0.0,0.0,0.0,0.0,0.0,0.0,0.0,0.0,0.0,0.0,0.0,0.0,0.0,0.0,0.0,0.0,0.0,0.0,0.0,0.0,0.0,0.0,0.0,0.0,0.0,0.0,0.0,-1.3645,-1.6712,-1.8828,-1.8495,-1.8223,0.0,0.0,0.0,0.0,0.0,0.0,0.0,0.0,0.0,-2.3732,-2.4809,-2.5601,-2.6041,-2.6767,-2.6993,-2.6569,-2.6557,-2.6375,-2.601,-2.5432,-2.5511,-2.5945,-2.4872,-2.3068,-2.051,-1.6819,-1.3926,-1.1682,0.0,0.0,0.0,0.0,-0.9298,-0.8379,-1.0697,-1.1013,-1.0455,-1.0464,0.0,0.0,0.0,0.0,0.0,0.0,0.0,-1.1926,-1.3573,-1.4945,-1.6111,-1.7047,-1.7671,-1.7984,-1.765,-1.6737,-1.5748,-1.4865,-1.4804,-1.491,-1.501,-1.5551,0.0,0.0,0.0,-1.7252,-1.784,-1.8403,-1.868,-1.868,-1.9222,-1.9497,-1.9497,-1.9497,-1.9497,-1.9497,-2.0124,-2.0477,-2.0477,-2.0477,-2.0845,0.0,0.0,0.0,0.0,0.0,0.0,0.0,0.0,0.0,0.0,0.0,0.0,0.0,0.0,0.0,0.0,0.0,0.0,0.0,0.0,0.0,0.0,0.0,0.0,0.0,0.0,0.0,0.0,-1.8561,-2.1313,-2.3132,-2.2847,-2.2759,0.0,0.0,0.0,0.0,0.0,0.0,-2.4886,-2.5338,-2.6256,-2.7624,-2.7931,-2.8419,-2.9328,-2.9685,-2.986,-2.986,-3.0049,-3.0106,-3.0092,-2.9123,-2.9187,-3.0029,-2.8381,-2.8487,-2.9351,-2.3556,-2.1081,-2.0809,-1.986,-1.8564,-1.738,-1.891,-1.8389,-1.7286,-2.0323,-2.0032,-1.843,-1.8986,-1.7613,-1.5457,-1.3406,0.0,0.0,0.0,0.0,-1.5739,-1.6338,-1.7231,-1.8112,-1.8993,-1.9457,-1.9614,-1.953,-1.9497,-1.9133,-1.8053,-1.7169,-1.6958,-1.8033,-1.8064,0.0,-1.8126,-1.8956,-1.9497,-1.9497,-1.9761,-1.9943,-1.9943,-2.0223,-2.0404,-2.0404,-2.0404,-2.0404,-2.0404,-2.1302,-2.1756,-2.1756,-2.1756,-2.2217,-2.3047,0.0,0.0,0.0,0.0,0.0,0.0,0.0,0.0,0.0,0.0,0.0,0.0,0.0,0.0,0.0,0.0,0.0,0.0,0.0,0.0,0.0,0.0,0.0,0.0,0.0,0.0,0.0,0.0,0.0,-2.9174,-2.7812,0.0,0.0,0.0,0.0,-2.7134,-2.9146,-3.0059,-2.9299,-3.0908,-3.1881,-3.1967,-3.1423,-3.1528,-3.236,-3.2276,-3.2213,-3.2213,-3.2796,-3.3081,-3.3081,-3.2255,-3.2302,-3.3021,-3.2178,-3.1844,-3.1694,-2.8392,-2.8102,-2.9675,-2.9618,-2.8954,-2.8107,-2.9181,-2.8379,-2.6817,-2.7013,-2.6824,-2.6494,-2.6499,-2.41,-2.1002,-2.0017,-1.7475,0.0,0.0,-1.8346,-1.7328,-1.9765,-2.0593,-2.0508,-1.9653,-2.0369,-2.0908,-1.9761,-1.9497,-1.9488,-1.9372,-1.9389,-1.9306,-1.9405,0.0,-1.9397,-1.9397,-1.9497,-1.9497,-1.9497,-2.0486,-2.1203,-2.1203,-2.2217,-2.296,-2.296,-2.296,-2.296,-2.296,-2.296,-2.3047,-2.3047,-2.3047,-2.3047,-2.3135,-2.3047,0.0,0.0,0.0,0.0,0.0,0.0,0.0,0.0,0.0,0.0,0.0,0.0,0.0,0.0,0.0,0.0,0.0,0.0,0.0,0.0,0.0,0.0,0.0,0.0,0.0,0.0,0.0,0.0,-2.9266,-3.0111,0.0,-3.1601,-3.1313,-3.1156,-3.1413,-3.2166,-3.2476,-3.2176,-3.3222,-3.3858,-3.3858,-3.4085,-3.4353,-3.4673,-3.4589,-3.4572,-3.4572,-3.4816,-3.4895,-3.4895,-3.4628,-3.4628,-3.4895,-3.4628,-3.4457,-3.441,-3.3696,-3.2654,-3.1569,-3.2706,-3.2226,-3.106,-3.2009,-3.1232,-2.9934,-3.0984,-3.0162,-2.8394,-2.7195,-2.5425,-2.3824,-2.3483,-2.2757,-2.2119,-2.2541,-2.2865,-2.3082,-2.3168,-2.3862,-2.4462,-2.4088,-2.4299,-2.431,-2.3191,-2.293,-2.293,-2.293,-2.171,-2.0666,-2.0666,-2.1302,-2.1578,-2.0755,-2.1311,-2.211,-2.2853,-2.2629,-2.2989,-2.449,-2.4361,-2.4211,-2.4211,-2.4211,-2.4211,-2.4211,-2.4211,-2.4542,-2.5231,-2.5316,-2.5316,-2.5316,-2.4553,-2.4553,0.0,0.0,0.0,0.0,0.0,0.0,0.0,0.0,0.0,0.0,0.0,0.0,0.0,0.0,0.0,0.0,0.0,0.0,0.0,0.0,0.0,0.0,0.0,0.0,0.0,-2.8463,-3.0172,-3.0624,-3.1824,-3.2934,-3.3838,-3.396,-3.4156,-3.4627,-3.4905,-3.5036,-3.5036,-3.5493,-3.5891,-3.6009,-3.6303,-3.6533,-3.6721,-3.6969,-3.7101,-3.7101,-3.7569,-3.7803,-3.7803,-3.7567,-3.7567,-3.7803,-3.7567,-3.7448,-3.7483,-3.8115,-3.7063,-3.4998,-3.5252,-3.4669,-3.3722,-3.4099,-3.3578,-3.275,-3.3496,-3.2629,-3.0842,-2.8784,-2.7853,-2.7527,-2.6836,-2.6616,-2.6382,-2.5602,-2.5902,-2.6284,-2.5438,-2.5909,-2.6483,-2.6483,-2.6483,-2.6307,-2.5546,-2.5378,-2.5378,-2.5378,-2.3491,-2.2189,-2.294,-2.3086,-2.3105,-2.3037,-2.3414,-2.4049,-2.521,-2.4713,-2.4808,-2.6318,-2.5797,-2.5378,-2.5378,-2.5378,-2.5378,-2.5378,-2.5378,-2.5714,-2.6483,-2.6483,-2.6483,-2.6483,-2.5378,-2.521,-2.588,0.0,0.0,0.0,0.0,0.0,0.0,0.0,0.0,0.0,0.0,0.0,0.0,0.0,0.0,0.0,0.0,0.0,0.0,0.0,0.0,0.0,0.0,0.0,-3.0746,-3.2228,-3.3633,-3.3633,-3.3108,-3.3282,-3.456,-3.4769,-3.5411,-3.6789,-3.753,-3.7936,-3.7936,-3.797,-3.8247,-3.8773,-3.8151,-3.8083,-3.8616,-3.9382,-3.9809,-3.9809,-4.1137,-4.1835,-4.1775,-4.0996,-4.1059,-4.175,-4.0951,-4.0637,-4.07,-4.149,-4.1367,-4.0406,-3.78,-3.6804,-3.672,-3.6108,-3.5851,-3.5696,-3.4638,-3.4352,-3.415,-3.1837,-3.1672,-3.2075,-3.0162,-2.8872,-2.81,-2.8207,-2.7441,-2.6637,-2.6719,-2.6637,-2.6637,-2.6719,-2.6637,-2.6637,-2.6637,-2.6554,-2.6554,-2.6554,-2.4723,-2.3887,-2.6141,-2.4638,-2.3973,-2.6141,-2.5546,0.0,-2.6389,-2.6554,-2.6565,-2.6565,-2.6565,-2.6554,-2.6554,-2.6554,-2.6554,-2.6554,-2.6554,-2.6565,-2.6565,-2.6565,-2.6565,-2.6554,-2.5462,-2.4957,-2.4872,0.0,0.0,0.0,0.0,0.0,0.0,0.0,0.0,0.0,0.0,0.0,0.0,0.0,0.0,0.0,0.0,0.0,0.0,0.0,0.0,0.0,-3.5464,-3.4888,-3.3583,-3.3925,-3.4333,-3.4333,-3.5135,-3.593,-3.6703,-3.7263,-3.7916,-3.8783,-3.9017,-3.914,-3.914,-3.9666,-4.0007,-4.0134,-4.0498,-4.0744,-4.0873,-4.1345,-4.1582,-4.1582,-4.197,-4.2174,-4.2135,-4.1693,-4.1611,-4.181,-4.1568,-4.149,-4.1533,-4.2185,-4.2306,-4.1937,-3.9795,-3.8975,-3.8824,-3.767,-3.723,-3.7132,-3.6212,-3.5503,-3.4818,-3.3596,-3.2891,-3.2467,-3.1893,-3.1516,-3.1356,-3.1383,-3.0654,-3.0063,-3.0777,-2.9935,-2.9238,-3.0566,-2.9859,-2.9069,-2.9669,-2.8633,-2.782,-2.8542,-2.6966,-2.5724,-2.6389,-2.5975,-2.5808,-2.6389,-2.6224,-2.6461,-2.7522,-2.6964,-2.7139,-2.8712,-2.8108,-2.7683,-2.7683,-2.7683,-2.7683,-2.7683,-2.7683,-2.8028,-2.887,-2.8882,-2.853,-2.7695,-2.8187,-2.7626,0.0,0.0,0.0,0.0,0.0,0.0,0.0,0.0,0.0,0.0,0.0,0.0,0.0,0.0,0.0,0.0,0.0,0.0,0.0,0.0,0.0,0.0,-3.644,-3.628,-3.5915,-3.5673,-3.5713,-3.6228,-3.6823,-3.7507,-3.8373,-3.8833,-3.9398,-4.0028,-4.037,-4.0506,-4.0506,-4.0931,-4.1262,-4.1542,-4.1971,-4.2284,-4.2523,-4.272,-4.285,-4.3027,-4.285,-4.2904,-4.2992,-4.2663,-4.2523,-4.2523,-4.2523,-4.2523,-4.2523,-4.2884,-4.3014,-4.2921,0.0,0.0,0.0,0.0,-3.8879,-3.8553,-3.7799,-3.7006,-3.6183,-3.5359,-3.4692,-3.4143,-3.3435,-3.3171,-3.3101,-3.2749,-3.2249,-3.1888,-3.2464,-3.1756,-3.1267,-3.2321,-3.1756,-3.1106,-3.1589,-3.0764,-3.0189,-3.0677,-2.9566,0.0,-2.9012,-2.7624,-2.6812,-2.7718,-2.7464,-2.7533,-2.8688,-2.8291,-2.8383,-2.9624,-2.9197,-2.8767,-2.8767,-2.8767,0.0,0.0,0.0,-2.9106,-2.9792,-2.9792,0.0,0.0,0.0,-2.845,-2.7209,-2.6213,0.0,0.0,-2.3299,-2.3135,0.0,0.0,0.0,0.0,0.0,0.0,0.0,0.0,0.0,0.0,0.0,0.0,0.0,0.0,0.0,0.0,-3.7328,-3.785,-3.7937,-3.7531,-3.7638,-3.8669,-3.835,-3.8518,-3.9696,-3.9933,-4.033,-4.0948,-4.1629,-4.2003,-4.2003,-4.2003,0.0,0.0,0.0,-4.3014,-4.3497,-4.3548,-4.3693,-4.4016,-4.3693,-4.3726,-4.3986,-4.3646,-4.3497,-4.3497,-4.3497,-4.3497,-4.3497,-4.3497,-4.3497,-4.3444,-4.2902,-4.2655,-4.248,-4.1313,-4.0474,-3.9834,-3.9143,0.0,0.0,-3.6964,-3.6661,-3.6276,-3.4736,-3.423,-3.4027,-3.3171,-3.282,-3.282,-3.289,-3.2749,-3.2678,-3.289,-3.2749,-3.2664,-3.289,-3.2804,-3.2775,-3.2846,-3.2182,-3.1884,-3.2671,-2.9628,-2.7787,-2.9907,-2.9234,-2.901,-3.0163,-3.0265,-3.0123,-3.0123,-3.0265,0.0,-2.9967,-3.0072,-3.0035,-2.9892,-2.9829,-2.9792,-2.9792,-2.9792,-2.9792,-2.9792,-2.8767,-2.8267,-2.8267,-2.6191,-2.5126,-2.4957,-2.3724,-2.3135,0.0,0.0,0.0,0.0,0.0,0.0,0.0,0.0,0.0,0.0,0.0,0.0,0.0,0.0,0.0,-3.8508,-3.8943,-3.9411,-4.0011,-4.0017,-3.9817,-3.9464,-3.9841,-4.04,-4.1083,-4.1725,-4.2366,-4.2923,-4.3105,-4.316,-4.316,-4.316,-4.3232,-4.3321,-4.3339,-4.341,-4.3497,-4.3772,-4.3924,-4.4016,-4.3924,0.0,-4.3986,-4.3646,-4.3497,-4.3497,-4.3497,-4.3497,-4.3497,-4.3497,-4.3497,-4.3444,-4.2902,-4.2382,-4.1895,-4.1178,-4.0792,-4.0539,-3.9301,-3.8799,-3.858,-3.779,-3.7144,-3.6554,-3.6213,-3.5706,0.0,-3.5001,-3.4327,-3.3891,-3.4706,-3.3768,-3.2961,-3.4558,-3.3754,-3.3031,-3.4624,-3.4154,-3.3615,-3.4412,-3.4178,-3.401,-3.4159,-3.2062,-3.0911,-3.2597,-3.1915,-3.1795,-3.343,-3.2914,-3.2385,-3.2385,-3.3131,-3.2978,-3.1233,-3.1513,-3.1332,-3.0536,-3.0043,-2.9792,-2.9792,-2.9792,-2.9792,-2.9792,-2.9611,-2.9456,-2.9456,-2.8108,-2.7035,-2.6141,-2.4059,-2.3135,0.0,0.0,0.0,0.0,0.0,0.0,0.0,0.0,0.0,0.0,0.0,-3.8216,-3.8468,0.0,-3.8958,-3.9608,-4.0182,-4.0677,-4.1053,-4.1659,-4.1861,-4.1214,-4.1479,-4.1908,-4.245,-4.2868,-4.3214,-4.3479,-4.3497,-4.3497,-4.3497,-4.3497,-4.3497,-4.3497,-4.3497,-4.3497,-4.3497,-4.3679,-4.3818,-4.4016,-4.3836,-4.3836,-4.3986,-4.3646,-4.3597,-4.3758,-4.3758,-4.3758,-4.3758,-4.3563,-4.3497,-4.3479,-4.3214,-4.2921,-4.2562,-4.1647,-4.1358,-4.1161,-3.9902,-3.9489,-3.9368,-3.858,-3.7847,-3.716,-3.6722,-3.6054,-3.5504,-3.5504,-3.5133,-3.4839,-3.5359,-3.5022,-3.4806,-3.577,-3.5492,-3.5256,-3.6231,-3.5962,-3.565,-3.6098,-3.5697,-3.548,-3.5928,-3.4651,-3.3761,-3.4067,-3.3602,-3.3649,-3.4491,-3.4156,-3.3774,-3.3774,-3.3774,-3.3607,-3.3078,-3.2749,-3.2137,-3.1077,-3.0746,-3.0595,-3.0595,-3.0595,-3.047,-3.0218,-3.0206,-3.0068,-2.9792,-2.8688,-2.7844,-2.729,-2.5546,-2.4221,0.0,0.0,0.0,0.0,0.0,0.0,0.0,-3.8512,-3.8683,-3.8303,-3.881,-3.936,-3.9564,-3.9704,-4.0015,-4.0582,-4.1361,-4.1887,-4.1977,-4.2915,-4.3442,-4.2996,-4.2884,-4.3032,-4.3444,-4.3497,-4.3497,-4.3497,-4.3497,-4.3513,-4.3597,-4.3597,-4.3612,-4.3712,-4.3712,-4.3712,-4.3712,-4.3712,-4.3836,-4.4117,-4.3836,-4.3868,-4.4106,-4.3836,-4.3868,-4.4117,-4.4117,-4.4117,-4.4106,-4.3758,-4.3597,-4.3597,-4.3513,-4.3497,-4.3375,-4.2364,-4.1895,-4.1664,-4.0625,-4.0204,-4.0003,-3.9315,-3.8652,-3.7863,-3.7084,-3.629,-3.5699,-3.5719,-3.5699,-3.5729,-3.5848,-3.6267,-3.6671,-3.6671,-3.7045,-3.7404,-3.7404,-3.7509,-3.7599,-3.7599,-3.7102,-3.6892,-3.7655,-3.719,-3.6389,-3.5458,-3.5148,-3.5116,-3.5465,-3.533,-3.5255,-3.5255,-3.4637,-3.4366,-3.4713,-3.3796,-3.2658,-3.1468,-3.1386,-3.1386,-3.1386,-3.1386,-3.1198,-3.0771,-3.0771,-3.0545,-3.0105,-2.9163,-2.8647,-2.8393,-2.7497,-2.5814,-3.7785,-3.7856,-3.7849,-3.7569,-3.823,-3.8659,0.0,-3.8068,-3.8915,-3.935,-3.9719,-4.0253,-4.1155,-4.1917,-4.2335,-4.2103,-4.275,-4.3364,-4.3682,-4.385,-4.3924,-4.3844,-4.3594,-4.3444,-4.3479,-4.3497,-4.3497,-4.3497,-4.3497,-4.3612,-4.3924,-4.3955,-4.4106,-4.4474,-4.4474,-4.4474,-4.4474,-4.4474,-4.4501,-4.4527,-4.4501,-4.4501,-4.4527,-4.4501,-4.4501,-4.4527,-4.4527,-4.4527,-4.4501,-4.4106,-4.3955,-4.3893,-4.3631,-4.3497,-4.341,-4.2808,-4.2262,-4.1725,-4.1041,-4.0497,-4.007,-4.002,-3.9437,-3.8635,-3.7921,-3.71,-3.646,-3.6375,-3.6372,-3.6507,-3.706,-3.7255,-3.73,-3.73,-3.736,-3.7404,-3.7404,-3.7868,-3.8287,-3.8287,-3.8695,-3.9041,-3.92,-3.9113,-3.8746,-3.8065,-3.7128,-3.7112,-3.8648,-3.8015,-3.7462,-3.7462,-3.8178,-3.7797,-3.553,-3.4297,-3.3062,-3.1493,-3.1386,-3.1386,-3.1386,-3.1386,-3.1361,-3.1298,-3.1298,-3.1273,-3.121,-3.1117,-3.052,-2.9594,-2.9511,-2.7725,-3.8977,-3.9019,-3.9096,-3.8607,-3.8951,-3.9245,-3.8738,-3.9444,-4.0283,-4.0338,-4.0858,-4.1537,-4.2438,-4.287,-4.3128,-4.3274,-4.3751,-4.4125,-4.4016,-4.4204,-4.4364,-4.4364,-4.4035,-4.3804,-4.3804,-4.3804,-4.3899,-4.4125,-4.3912,-4.3974,-4.4337,-4.4136,-4.4175,-4.458,-4.458,-4.458,-4.458,-4.458,-4.458,-4.458,-4.458,-4.458,-4.458,-4.458,-4.4726,-4.4896,-4.4896,-4.4781,-4.4553,-4.4165,-4.3881,-4.3712,-4.3529,-4.3497,-4.3444,-4.2902,-4.2302,-4.1707,-4.1133,-4.0528,-4.007,-4.007,-3.9843,-3.9567,-3.9233,-3.8862,-3.8448,-3.7923,-3.777,-3.7699,-3.7466,-3.7689,-3.7973,-3.7973,-3.8287,-3.8571,-3.8571,-3.8796,-3.899,-3.899,-3.923,-3.9424,-3.9424,-3.9424,-3.932,-3.9035,-3.8602,-3.8545,-3.9307,-3.9017,-3.8472,-3.7829,-3.8782,-3.8429,-3.61,-3.5446,-3.4634,-3.3394,-3.2759,-3.2365,-3.2365,-3.2365,-3.2215,-3.1876,-3.1863,-3.1712,-3.1386,-3.1386,-3.1128,-3.0704,-3.0704,-2.969,-3.9865,-3.9815,-3.9814,-3.9472,-3.9505,-3.9656,-3.9882,-4.064,-4.1376,-4.1658,-4.2249,-4.2917,-4.3658,-4.3786,-4.3895,-4.4139,-4.4419,-4.4527,-4.4346,-4.4535,-4.4751,-4.4751,-4.4401,-4.4204,-4.4271,-4.4117,-4.4175,-4.4553,-4.4318,-4.4318,-4.4726,-4.4455,-4.4482,-4.4853,-4.4896,-4.4896,-4.4896,-4.4896,-4.4896,-4.4896,-4.4896,-4.4896,-4.4896,-4.4896,-4.5011,-4.5222,-4.514,-4.4966,-4.4682,-4.4204,-4.3849,-4.3612,-4.3548,-4.3497,-4.3481,-4.3305,-4.2739,-4.1937,-4.1358,-4.0935,-4.061,-4.0476,-4.0536,-4.0674,-4.0453,-4.0196,-3.9902,-3.944,-3.9004,-3.854,-3.8349,-3.8497,-3.8676,-3.8676,-3.905,-3.9424,-3.9424,-3.9424,-3.9424,-3.9424,-3.9424,-3.9424,-3.9424,-3.9424,-3.9424,-3.9424,-3.9424,-3.9424,-3.9424,-3.9424,-3.9104,-3.8308,-3.8943,-3.862,-3.6774,-3.6369,-3.5734,-3.4746,-3.3713,-3.3081,-3.3081,-3.3081,-3.288,-3.2466,-3.2453,-3.2252,-3.1851,-3.1851,-3.1851,-3.1851,-3.1851,-3.1422,-4.0721,-4.0428,-4.0175,-4.0082,-3.9819,-3.9807,-4.066,-4.1076,-4.178,-4.346,-4.4039,-4.4401,-4.4949,-4.5036,-4.4947,-4.4631,-4.458,-4.4707,-4.5011,-4.5074,-4.5074,-4.5074,-4.48,-4.4707,-4.5052,-4.4409,-4.4175,-4.4553,-4.458,-4.4732,-4.5074,-4.5074,-4.5222,-4.5568,-4.5568,-4.5568,-4.5568,-4.5568,-4.5568,-4.5568,-4.5568,-4.5568,-4.5568,-4.5568,-4.5568,-4.5568,-4.5243,-4.5096,-4.503,-4.4318,-4.3998,-4.3955,-4.3631,-4.3497,-4.3589,-4.4343,-4.3798,-4.2577,-4.1979,-4.1883,-4.1954,-4.1359,-4.166,-4.2092,-4.1382,-4.0544,-4.003,-4.0718,-3.9703,-3.8762,-4.0201,-3.9999,-3.9394,-3.9394,-3.9409,-3.9424,-3.9424,-3.9424,-3.9424,-3.9424,-3.9424,-3.9424,-3.9424,-3.9424,-3.9424,-3.9424,-3.9424,-3.9424,-3.9424,-3.9424,-3.9424,-3.9337,-3.9352,-3.8943,-3.7829,-3.6774,-3.5734,-3.4746,-3.3713,-3.3081,-3.3081,-3.3081,-3.3068,-3.3056,-3.3056,-3.3043,-3.3031,-3.3031,-3.3031,-3.3031,-3.3031,-3.3018,-4.0599,-4.0446,-4.0328,-4.0031,-4.0057,-4.0354,-4.1216,-4.2077,-4.302,-4.4182,-4.4916,-4.5413,-4.5596,-4.5602,-4.5447,-4.5131,-4.5186,-4.5222,-4.5118,-4.5302,-4.5438,-4.5438,-4.514,-4.5074,-4.54,-4.4787,-4.4638,-4.5222,-4.5074,-4.5074,-4.5419,-4.5222,-4.5243,-4.5586,-4.5586,-4.5586,-4.5586,-4.5586,-4.5586,-4.5586,-4.5586,-4.5586,-4.5586,-4.5586,-4.5586,-4.5586,-4.5495,-4.5161,-4.4732,-4.4501,-4.4106,-4.3646,-4.3548,-4.3828,-4.4342,-4.4617,-4.449,-4.4147,-4.3525,-4.284,-4.221,-4.1984,-4.2439,-4.2976,-4.274,-4.2852,-4.2924,-4.2605,-4.1709,-4.0915,-4.1415,-4.0516,-3.9553,-4.0115,-3.9793,-3.9424,-3.9424,-3.9424,-3.9424,-3.9424,-3.9424,-3.9424,-3.9424,-3.9424,-3.9424,-3.9424,-3.9424,-3.9424,-3.9424,-3.9424,-3.9424,-3.9424,-3.9424,-3.9265,-3.887,-3.7252,-3.6053,-3.5748,-3.4095,-3.3081,-3.3081,-3.3081,-3.3081,-3.3081,-3.3081,-3.3081,-3.3081,-3.3081,-3.3081,-3.3081,-3.3081,-3.3081,-4.0689,-4.0657,-4.0602,-4.0297,-4.0618,-4.1208,-4.2043,-4.3035,-4.402,-4.485,-4.5475,-4.5857,-4.5857,-4.5822,-4.5744,-4.5554,-4.5596,-4.5596,-4.5379,-4.5543,-4.5648,-4.5603,-4.5302,-4.5222,-4.5568,-4.5096,-4.5011,-4.5568,-4.54,-4.5362,-4.5586,-4.54,-4.5381,-4.5586,-4.5586,-4.5586,-4.5586,-4.5586,-4.5586,-4.5586,-4.5586,-4.5586,-4.5586,-4.5586,-4.5586,-4.5586,-4.5457,-4.5118,-4.458,-4.4447,-4.4202,-4.392,-4.392,-4.4415,-4.5132,-4.5204,-4.5182,-4.4986,-4.4352,-4.3624,-4.2977,-4.2729,-4.3217,-4.3826,-4.3826,-4.3979,-4.4064,-4.3814,-4.2909,-4.1997,-4.1997,-4.0961,-3.9935,-4.0185,-3.9793,-3.9424,-3.9424,-3.9424,-3.9424,-3.9424,-3.9424,-3.9424,-3.9424,-3.9424,-3.9424,-3.9424,-3.9424,-3.9424,-3.9424,-3.9424,-3.9424,-3.9424,-3.9424,-3.9424,-3.9424,-3.7814,-3.6604,-3.6198,-3.465,-3.3471,-3.3167,-3.3081,-3.3081,-3.3081,-3.3081,-3.3081,-3.3081,-3.3081,-3.3081,-3.3081,-3.3081,-3.3081,-4.0986,-4.0987,-4.0957,-4.0844,-4.1454,-4.2279,-4.3049,-4.3879,-4.4711,-4.5469,-4.5716,-4.5808,-4.5804,-4.5802,-4.5813,-4.5881,-4.5836,-4.5783,-4.5783,-4.5783,-4.5747,-4.562,-4.5322,-4.5243,-4.5568,-4.5322,-4.5243,-4.5568,-4.5586,-4.5586,-4.5586,-4.5586,-4.5586,-4.5586,-4.5586,-4.5586,-4.5586,-4.5586,-4.5586,-4.5586,-4.5586,-4.5586,-4.5586,-4.5586,-4.5586,-4.5586,-4.5263,-4.4943,-4.4599,-4.426,-4.4355,-4.4744,-4.4745,-4.5259,-4.5975,-4.6124,-4.5809,-4.5163,-4.4438,-4.4235,-4.4217,-4.3617,-4.3978,-4.4587,-4.4587,-4.4006,-4.3562,-4.4384,-4.335,-4.2062,-4.2125,-4.1412,-4.05,-3.9737,-3.9481,-3.9424,-3.9424,-3.9424,-3.9424,-3.9424,-3.9424,-3.9424,-3.9424,-3.9424,-3.9424,-3.9424,-3.9424,-3.9424,-3.9424,-3.9424,-3.9424,-3.9424,-3.9424,-3.9424,-3.9424,-3.8383,-3.7252,-3.6277,-3.5197,-3.4191,-3.3154,-3.3081,-3.3081,-3.3081,-3.3081,-3.3081,-3.3081,-3.3081,-3.3081,-3.3081,-3.3081,-3.3081,-4.0847,-4.0857,-4.0871,-4.0931,-4.1526,-4.2314,-4.3163,-4.4016,-4.4863,-4.567,-4.5858,-4.5904,-4.6,-4.5902,-4.5825,-4.5888,-4.577,-4.5651,-4.5651,-4.5651,-4.5635,-4.5603,-4.5513,-4.5513,-4.5586,-4.5513,-4.5513,-4.5586,-4.5586,-4.5586,-4.5586,-4.5586,-4.5586,-4.5586,-4.5586,-4.5586,-4.5586,-4.5586,-4.5586,-4.5586,-4.5586,-4.5586,-4.5586,-4.5586,-4.5586,-4.5605,-4.5513,-4.5283,-4.5,-4.524,-4.5223,-4.5097,-4.5475,-4.6104,-4.6745,-4.6323,-4.6167,-4.6,-4.5358,-4.4872,-4.4487,-4.4338,-4.4418,-4.4587,-4.4587,-4.444,-4.4327,-4.4514,-4.3814,-4.3108,-4.3739,-4.2316,-4.0826,-4.1229,-4.0324,-3.9424,-3.9424,-3.9424,-3.9424,-3.9424,-3.9424,-3.9424,-3.9424,-3.9424,-3.9424,-3.9424,-3.9424,-3.9424,-3.9424,-3.9424,-3.9424,-3.9424,-3.9424,-3.9424,-3.9424,-3.7648,-3.6526,-3.6198,-3.4498,-3.3398,-3.3081,-3.3081,-3.3081,-3.3081,-3.3081,-3.3081,-3.3081,-3.3081,-3.3081,-3.3081,-3.3081,-3.3081,-4.0785,-4.0801,-4.0809,-4.0883,-4.1792,-4.2788,-4.3219,-4.4277,-4.5285,-4.5692,-4.5841,-4.5916,-4.5995,-4.5976,-4.5943,-4.5975,-4.5831,-4.5722,-4.5692,-4.5696,-4.5665,-4.5603,-4.5586,-4.5586,-4.5586,-4.5586,-4.5586,-4.5586,-4.5586,-4.5586,-4.5586,-4.5586,-4.5586,-4.5586,-4.5586,-4.5586,-4.5586,-4.5586,-4.5586,-4.5586,-4.5586,-4.5586,-4.5586,-4.5586,-4.5586,-4.5586,-4.5586,-4.5419,-4.5132,-4.5789,-4.5913,-4.5778,-4.6453,-4.693,-4.7143,-4.6529,-4.6152,-4.5915,-4.532,-4.4852,-4.4587,-4.4587,-4.4587,-4.4587,-4.4587,-4.4587,-4.4587,-4.4587,-4.4253,-4.3814,-4.3545,-4.2379,-4.1213,-4.0894,-4.013,-3.9424,-3.9424,-3.9424,-3.9424,-3.9424,-3.9424,-3.9424,-3.9424,-3.9424,-3.9424,-3.9424,-3.9424,-3.9424,-3.9424,-3.9424,-3.9424,-3.9424,-3.9424,-3.9424,-3.9424,-3.789,-3.6682,-3.6198,-3.4733,-3.3556,-3.3167,-3.3081,-3.3081,-3.3081,-3.3081,-3.3081,-3.3081,-3.3081,-3.3081,-3.3081,-3.3081,-3.3081,-4.077,-4.0768,-4.076,-4.0777,-4.209,-4.3325,-4.3208,-4.4537,-4.5733,-4.5618,-4.5757,-4.5881,-4.5899,-4.6007,-4.6078,-4.6089,-4.5974,-4.5871,-4.5803,-4.5783,-4.5718,-4.562,-4.5586,-4.5586,-4.5586,-4.5586,-4.5586,-4.5586,-4.5586,-4.5586,-4.5586,-4.5586,-4.5586,-4.5586,-4.5586,-4.5586,-4.5586,-4.5586,-4.5586,-4.5586,-4.5586,-4.5586,-4.5586,-4.5586,-4.5586,-4.5586,-4.5586,-4.5515,-4.5388,-4.6104,-4.649,-4.6712,-4.7504,-4.761,-4.7342,-4.6664,-4.6014,-4.5407,-4.4814,-4.4587,-4.4587,-4.4587,-4.4587,-4.4587,-4.4587,-4.4587,-4.4587,-4.4587,-4.4514,-4.4121,-4.2707,-4.2189,-4.1609,-4.013,-3.9681,-3.9538,-3.9409,-3.9424,-3.9424,-3.9424,-3.9424,-3.9424,-3.9424,-3.9424,-3.9424,-3.9424,-3.9424,-3.9424,-3.9424,-3.9424,-3.9424,-3.9424,-3.9424,-3.9337,-3.9177,-3.8219,-3.7098,-3.6053,-3.5047,-3.4037,-3.3154,-3.3081,-3.3081,-3.3081,-3.3081,-3.3081,-3.3081,-3.3081,-3.3081,-3.3081,-3.3081,-3.3081,-4.0707,-4.0642,-4.0577,-4.0684,-4.1938,-4.3142,-4.3131,-4.4421,-4.5618,-4.5603,-4.5718,-4.5825,-4.5881,-4.5929,-4.5971,-4.6078,-4.5938,-4.5815,-4.5809,-4.5708,-4.5637,-4.5603,-4.5586,-4.5586,-4.5586,-4.5586,-4.5586,-4.5586,-4.5586,-4.5586,-4.5586,-4.5586,-4.5586,-4.5586,-4.5586,-4.5586,-4.5586,-4.5586,-4.5586,-4.5586,-4.5586,-4.5586,-4.5586,-4.5586,-4.5586,-4.5586,-4.5586,-4.5991,-4.6609,-4.679,-4.7269,-4.7886,-4.8138,-4.7871,-4.7342,-4.6664,-4.6014,-4.5407,-4.4814,-4.4587,-4.4587,-4.4587,-4.4587,-4.4587,-4.4587,-4.4587,-4.4587,-4.4587,-4.4064,-4.3621,-4.4064,-4.3092,-4.1933,-4.1609,-4.1028,-4.0309,-3.9538,-3.9424,-3.9424,-3.9424,-3.9424,-3.9424,-3.9424,-3.9424,-3.9424,-3.9424,-3.9424,-3.9424,-3.9424,-3.9424,-3.9424,-3.9424,-3.9424,-3.9031,-3.8144,-3.7084,-3.6053,-3.5061,-3.3953,-3.3326,-3.3081,-3.3081,-3.3081,-3.3081,-3.3081,-3.3081,-3.3081,-3.3081,-3.3081,-3.3081,-3.3081,-3.3081,-4.0596,-4.0545,-4.0519,-4.0588,-4.1874,-4.3104,-4.3104,-4.4393,-4.5586,-4.5586,-4.5708,-4.5808,-4.59,-4.5952,-4.6033,-4.6081,-4.5971,-4.5836,-4.579,-4.5677,-4.5586,-4.5586,-4.5586,-4.5586,-4.5586,-4.5586,-4.5586,-4.5586,-4.5586,-4.5586,-4.5586,-4.5586,-4.5586,-4.5586,-4.5586,-4.5586,-4.5586,-4.5586,-4.5586,-4.5586,-4.5586,-4.5586,-4.5586,-4.5586,-4.5586,-4.5586,-4.5586,-4.6086,-4.6915,-4.7201,-4.7659,-4.8229,-4.8513,-4.8119,-4.7342,-4.6664,-4.6014,-4.5407,-4.4814,-4.4587,-4.4587,-4.4587,-4.4587,-4.4587,-4.4587,-4.4587,-4.4587,-4.4587,-4.4327,-4.3948,-4.3948,-4.329,-4.2458,-4.1543,-4.0638,-3.9935,-3.9481,-3.9424,-3.9424,-3.9424,-3.9424,-3.9424,-3.9424,-3.9424,-3.9424,-3.9424,-3.9424,-3.9424,-3.9424,-3.9424,-3.9424,-3.9424,-3.9424,-3.8943,-3.7904,-3.6852,-3.5734,-3.4746,-3.3713,-3.3081,-3.3081,-3.3081,-3.3081,-3.3081,-3.3081,-3.3081,-3.3081,-3.3081,-3.3081,-3.3081,-3.3081,-3.3081,-4.0489,-4.0489,-4.0489,-4.0489,-4.1816,-4.3104,-4.3104,-4.4393,-4.5586,-4.5586,-4.5708,-4.5808,-4.59,-4.6001,-4.6117,-4.6136,-4.6033,-4.5918,-4.5832,-4.5718,-4.5635,-4.5603,-4.5586,-4.5586,-4.5586,-4.5586,-4.5586,-4.5586,-4.5586,-4.5586,-4.5586,-4.5586,-4.5586,-4.5586,-4.5586,-4.5586,-4.5586,-4.5586,-4.5586,-4.5586,-4.5586,-4.5586,-4.5586,-4.5586,-4.5586,-4.5605,-4.5797,-4.6355,-4.7184,-4.756,-4.8003,-4.8503,-4.8702,-4.8197,-4.7342,-4.6664,-4.6014,-4.5407,-4.4814,-4.4587,-4.4587,-4.4587,-4.4587,-4.4587,-4.4587,-4.4587,-4.4587,-4.4587,-4.4457,-4.4196,-4.368,-4.3443,-4.2909,-4.1346,-4.0185,-3.9424,-3.9424,-3.9529,-3.9634,-3.9634,-3.9738,-3.9843,-3.9843,-3.9843,-3.9843,-3.9843,-3.9843,-3.9843,-3.9843,-3.9843,-3.9843,-3.9843,-3.9589,-3.8855,-3.7587,-3.6682,-3.5668,-3.4428,-3.3556,-3.3081,-3.3081,-3.3081,-3.3081,-3.3081,-3.3081,-3.3081,-3.3081,-3.3081,-3.3081,-3.3081,-3.3081,-3.3081,-4.0489,-4.0489,-4.0489,-4.0489,-4.1816,-4.3104,-4.3104,-4.4393,-4.5586,-4.5586,-4.5708,-4.5808,-4.59,-4.6001,-4.6147,-4.6269,-4.6173,-4.6039,-4.5899,-4.5825,-4.5733,-4.562,-4.5586,-4.5586,-4.5586,-4.5586,-4.5586,-4.5586,-4.5586,-4.5586,-4.5586,-4.5586,-4.5586,-4.5586,-4.5586,-4.5586,-4.5586,-4.5586,-4.5586,-4.5586,-4.5586,-4.5586,-4.5586,-4.5586,-4.5586,-4.5624,-4.6432,-4.724,-4.801,-4.8106,-4.8617,-4.9303,-4.8639,-4.7959,-4.7342,-4.6664,-4.6014,-4.5407,-4.4814,-4.4587,-4.4587,-4.4587,-4.4587,-4.4587,-4.4587,-4.4587,-4.4587,-4.4587,-4.4006,-4.3562,-4.4327,-4.3873,-4.3047,-4.2125,-4.0585,-3.9424,-3.9424,-3.9888,-4.0307,-4.0307,-4.0786,-4.1205,-4.1205,-4.1205,-4.1205,-4.1205,-4.1205,-4.1205,-4.1205,-4.1205,-4.1205,-4.1205,-4.0127,-3.8531,-3.6526,-3.629,-3.5346,-3.3398,-3.3154,-3.3081,-3.3081,-3.3081,-3.3081,-3.3081,-3.3081,-3.3081,-3.3081,-3.3081,-3.3081,-3.3081,-3.3081,-3.3081,-4.0457,-4.0489,-4.0489,-4.0489,-4.1816,-4.3104,-4.3104,-4.4393,-4.5586,-4.5586,-4.5651,-4.5703,-4.5832,-4.5909,-4.6008,-4.617,-4.6129,-4.608,-4.6033,-4.5901,-4.5769,-4.5737,-4.5651,-4.5586,-4.5586,-4.5586,-4.5586,-4.5586,-4.5586,-4.5586,-4.5586,-4.5586,-4.5586,-4.5586,-4.5586,-4.5586,-4.5586,-4.5586,-4.5586,-4.5586,-4.5586,-4.5586,-4.5586,-4.5586,-4.5586,-4.5643,-4.6528,-4.7355,-4.8106,-4.8169,-4.8701,-4.9416,-4.8604,-4.8172,-4.7797,-4.6801,-4.624,-4.5915,-4.4961,-4.4587,-4.4587,-4.4587,-4.4587,-4.4587,-4.4587,-4.4587,-4.4587,-4.4587,-4.4327,-4.4138,-4.4514,-4.3545,-4.2365,-4.1948,-4.0867,-4.0113,-4.0516,-4.0801,-4.0995,-4.0995,-4.1205,-4.1384,-4.1384,-4.1384,-4.1384,-4.1384,-4.1384,-4.1384,-4.1384,-4.1384,-4.1384,-4.1384,-4.0905,-3.9704,-3.756,-3.7316,-3.634,-3.4237,-3.406,-3.406,-3.406,-3.406,-3.406,-3.406,-3.3746,-3.3571,-3.3571,-3.3244,-3.3081,-3.3081,-3.3081,-3.3081,-4.0302,-4.0441,-4.0489,-4.0489,-4.1816,-4.3104,-4.3104,-4.4393,-4.5586,-4.5586,-4.5586,-4.5648,-4.5796,-4.5881,-4.5967,-4.612,-4.6152,-4.6147,-4.6113,-4.5946,-4.582,-4.5809,-4.568,-4.5586,-4.5586,-4.5586,-4.5586,-4.5586,-4.5586,-4.5586,-4.5586,-4.5586,-4.5586,-4.5586,-4.5586,-4.5586,-4.5586,-4.5586,-4.5586,-4.5586,-4.5586,-4.5586,-4.5586,-4.5586,-4.5586,-4.5663,-4.6647,-4.7395,-4.7949,-4.8256,-4.8781,-4.9265,-4.8586,-4.8306,-4.8172,-4.6847,-4.6383,-4.624,-4.4998,-4.4587,-4.4587,-4.4587,-4.4587,-4.4587,-4.4587,-4.4587,-4.4587,-4.4587,-4.4587,-4.4564,-4.4522,-4.3619,-4.2687,-4.2475,-4.1771,-4.1215,-4.1684,-4.1731,-4.1669,-4.1669,-4.1833,-4.1953,-4.1953,-4.1953,-4.1953,-4.1953,-4.1953,-4.1953,-4.1953,-4.1953,-4.1953,-4.1953,-4.1692,-4.0704,-3.8749,-3.8214,-3.7223,-3.5391,-3.4893,-3.4726,-3.4726,-3.4726,-3.4726,-3.4726,-3.4349,-3.4148,-3.4135,-3.3759,-3.3558,-3.3558,-3.3558,-3.3483,-3.9965,-4.0304,-4.0489,-4.0489,-4.1816,-4.3104,-4.3104,-4.4393,-4.5586,-4.5586,-4.5586,-4.5661,-4.5852,-4.5899,-4.5988,-4.6247,-4.6308,-4.6247,-4.6117,-4.5981,-4.5872,-4.5803,-4.568,-4.5586,-4.5586,-4.5586,-4.5586,-4.5586,-4.5586,-4.5586,-4.5586,-4.5586,-4.5586,-4.5586,-4.5586,-4.5586,-4.5586,-4.5586,-4.5586,-4.5586,-4.5586,-4.5586,-4.5586,-4.5586,-4.5586,-4.5682,-4.6942,-4.7514,-4.7581,-4.8521,-4.8897,-4.8863,-4.8458,-4.8306,-4.8172,-4.6847,-4.6383,-4.624,-4.4998,-4.4587,-4.4587,-4.4587,-4.4587,-4.4587,-4.4587,-4.4587,-4.4587,-4.4587,-4.4587,-4.4552,-4.4379,-4.436,-4.4338,-4.4134,-4.3409,-4.2792,-4.2807,-4.2589,-4.2434,-4.2434,-4.2865,-4.3314,-4.3314,-4.3314,-4.3314,-4.3314,-4.3314,-4.3314,-4.3314,-4.3314,-4.3314,-4.3314,-4.226,-4.1069,-3.991,-3.8721,-3.7547,-3.6552,-3.5391,-3.4726,-3.4726,-3.4726,-3.4726,-3.4726,-3.4713,-3.4713,-3.4713,-3.4713,-3.47,-3.47,-3.47,-3.4412,-3.9842,-4.0158,-4.0267,-4.0457,-4.1354,-4.2374,-4.297,-4.3932,-4.4874,-4.547,-4.568,-4.5775,-4.582,-4.5927,-4.6055,-4.6147,-4.6246,-4.6289,-4.6246,-4.6039,-4.589,-4.5862,-4.5713,-4.5586,-4.5586,-4.5586,-4.5586,-4.5586,-4.5586,-4.5586,-4.5586,-4.5586,-4.5586,-4.5586,-4.5586,-4.5586,-4.5586,-4.5586,-4.5586,-4.5586,-4.5586,-4.5586,-4.5586,-4.5586,-4.5586,-4.5682,-4.7242,-4.7752,-4.7581,-4.8806,-4.9139,-4.8863,-4.8458,-4.8306,-4.8172,-4.6847,-4.6383,-4.624,-4.4998,-4.4587,-4.4587,-4.4587,-4.4587,-4.4587,-4.4587,-4.4587,-4.4587,-4.4587,-4.4942,-4.506,-4.3716,-4.3816,-4.4016,-4.3148,-4.2756,-4.2667,-4.303,-4.31,-4.303,-4.303,-4.3195,-4.3329,-4.3329,-4.3329,-4.3329,-4.3329,-4.3329,-4.3329,-4.3329,-4.3329,-4.3329,-4.3329,-4.2981,-4.1966,-4.0027,-3.8774,-3.7566,-3.6532,-3.6109,-3.5843,-3.5843,-3.5843,-3.5843,-3.5843,-3.5479,-3.529,-3.529,-3.4901,-3.4726,-3.4726,-3.4726,-3.4148,-3.94,-3.9901,-4.0139,-4.0321,-4.1078,-4.2027,-4.2893,-4.372,-4.4547,-4.5413,-4.5708,-4.5803,-4.5825,-4.5986,-4.6117,-4.6173,-4.6247,-4.6289,-4.6225,-4.6039,-4.5862,-4.5794,-4.5673,-4.5586,-4.5586,-4.5586,-4.555,-4.5419,-4.5419,-4.5362,-4.5243,-4.5203,-4.5283,-4.5419,-4.5531,-4.5586,-4.5586,-4.5586,-4.5586,-4.5586,-4.5586,-4.5586,-4.5586,-4.5586,-4.5586,-4.5682,-4.7084,-4.7533,0.0,-4.8589,-4.8915,-4.8657,-4.8402,-4.8306,-4.8172,-4.6847,-4.6383,-4.624,-4.4998,-4.4587,-4.4587,-4.4587,-4.4587,-4.4587,-4.4587,-4.4587,-4.4587,-4.4587,-4.4865,-4.4903,-4.3702,-4.3898,-4.4272,-4.3501,-4.332,-4.3426,-4.3758,-4.3551,-4.3329,-4.3329,-4.3329,-4.3329,-4.3329,-4.3329,-4.3329,-4.3329,-4.3329,-4.3329,-4.3329,-4.3329,-4.3329,-4.3329,-4.29,-4.1864,-4.0073,-3.9183,-3.8289,-3.715,-3.6628,-3.6358,-3.6358,-3.6358,-3.6358,-3.6358,-3.6031,-3.5855,-3.5855,-3.5504,-3.5341,-3.5341,-3.4854,-3.4068,0.0,-3.9534,-4.0081,-4.0101,-4.0917,-4.195,-4.2893,-4.3682,0.0,-4.5413,-4.5723,-4.582,-4.59,-4.6027,-4.617,-4.6289,-4.6308,-4.6247,-4.6117,-4.5981,-4.5809,-4.5618,-4.5586,-4.5586,-4.5586,-4.5586,-4.5457,-4.5137,-4.5096,-4.4943,-4.4606,-4.458,-4.4732,-4.5052,-4.5362,-4.555,-4.5586,-4.5586,-4.5586,-4.5586,-4.5586,-4.5586,-4.5586,-4.5586,-4.5586,-4.5645,-4.6619,-4.7023,-4.7071,-4.7974,-4.8344,-4.8306,-4.8306,-4.8267,-4.8075,-4.6847,-4.6383,-4.6143,-4.4998,-4.4587,-4.4587,-4.4587,-4.4587,-4.4587,-4.4587,-4.4587,-4.4587,-4.4581,-4.4473,-4.4358,-4.4131,-4.4564,-4.5056,-4.4865,-4.4737,-4.4662,-4.4662,-4.3927,-4.3329,-4.3329,-4.3329,-4.3329,-4.3329,-4.3329,-4.3329,-4.3329,-4.3329,-4.3329,-4.3329,-4.3329,-4.3329,-4.3329,-4.2371,-4.1253,-3.9986,-3.9812,-3.9271,-3.8017,-3.6977,-3.6358,-3.6358,-3.6358,-3.6358,-3.6358,-3.6358,-3.6358,-3.6358,-3.6358,-3.6358,-3.6358,-3.4969,-3.4015,-3.7993,0.0,-3.9775,-4.0041,-4.0457,-4.12,0.0,-4.3258,-4.3797,-4.5278,-4.5744,-4.5881,-4.5899,-4.6084,-4.6268,-4.6289,-4.6308,-4.6247,-4.6117,-4.5938,-4.5764,-4.562,-4.5586,-4.5586,-4.5586,-4.5586,-4.5457,-4.5137,-4.5096,-4.4943,-4.4606,-4.458,-4.465,-4.4726,-4.4781,-4.5077,-4.5586,-4.5586,-4.5586,-4.5586,-4.5586,-4.5586,-4.5586,-4.5586,-4.5586,-4.5664,-4.6854,-4.7245,-4.7099,-4.8259,-4.8568,-4.8306,-4.8306,-4.8035,-4.7512,-4.671,-4.6112,-4.5597,-4.4869,-4.4587,-4.4587,-4.4587,-4.4587,-4.4587,-4.4587,-4.4587,-4.4575,-4.4421,-4.4764,-4.5095,-4.4853,-4.4875,-4.4892,-4.484,-4.422,-4.363,-4.363,-4.3488,-4.3329,-4.3329,-4.3329,-4.3329,-4.3329,-4.3329,-4.3329,-4.3329,-4.3329,-4.3329,-4.3329,-4.3329,-4.3329,-4.3329,-4.3076,-4.2126,-4.0073,-3.9094,-3.803,-3.6896,-3.6534,-3.6358,-3.6358,-3.6358,-3.6358,-3.6358,-3.6358,-3.6358,-3.6358,-3.6358,-3.6358,-3.6358,-3.4969,-3.3702,-3.7755,-3.8619,-3.9438,-3.9797,-4.0101,-4.0816,-4.2684,-4.3104,-4.3585,-4.524,-4.5764,-4.5899,-4.5899,-4.6075,-4.6225,-4.6289,-4.62,-4.6075,-4.599,-4.5828,-4.568,-4.5603,-4.5457,-4.5362,-4.5362,-4.5243,-4.4988,-4.4638,-4.4612,-4.4455,-4.4125,-4.4095,-4.4184,-4.4318,-4.4318,-4.4663,-4.5362,-4.5362,-4.5438,-4.5586,-4.5586,-4.5586,-4.5586,-4.5586,-4.5586,-4.5645,-4.6386,-4.6826,-4.7062,-4.7768,-4.8145,-4.8306,-4.8306,-4.8114,-4.7715,-4.6756,-4.6192,-4.5783,-4.4906,-4.4587,-4.4587,-4.4587,-4.4587,-4.4587,-4.4587,-4.4327,-4.4023,-4.424,-4.4493,-4.4721,-4.4487,-4.4285,-4.4143,-4.4143,-4.3708,-4.3329,-4.3329,-4.3329,-4.3329,-4.3329,-4.3329,-4.3329,-4.3329,-4.3329,-4.3329,-4.3329,-4.3329,-4.3329,-4.3329,-4.3329,-4.3329,-4.3329,-4.282,-4.1782,-4.0073,-3.8827,-3.7586,-3.6452,-3.6358,-3.6358,-3.6358,-3.6358,-3.6358,-3.6358,-3.6358,-3.6358,-3.6358,-3.6358,-3.6358,-3.6358,-3.435,-3.3044,-3.7685,-3.8425,-3.916,-3.9529,-3.9882,-4.0672,-4.2667,-4.3104,-4.3583,-4.5271,-4.5776,-4.5888,-4.5901,-4.6031,-4.615,-4.6247,-4.605,-4.5881,-4.5803,-4.5677,-4.5586,-4.5531,-4.5263,-4.5074,-4.503,-4.4776,-4.4447,-4.4028,-4.4016,-4.3849,-4.3513,-4.3497,-4.3612,-4.3893,-4.3924,-4.4261,-4.4943,-4.5033,-4.5282,-4.5586,-4.5586,-4.5586,-4.5586,-4.5586,-4.5586,-4.5607,-4.5746,-4.6269,-4.7015,-4.7069,-4.759,-4.8306,-4.8306,-4.8172,-4.7879,-4.6801,-4.6288,-4.5965,-4.4944,-4.4587,-4.4587,-4.4587,-4.4587,-4.4587,-4.4587,-4.4006,-4.341,-4.4046,-4.4042,-4.3876,-4.4059,-4.3701,-4.3329,-4.3472,-4.3409,-4.3329,-4.3329,-4.3329,-4.3329,-4.3329,-4.3329,-4.3329,-4.3329,-4.3329,-4.3329,-4.3329,-4.3329,-4.3329,-4.3329,-4.3329,-4.325,-4.3076,-4.2193,-4.107,-3.9711,-3.8649,-3.7586,-3.6452,-3.6358,-3.6358,-3.6358,-3.6358,-3.6358,-3.6358,-3.6358,-3.6358,-3.6358,-3.6358,-3.6358,-3.6358,-3.354,-3.2331,-3.7285,-3.8168,-3.916,-3.9529,-4.0024,-4.0918,-4.2701,-4.3104,-4.3596,-4.5399,-4.5828,-4.5896,-4.5907,-4.6094,-4.6246,-4.6147,-4.5995,-4.5881,-4.5803,-4.5677,-4.5495,-4.5222,-4.5118,-4.4988,-4.4707,-4.4631,-4.4447,-4.4028,-4.4016,-4.3849,-4.3513,-4.3497,-4.3513,-4.3563,-4.3563,-4.3791,-4.4175,-4.4806,-4.5282,-4.5586,-4.5586,-4.5586,-4.5586,-4.5586,-4.5586,-4.5607,-4.5746,-4.6269,-4.7015,-4.7069,-4.759,-4.8306,-4.8306,-4.7638,-4.6664,-4.646,-4.5732,-4.4852,-4.4682,-4.4587,-4.4587,-4.4587,-4.4587,-4.4587,-4.4587,-4.4006,-4.3387,-4.3912,-4.3485,-4.3388,-4.5341,-4.4538,-4.3472,-4.4373,-4.3927,-4.3329,-4.3329,-4.3329,-4.3329,-4.3329,-4.3329,-4.3329,-4.3329,-4.3329,-4.3329,-4.3329,-4.3329,-4.3329,-4.3329,-4.3329,-4.29,-4.1932,-4.1684,-4.0718,-3.8545,-3.8198,-3.7586,-3.6452,-3.6358,-3.6358,-3.6358,-3.6358,-3.6358,-3.6358,-3.6358,-3.6358,-3.6358,-3.6358,-3.6358,-3.6358,-3.354,-3.2331,-3.719,-3.8259,-3.9408,-3.9576,-4.033,-4.1401,-4.2835,-4.3569,-4.4316,-4.5587,-4.5935,-4.5997,-4.5916,-4.6,-4.6027,-4.585,-4.5847,-4.582,-4.5708,-4.5635,-4.5476,-4.514,-4.4943,-4.4682,-4.4318,-4.4106,-4.3931,-4.3758,-4.3726,-4.3679,-4.3532,-4.3497,-4.3497,-4.3497,-4.3497,-4.3679,-4.4016,-4.4535,-4.4988,-4.5322,-4.5513,-4.5586,-4.5586,-4.5586,-4.5586,-4.5587,-4.5271,-4.5854,-4.6958,-4.6588,-4.7186,-4.8306,-4.8306,-4.7937,-4.7367,-4.6646,-4.5648,-4.4587,-4.4587,-4.4587,-4.4587,-4.4587,-4.4587,-4.4587,-4.4587,-4.368,-4.2875,-4.4367,-4.3754,-4.3004,-4.426,-4.3974,-4.3409,-4.3849,-4.363,-4.3329,-4.3329,-4.3329,-4.3329,-4.3329,-4.3329,-4.3329,-4.3329,-4.3329,-4.3329,-4.3329,-4.3329,-4.3329,-4.3329,-4.3329,-4.29,-4.1684,-4.1085,-3.9958,-3.8289,-3.7494,-3.6977,-3.6452,-3.6358,-3.6358,-3.6358,-3.6358,-3.6358,-3.6358,-3.6358,-3.6358,-3.6358,-3.6358,-3.6358,-3.6358,-3.354,-3.2331,-3.7269,-3.8419,-3.9622,-3.9709,-4.0654,-4.1855,-4.2944,-4.3927,-4.4865,-4.5757,-4.5982,-4.601,-4.5956,-4.5913,-4.5822,-4.56,-4.563,-4.565,-4.5494,-4.5419,-4.5263,-4.5011,-4.4682,-4.4308,-4.3912,-4.3646,-4.3497,-4.3497,-4.3497,-4.3497,-4.3497,-4.3497,-4.3497,-4.3497,-4.3497,-4.3612,-4.3881,-4.428,-4.4682,-4.5096,-4.5362,-4.5495,-4.5495,-4.5495,-4.5495,-4.5438,-4.4872,-4.5523,-4.6939,-4.6215,-4.6856,-4.8306,-4.8306,-4.8114,-4.7738,-4.6618,-4.5494,-4.4587,-4.4587,-4.4587,-4.4587,-4.4587,-4.4587,-4.457,-4.4384,-4.3229,-4.2414,-4.4237,-4.3633,-4.2582,-4.3423,-4.3472,-4.3329,-4.3329,-4.3329,-4.3329,-4.3329,-4.3329,-4.3329,-4.3329,-4.3329,-4.3329,-4.3329,-4.3329,-4.3329,-4.3329,-4.3329,-4.3329,-4.3329,-4.3076,-4.2467,-4.1337,-4.0145,-3.9006,-3.7756,-3.6883,-3.6358,-3.6358,-3.6358,-3.6358,-3.6358,-3.6358,-3.6358,-3.6358,-3.6358,-3.6358,-3.6358,-3.6358,-3.6358,-3.6358,-3.354,-3.2331,-3.7504,-3.857,-3.9668,-3.9982,-4.0918,-4.2033,-4.2983,-4.3791,-4.4666,-4.5835,-4.5937,-4.5886,-4.6058,-4.5975,-4.5794,-4.548,-4.5368,-4.5302,-4.5142,-4.4872,-4.4657,-4.4631,-4.429,-4.3912,-4.3563,-4.3513,-4.3497,-4.3497,-4.3497,-4.3497,-4.3497,-4.3497,-4.3497,-4.3497,-4.3497,-4.3513,-4.3548,-4.3881,-4.4401,-4.5096,-4.5118,-4.5137,-4.5137,-4.5137,-4.5137,-4.5118,-4.4776,-4.5523,-4.6939,-4.6215,-4.6856,-4.8306,-4.8306,-4.7596,-4.6478,-4.5833,-4.5142,-4.4587,-4.4587,-4.4587,-4.4587,-4.4587,-4.4587,-4.4457,-4.3621,-4.2707,-4.2107,-4.2716,-4.2203,-4.1972,-4.4172,-4.4004,-4.3329,-4.3329,-4.3329,-4.3329,-4.3329,-4.3329,-4.3329,-4.3329,-4.3329,-4.3329,-4.3329,-4.3329,-4.3329,-4.3329,-4.3329,-4.3329,-4.3329,-4.2371,-4.1253,-4.0145,-3.8917,-3.7769,-3.6628,-3.6452,-3.6358,-3.6358,-3.6358,-3.6358,-3.6358,-3.6358,-3.6358,-3.6358,-3.6358,-3.6358,-3.6358,-3.6358,-3.6358,-3.6358,-3.354,-3.2331,-3.7521,-3.8628,-3.9791,-4.0043,-4.1385,-4.277,-4.3113,-4.4358,-4.5558,-4.6016,-4.6036,-4.5982,-4.5969,-4.5839,-4.5636,-4.5372,-4.5245,-4.5166,-4.5118,-4.4825,-4.458,-4.458,-4.4233,-4.3881,-4.3548,-4.3497,-4.3497,-4.3497,-4.3497,-4.3497,-4.3497,-4.3497,-4.3497,-4.3497,-4.3497,-4.3497,-4.3497,-4.3818,-4.4146,-4.4428,-4.4682,-4.48,-4.48,-4.48,-4.48,-4.4757,-4.4401,-4.514,-4.6595,-4.6096,-4.6856,-4.8306,-4.8306,-4.7512,-4.6383,-4.6143,-4.5459,-4.4587,-4.4587,-4.4587,-4.4587,-4.4587,-4.4587,-4.4457,-4.3562,-4.2707,-4.2107,-4.2576,-4.2071,-4.176,-4.3438,-4.3551,-4.3329,-4.3329,-4.3329,-4.3329,-4.3329,-4.3329,-4.3329,-4.3329,-4.3329,-4.3329,-4.3329,-4.3329,-4.3329,-4.3329,-4.3329,-4.3076,-4.229,-4.185,-4.0901,-3.8992,-3.7769,-3.6896,-3.6452,-3.6358,-3.6358,-3.6358,-3.6358,-3.6358,-3.6358,-3.6358,-3.6358,-3.6358,-3.6358,-3.6358,-3.6358,-3.6358,-3.6358,-3.6358,-3.4459,-3.3155,-3.7871,-3.892,-3.9967,-4.0208,-4.1735,-4.3199,-4.3248,-4.468,-4.6002,-4.603,-4.6075,-4.6045,-4.5891,-4.5686,-4.5442,-4.515,-4.4922,-4.4738,-4.4738,-4.4455,-4.428,-4.4392,-4.4076,-4.374,-4.3513,-4.3497,-4.3497,-4.3497,-4.3497,-4.3497,-4.3497,-4.3497,-4.3497,-4.3497,-4.3497,-4.3497,-4.3497,-4.3726,-4.3849,-4.3868,-4.4106,-4.4308,-4.4419,-4.4419,-4.4419,-4.4392,-4.4117,-4.4749,-4.602,-4.5915,-4.6856,-4.8306,-4.8306,-4.7512,-4.6383,-4.6383,-4.5648,-4.4587,-4.4587,-4.4587,-4.4587,-4.4587,-4.4384,-4.4006,-4.3169,-4.2252,-4.1712,-4.2165,-4.1864,-4.1683,-4.2985,-4.3329,-4.3329,-4.3329,-4.3329,-4.3329,-4.3329,-4.3329,-4.3329,-4.3329,-4.3329,-4.3329,-4.3329,-4.3329,-4.3329,-4.3329,-4.2981,-4.2467,-4.1684,-4.0986,-3.9757,-3.7756,-3.6896,-3.6358,-3.6358,-3.6358,-3.6358,-3.6358,-3.6358,-3.6358,-3.6358,-3.6358,-3.6358,-3.6358,-3.6358,-3.6358,-3.6358,-3.6358,-3.6358,-3.6358,-3.4969,-3.3662,-3.8591,-3.9429,-4.0194,-4.0617,-4.1908,-4.3163,-4.3358,-4.4659,-4.5813,-4.5884,-4.6021,-4.6047,-4.582,-4.5583,-4.5244,-4.4762,-4.4293,-4.4016,-4.4016,-4.3693,-4.3612,-4.3955,-4.3693,-4.3497,-4.3497,-4.3497,-4.3497,-4.3497,-4.3497,-4.3497,-4.3497,-4.3497,-4.3497,-4.3497,-4.3497,-4.3497,-4.3497,-4.3497,-4.3497,-4.3497,-4.3497,-4.366,-4.4016,-4.4016,-4.4016,-4.4016,-4.4016,-4.4433,-4.522,-4.5694,-4.6856,-4.8306,-4.8306,-4.7512,-4.6383,-4.6383,-4.5648,-4.4587,-4.4587,-4.4587,-4.4587,-4.4587,-4.4006,-4.3108,-4.2252,-4.1412,-4.0778,-4.1264,-4.1384,-4.1683,-4.2985,-4.3329,-4.3329,-4.3329,-4.3329,-4.3329,-4.3329,-4.3329,-4.3329,-4.3329,-4.3329,-4.3329,-4.3329,-4.3329,-4.3329,-4.3329,-4.229,-4.1587,-4.1587,-3.9508,-3.7678,-3.6546,-3.6358,-3.6358,-3.6358,-3.6358,-3.6358,-3.6358,-3.6358,-3.6358,-3.6358,-3.6358,-3.6358,-3.6358,-3.6358,-3.6358,-3.6358,-3.6358,-3.6358,-3.6358,-3.5078,-3.3662,-3.8114,-3.9104,-4.0242,-4.1345,-4.2473,-4.3453,-4.4047,-4.5056,-4.5878,-4.5889,-4.5901,-4.5805,-4.5503,-4.53,-4.4994,-4.4421,-4.4149,-4.4016,-4.4016,-4.3693,-4.3612,-4.3955,-4.3693,-4.3497,-4.3497,-4.3497,-4.3497,-4.3497,-4.3497,-4.3497,-4.3497,-4.3497,-4.3497,-4.3497,-4.3497,-4.3497,-4.3497,-4.3497,-4.3497,-4.3497,-4.3497,-4.3529,-4.3646,-4.3646,-4.3646,-4.3646,-4.3646,-4.4107,-4.4939,-4.6214,-4.737,-4.8306,-4.8306,-4.7512,-4.6383,-4.6383,-4.5648,-4.4587,-4.4587,-4.4587,-4.4587,-4.4587,-4.4006,-4.3108,-4.2252,-4.1412,-4.0685,-4.0721,-4.1025,-4.1579,-4.2432,-4.2985,-4.3329,-4.3329,-4.3329,-4.3329,-4.3329,-4.3329,-4.3329,-4.3329,-4.3329,-4.3329,-4.3329,-4.3329,-4.3329,-4.3329,-4.229,-4.0986,-3.9332,-3.7848,-3.6803,-3.6452,-3.6358,-3.6358,-3.6358,-3.6358,-3.6358,-3.6358,-3.6358,-3.6358,-3.6358,-3.6358,-3.6358,-3.6358,-3.6358,-3.6358,-3.6358,-3.6358,-3.6358,-3.6358,-3.5966,-3.4557,-3.8646,-3.9545,-4.0501,-4.1694,-4.2669,-4.3612,-4.4766,-4.5414,-4.5804,-4.5842,-4.5832,-4.5689,-4.5284,-4.5069,-4.4772,-4.4221,-4.3953,-4.3804,-4.3804,-4.3631,-4.3563,-4.3772,-4.3612,-4.3497,-4.3497,-4.3497,-4.3497,-4.3497,-4.3497,-4.3497,-4.3497,-4.3497,-4.3497,-4.3497,-4.3497,-4.3497,-4.3497,-4.3497,-4.3497,-4.3497,-4.3497,-4.3497,-4.3497,-4.3497,-4.3497,-4.3497,-4.3497,-4.414,-4.5259,-4.6232,-4.7297,-4.8267,-4.8035,-4.7324,-4.6383,-4.6143,-4.5407,-4.4587,-4.4587,-4.4384,-4.4064,-4.4064,-4.329,-4.2189,-4.1658,-4.0894,-4.0182,-4.0349,-4.0876,-4.1534,-4.2192,-4.2851,-4.3329,-4.3329,-4.3329,-4.3329,-4.3329,-4.3329,-4.3329,-4.3329,-4.3329,-4.3329,-4.3329,-4.3329,-4.3155,-4.2725,-4.1239,-3.9508,-3.7678,-3.6803,-3.6358,-3.6358,-3.6358,-3.6358,-3.6358,-3.6358,-3.6358,-3.6358,-3.6358,-3.6358,-3.6358,-3.6358,-3.6358,-3.6358,-3.6358,-3.6358,-3.6358,-3.6358,-3.6358,-3.6358,-3.6358,-3.5259,-3.9558,-4.0287,-4.0897,-4.1876,-4.2771,-4.3851,-4.5421,-4.5696,-4.5635,-4.5769,-4.5769,-4.56,-4.5142,-4.4821,-4.4497,-4.402,-4.3693,-4.3497,-4.3497,-4.3497,-4.3497,-4.3497,-4.3497,-4.3497,-4.3497,-4.3497,-4.3497,-4.3497,-4.3497,-4.3497,-4.3497,-4.3497,-4.3497,-4.3497,-4.3497,-4.3497,-4.3497,-4.3497,-4.3497,-4.3497,-4.3497,-4.3497,-4.3497,-4.3497,-4.3497,-4.3497,-4.3497,-4.4397,-4.5902,-4.5902,-4.6856,-4.8249,-4.7632,-4.6999,-4.6336,-4.5732,-4.5142,-4.4587,-4.4587,-4.4006,-4.3306,-4.3306,-4.2125,-4.069,-4.069,-4.0115,-3.9544,-4.0142,-4.0831,-4.1519,-4.2117,-4.2806,-4.3329,-4.3329,-4.3329,-4.3329,-4.3329,-4.3329,-4.3329,-4.3329,-4.3329,-4.3329,-4.3329,-4.325,-4.2725,-4.1504,-3.9508,-3.7678,-3.6534,-3.6358,-3.6358,-3.6358,-3.6358,-3.6358,-3.6358,-3.6358,-3.6358,-3.6358,-3.6358,-3.6358,-3.6358,-3.6358,-3.6358,-3.6358,-3.6358,-3.6358,-3.6358,-3.6358,-3.6358,-3.6358,-3.6358,-3.5667,-3.8251,-3.9489,-4.0858,-4.2539,-4.4103,-4.5324,-4.5584,-4.562,-4.5635,-4.5769,-4.5503,-4.5144,-4.4781,-4.4398,-4.4031,-4.366,-4.3548,-4.3497,-4.3497,-4.3497,-4.3497,-4.3497,-4.3497,-4.3497,-4.3497,-4.3497,-4.3497,-4.3497,-4.3497,-4.3497,-4.3497,-4.3497,-4.3497,-4.3497,-4.3497,-4.3497,-4.3497,-4.3497,-4.3497,-4.3497,-4.3497,-4.3497,-4.3497,-4.3497,-4.3497,-4.3497,-4.3497,-4.4397,-4.5902,-4.5902,-4.6856,-4.8249,-4.7632,-4.6999,-4.6336,-4.5732,-4.5142,-4.4587,-4.4587,-4.4006,-4.3306,-4.3306,-4.2125,-4.069,-4.069,-4.0115,-3.9454,-3.9589,-4.0472,-4.1414,-4.1549,-4.2462,-4.3329,-4.3329,-4.3329,-4.3329,-4.3329,-4.3329,-4.3329,-4.3329,-4.3329,-4.3329,-4.3329,-4.2548,-4.1239,-3.9156,-3.8456,-3.7678,-3.6534,-3.6358,-3.6358,-3.6358,-3.6358,-3.6358,-3.6358,-3.6358,-3.6358,-3.6358,-3.6358,-3.6358,-3.6358,-3.6358,-3.6358,-3.6358,-3.6358,-3.6358,-3.6358,-3.6358,-3.6358,-3.6358,-3.6358,-3.5667,-3.8301,-3.9315,-4.0546,-4.2754,-4.4561,-4.5756,-4.5618,-4.5586,-4.562,-4.5677,-4.5381,-4.5007,-4.4657,-4.4261,-4.3881,-4.3529,-4.3497,-4.3497,-4.3497,-4.3497,-4.3497,-4.3497,-4.3497,-4.3497,-4.3497,-4.3497,-4.3497,-4.3497,-4.3497,-4.3375,-4.3142,-4.3375,-4.3375,-4.3142,-4.3375,-4.3497,-4.3497,-4.3497,-4.3497,-4.3497,-4.3497,-4.3497,-4.3497,-4.3497,-4.3497,-4.3497,-4.3497,-4.4397,-4.5902,-4.5902,-4.6856,-4.821,-4.7281,-4.671,-4.6288,-4.5425,-4.4852,-4.4587,-4.4587,-4.3739,-4.2645,-4.2645,-4.1478,-4.0045,-4.0045,-3.9737,-3.9424,-3.9424,-4.0142,-4.0995,-4.1294,-4.2117,-4.294,-4.3254,-4.3329,-4.3329,-4.3329,-4.3329,-4.3329,-4.3329,-4.3329,-4.3155,-4.2548,-4.107,-3.9508,-3.8289,-3.7678,-3.7057,-3.6452,-3.6358,-3.6358,-3.6358,-3.6358,-3.6358,-3.6358,-3.6358,-3.6358,-3.6358,-3.6358,-3.6358,-3.6358,-3.6358,-3.6358,-3.6358,-3.6358,-3.6358,-3.6358,-3.6358,-3.6358,-3.6358,-3.6358,-3.6061,-3.8562,-3.9566,-4.0674,-4.2871,-4.4605,-4.5756,-4.5618,-4.5586,-4.5586,-4.5586,-4.5342,-4.5007,-4.4657,-4.4261,-4.3881,-4.3529,-4.3497,-4.3497,-4.3497,-4.3497,-4.3497,-4.3497,-4.3497,-4.3497,-4.3497,-4.341,-4.3375,-4.3375,-4.3286,-4.305,-4.2711,-4.3142,-4.3214,-4.2864,-4.325,-4.3497,-4.3497,-4.3497,-4.3497,-4.3497,-4.3497,-4.3497,-4.3497,-4.3497,-4.3497,-4.3497,-4.3497,-4.4397,-4.5902,-4.5902,-4.68,-4.8035,-4.6847,-4.6336,-4.6094,-4.4998,-4.4587,-4.4587,-4.4587,-4.3469,-4.1997,-4.1997,-4.0842,-3.9424,-3.9424,-3.9424,-3.9424,-3.9424,-3.9888,-4.0546,-4.1205,-4.1878,-4.2521,-4.318,-4.3329,-4.3329,-4.3329,-4.3329,-4.3329,-4.3329,-4.3155,-4.2644,-4.1504,-3.9508,-3.8017,-3.7848,-3.6977,-3.6358,-3.6358,-3.6358,-3.6358,-3.6358,-3.6358,-3.6358,-3.6358,-3.6358,-3.6358,-3.6358,-3.6358,-3.6358,-3.6358,-3.6358,-3.6358,-3.6358,-3.6358,-3.6358,-3.6358,-3.6358,-3.6358,-3.6358,-3.6358,-3.6358,-3.7324,-4.0057,-4.2543,-4.3234,-4.4605,-4.5756,-4.5618,-4.5586,-4.5586,-4.5586,-4.5342,-4.5007,-4.4657,-4.4261,-4.3881,-4.3529,-4.3497,-4.3497,-4.3497,-4.3497,-4.3497,-4.3497,-4.3497,-4.3497,-4.3497,-4.3087,-4.2826,-4.2826,-4.2324,-4.2244,-4.2673,-4.2788,-4.2976,-4.3375,-4.3444,-4.3497,-4.3497,-4.3497,-4.3497,-4.3497,-4.3497,-4.3497,-4.3497,-4.3497,-4.3497,-4.3497,-4.3497,-4.4397,-4.5902,-4.5902,-4.6535,-4.7428,-4.671,-4.6112,-4.5563,-4.4852,-4.4587,-4.4587,-4.4587,-4.3469,-4.1997,-4.1997,-4.0842,-3.9424,-3.9424,-3.9424,-3.9424,-3.9424,-3.9888,-4.0546,-4.1205,-4.1878,-4.2521,-4.318,-4.3329,-4.3329,-4.3329,-4.3329,-4.3329,-4.3329,-4.2467,-4.1518,-4.0318,-3.9006,-3.7756,-3.6803,-3.6546,-3.6358,-3.6358,-3.6358,-3.6358,-3.6358,-3.6358,-3.6358,-3.6358,-3.6358,-3.6358,-3.6358,-3.6358,-3.6358,-3.6358,-3.6358,-3.6358,-3.6358,-3.6358,-3.6358,-3.6358,-3.6358,-3.6358,-3.6358,-3.6358,-3.6358,-3.7457,-4.0347,-4.2928,-4.3224,-4.4576,-4.5813,-4.5632,-4.5586,-4.555,-4.5362,-4.5342,-4.5222,-4.4701,-4.4261,-4.3881,-4.3529,-4.3497,-4.3497,-4.3497,-4.3497,-4.341,-4.3105,-4.305,-4.2921,-4.2562,-4.2324,-4.2203,-4.2203,-4.1937,-4.1895,-4.2162,-4.2519,-4.2826,-4.305,-4.3321,-4.3497,-4.3497,-4.3497,-4.3497,-4.3497,-4.3497,-4.3497,-4.3497,-4.3497,-4.3497,-4.3497,-4.3497,-4.4397,-4.5902,-4.5902,-4.6497,-4.7342,-4.6664,-4.6014,-4.5407,-4.4814,-4.4587,-4.4587,-4.4587,-4.3469,-4.1997,-4.1997,-4.0842,-3.9424,-3.9424,-3.9424,-3.9424,-3.9424,-3.9634,-4.0008,-4.0666,-4.1324,-4.1968,-4.2626,-4.306,-4.3329,-4.3329,-4.3329,-4.3076,-4.2467,-4.1435,-4.0304,-3.9081,-3.7952,-3.6977,-3.6452,-3.6358,-3.6358,-3.6358,-3.6358,-3.6358,-3.6358,-3.6358,-3.6358,-3.6358,-3.6358,-3.6358,-3.6358,-3.6358,-3.6358,-3.6358,-3.6358,-3.6358,-3.6358,-3.6358,-3.6358,-3.6358,-3.6358,-3.6358,-3.6358,-3.6358,-3.6358,-3.7723,-4.0382,-4.2807,-4.3066,-4.4504,-4.5842,-4.5688,-4.5618,-4.5531,-4.5282,-4.5362,-4.5283,-4.4707,-4.4346,-4.4016,-4.3563,-4.3497,-4.3497,-4.3497,-4.3497,-4.3286,-4.275,-4.2826,-4.2598,-4.1895,-4.181,-4.1768,-4.1578,-4.1446,-4.1508,-4.1793,-4.2221,-4.2598,-4.2902,-4.3286,-4.3497,-4.3497,-4.3497,-4.3497,-4.3497,-4.3497,-4.3497,-4.3497,-4.3497,-4.3497,-4.3497,-4.3497,-4.4397,-4.5902,-4.5718,-4.6361,-4.7342,-4.6478,-4.5915,-4.5407,-4.4814,-4.4587,-4.457,-4.4327,-4.329,-4.1933,-4.1739,-4.0638,-3.9424,-3.9424,-3.9424,-3.9424,-3.9424,-3.9424,-3.9574,-4.0232,-4.0891,-4.1549,-4.2207,-4.2865,-4.3329,-4.3329,-4.3329,-4.2981,-4.185,-4.0661,-3.9536,-3.8289,-3.715,-3.6358,-3.6358,-3.6358,-3.6358,-3.6358,-3.6358,-3.6358,-3.6358,-3.6358,-3.6358,-3.6358,-3.6358,-3.6358,-3.6358,-3.6358,-3.6358,-3.6358,-3.6358,-3.6358,-3.6358,-3.6358,-3.6358,-3.6358,-3.6358,-3.6358,-3.6358,-3.6358,-3.6358,-3.7703,-4.004,-4.2434,-4.2816,-4.4373,-4.5793,-4.5782,-4.5677,-4.5605,-4.5568,-4.5342,-4.503,-4.4676,-4.458,-4.4337,-4.3631,-4.3497,-4.3497,-4.3497,-4.3497,-4.3286,-4.275,-4.3142,-4.3032,-4.1895,-4.181,-4.1578,-4.0995,-4.0466,-4.0642,-4.175,-4.1853,-4.2346,-4.341,-4.3497,-4.3497,-4.3497,-4.3497,-4.3497,-4.3497,-4.3497,-4.3497,-4.3497,-4.3497,-4.3497,-4.3497,-4.3497,-4.4397,-4.5865,-4.5279,-4.5959,-4.7299,-4.6014,-4.5511,-4.5407,-4.4814,-4.4587,-4.4514,-4.3621,-4.2785,-4.1869,-4.1013,-4.0115,-3.9424,-3.9424,-3.9424,-3.9424,-3.9424,-3.9424,-3.9574,-4.0232,-4.0891,-4.1549,-4.2207,-4.2865,-4.3329,-4.3329,-4.3329,-4.2981,-4.185,-4.0661,-3.9536,-3.8289,-3.715,-3.6358,-3.6358,-3.6358,-3.6358,-3.6358,-3.6358,-3.6358,-3.6358,-3.6358,-3.6358,-3.6358,-3.6358,-3.6358,-3.6358,-3.6358,-3.6358,-3.6358,-3.6358,-3.6358,-3.6358,-3.6358,-3.6358,-3.6358,-3.6358,-3.6358,-3.6358,-3.6358,-3.6358,-3.748,-3.9536,-4.1684,-4.2493,-4.4094,-4.5503,-4.5637,-4.5626,-4.555,-4.5322,-4.518,-4.4919,-4.4318,-4.4204,-4.4046,-4.3563,-4.3497,-4.3497,-4.3497,-4.3497,-4.3286,-4.275,-4.2864,-4.2541,-4.1358,-4.1223,-4.1013,-4.0417,-4.0546,-4.0967,-4.1768,-4.2162,-4.2714,-4.3479,-4.3497,-4.3497,-4.3497,-4.3497,-4.3497,-4.3497,-4.3497,-4.3497,-4.3497,-4.3497,-4.3497,-4.3497,-4.3497,-4.4397,-4.5847,-4.524,-4.567,-4.6664,-4.5833,-4.5267,-4.4906,-4.4665,-4.4587,-4.4457,-4.3621,-4.2724,-4.1869,-4.1013,-4.0115,-3.9424,-3.9424,-3.9424,-3.9424,-3.9424,-3.9424,-3.9469,-3.9709,-4.0262,-4.1025,-4.2102,-4.2865,-4.3076,-4.2371,-4.2208,-4.167,-3.9757,-3.8992,-3.8392,-3.7243,-3.6722,-3.6358,-3.6358,-3.6358,-3.6358,-3.6358,-3.6358,-3.6358,-3.6358,-3.6358,-3.6358,-3.6358,-3.6358,-3.6358,-3.6358,-3.6358,-3.6358,-3.6358,-3.6358,-3.6358,-3.6358,-3.6358,-3.6358,-3.6358,-3.6358,-3.6358,-3.6358,-3.6358,-3.6358,-3.7273,-3.9173,-4.1199,-4.2244,-4.3879,-4.5302,-4.5596,-4.5634,-4.5526,-4.5323,-4.5096,-4.4781,-4.429,-4.3986,-4.374,-4.3548,-4.3497,-4.3497,-4.3497,-4.3497,-4.3286,-4.275,-4.2864,-4.2501,-4.1313,-4.1402,-4.1268,-4.072,-4.1013,-4.149,-4.208,-4.248,-4.2939,-4.3479,-4.3497,-4.3497,-4.3497,-4.3497,-4.3497,-4.3497,-4.3497,-4.3497,-4.3497,-4.3497,-4.3497,-4.3497,-4.3497,-4.4397,-4.5847,-4.524,-4.5688,-4.6664,-4.5833,-4.5284,-4.4852,-4.4665,-4.4384,-4.4064,-4.3169,-4.2316,-4.1412,-4.0569,-3.9864,-3.9424,-3.9424,-3.9424,-3.9424,-3.9424,-3.9424,-3.9424,-3.9424,-4.0068,-4.101,-4.2102,-4.2599,-4.2548,-4.1767,-4.1587,-4.0887,-3.8545,-3.8107,-3.7756,-3.6628,-3.6358,-3.6358,-3.6358,-3.6358,-3.6358,-3.6358,-3.6358,-3.6358,-3.6358,-3.6358,-3.6358,-3.6358,-3.6358,-3.6358,-3.6358,-3.6358,-3.6358,-3.6358,-3.6358,-3.6358,-3.6358,-3.6358,-3.6358,-3.6358,-3.6358,-3.6358,-3.6358,-3.6358,-3.5953,0.0,0.0,0.0,-4.2028,-4.3679,-4.5181,-4.566,-4.5676,-4.559,-4.5607,-4.5058,-4.4587,-4.4606,-4.3992,-4.3497,-4.3497,-4.3497,-4.3497,-4.3497,-4.3497,-4.3304,-4.2788,-4.3178,-4.3069,-4.1937,-4.2342,-4.244,-4.1853,-4.181,-4.208,-4.2655,-4.2711,-4.2976,-4.3479,-4.3497,-4.3497,-4.3497,-4.3497,-4.3497,-4.3497,-4.3497,-4.3497,-4.3497,-4.3497,-4.3497,-4.3497,-4.3479,-4.4415,-4.5847,-4.524,-4.5918,-4.7194,-4.5982,-4.5459,-4.5407,-4.4814,-4.4064,-4.3185,-4.2316,-4.1412,-4.0569,-3.9666,-3.9424,-3.9424,-3.9424,-3.9424,-3.9424,-3.9424,-3.9424,-3.9424,-3.9424,-4.0382,-4.1519,-4.2177,-4.1968,-4.1573,-4.1504,-4.1504,-4.0901,-3.8545,-3.8107,-3.7678,-3.6628,-3.6358,-3.6358,-3.6358,-3.6358,-3.6358,-3.6358,-3.6358,-3.6358,-3.6358,-3.6358,-3.6358,-3.6358,-3.6358,-3.6358,-3.6358,-3.6358,-3.6358,-3.6358,-3.6358,-3.6358,-3.6358,-3.6358,-3.6358,-3.6358,-3.6358,-3.6358,-3.6358,-3.6358,-3.4848,-3.6943,0.0,0.0,0.0,0.0,0.0,-4.5143,-4.525,-4.5305,-4.5551,-4.5082,-4.4607,-4.4607,-4.3992,-4.3497,-4.3497,-4.3497,-4.3497,-4.3497,-4.3497,-4.3444,-4.3286,-4.341,-4.3196,-4.2519,-4.2616,-4.244,-4.1853,-4.2203,-4.2519,-4.2711,-4.3069,-4.3339,-4.3497,-4.3497,-4.3497,-4.3497,-4.3497,-4.3497,-4.3497,-4.3497,-4.3497,-4.3497,-4.3497,-4.3497,-4.3479,-4.3087,-4.4034,-4.581,-4.4737,-4.494,-4.5933,-4.5142,-4.4869,-4.4814,-4.4682,-4.4064,-4.3185,-4.2316,-4.1412,-4.0569,-3.9666,-3.9424,-3.9424,-3.9424,-3.9424,-3.9424,-3.9424,-3.9424,-3.9424,-3.9424,-4.0053,-4.0591,-4.0412,-4.1307,-4.1638,-3.95,-3.9784,-3.9885,-3.8379,-3.7415,-3.6803,-3.6452,-3.6358,-3.6358,-3.6358,-3.6358,-3.6358,-3.6358,-3.6358,-3.6358,-3.6358,-3.6358,-3.6358,-3.6358,-3.6358,-3.6358,-3.6358,-3.6358,-3.6358,-3.6358,-3.6358,-3.6358,-3.6358,-3.6358,-3.6358,-3.6358,-3.6358,-3.6358,-3.6358,-3.5379,-3.3958,-3.7308,-3.8649,-3.9996,-4.1662,0.0,0.0,-4.4928,-4.5111,-4.5193,-4.5531,-4.5167,-4.4823,-4.4796,-4.4223,-4.3693,-4.3693,-4.3597,-4.3497,-4.3497,-4.3304,-4.3178,-4.3178,-4.3178,-4.305,-4.275,-4.2902,-4.2884,-4.2523,-4.2846,-4.3014,-4.3014,-4.3321,-4.3497,-4.3497,-4.3497,-4.3497,-4.3497,-4.3497,-4.3497,-4.3497,-4.3497,-4.3497,-4.3497,-4.3497,-4.3375,-4.3142,-4.2826,-4.3498,-4.4713,-4.3976,-4.4533,-4.5833,-4.5232,-4.4814,-4.457,-4.4196,-4.3486,-4.2645,-4.1739,-4.0894,-4.0045,-3.9538,-3.9424,-3.9424,-3.9424,-3.9424,-3.9424,-3.9424,-3.9424,-3.9424,-3.9424,-3.958,-3.9826,-4.0227,-4.027,-4.0136,-3.9633,-3.8992,-3.8211,-3.7507,-3.6896,-3.6358,-3.6358,-3.6358,-3.6358,-3.6358,-3.6358,-3.6358,-3.6358,-3.6358,-3.6358,-3.6358,-3.6358,-3.6358,-3.6358,-3.6358,-3.6358,-3.6358,-3.6358,-3.6358,-3.6358,-3.6358,-3.6358,-3.6358,-3.6358,-3.6358,-3.6358,-3.6358,-3.6358,-3.6358,-3.4969,-3.3662,-3.8051,-3.9049,-4.0096,-4.2065,-4.3212,0.0,-4.4719,-4.4947,-4.5093,-4.5479,-4.5285,-4.5055,-4.5111,-4.4562,-4.4073,-4.409,-4.3799,-4.3579,-4.3513,-4.3087,-4.2788,-4.2788,-4.275,-4.2732,-4.2788,-4.3178,-4.3444,-4.3497,-4.3497,-4.3497,-4.3497,-4.3497,-4.3497,-4.3497,-4.3497,-4.3497,-4.3497,-4.3497,-4.3497,-4.3497,-4.3497,-4.3497,-4.3497,-4.3444,-4.3178,-4.2788,-4.2559,-4.2843,-4.3371,-4.3192,-4.4307,-4.6143,-4.5597,-4.5089,-4.4497,-4.3621,-4.2785,-4.1869,-4.1013,-4.0115,-3.9424,-3.9424,-3.9424,-3.9424,-3.9424,-3.9424,-3.9424,-3.9424,-3.9424,-3.9424,-3.9424,-3.912,-3.9237,-4.0783,-3.925,-3.8255,-4.0576,-3.876,-3.6534,-3.6452,-3.6358,-3.6358,-3.6358,-3.6358,-3.6358,-3.6358,-3.6358,-3.6358,-3.6358,-3.6358,-3.6358,-3.6358,-3.6358,-3.6358,-3.6358,-3.6358,-3.6358,-3.6358,-3.6358,-3.6358,-3.6358,-3.6358,-3.6358,-3.6358,-3.6358,-3.6358,-3.6358,-3.6358,-3.6358,-3.6358,-3.4969,-3.3662,-3.9065,-3.9498,-3.9983,-4.0816,-4.1988,0.0,-4.3487,-4.3901,-4.4386,-4.5055,-4.4929,-4.4804,-4.5201,-4.4877,-4.4552,-4.457,-4.4285,-4.393,-4.3545,-4.341,-4.3321,-4.3321,-4.2976,-4.2864,-4.3286,-4.305,-4.3014,-4.3463,-4.3497,-4.3497,-4.3497,-4.3497,-4.3497,-4.3497,-4.3497,-4.3497,-4.3497,-4.3497,-4.3497,-4.3497,-4.3497,-4.3497,-4.3497,-4.305,-4.3014,-4.325,-4.186,-4.2529,-4.4543,-4.3076,-4.3471,-4.4961,-4.4814,-4.472,-4.4497,-4.3621,-4.2785,-4.1869,-4.1013,-4.0115,-3.9424,-3.9424,-3.9424,-3.9424,-3.9424,-3.9424,-3.9424,-3.9424,-3.9424,-3.9424,-3.9424,-3.9354,-3.9284,-3.9222,-3.919,-3.8975,-3.8141,-3.7867,-3.7494,-3.6534,-3.6358,-3.6358,-3.6358,-3.6358,-3.6358,-3.6358,-3.6358,-3.6358,-3.6358,-3.6358,-3.6358,-3.6358,-3.6358,-3.6358,-3.6358,-3.6358,-3.6358,-3.6358,-3.6358,-3.6358,-3.6358,-3.6358,-3.6358,-3.6358,-3.6358,-3.6358,-3.6358,-3.6358,-3.6358,-3.6358,-3.4969,-3.3662,-3.9911,-4.0176,-4.0479,-4.1403,-4.2192,0.0,0.0,-4.3799,-4.4201,-4.4955,-4.4966,-4.4985,-4.545,-4.5248,-4.4996,-4.4997,-4.4558,-4.4165,-4.4058,-4.3508,-4.3105,-4.3105,-4.2864,-4.2826,-4.305,-4.3105,-4.3214,-4.3479,-4.3497,-4.3497,-4.3497,-4.3497,-4.3497,-4.3497,-4.3497,-4.3497,-4.3497,-4.3497,-4.3497,-4.3497,-4.3497,-4.3497,-4.3479,-4.2939,-4.2864,-4.3032,-4.1956,-4.248,-4.4029,-4.322,-4.3538,-4.4587,-4.4587,-4.4327,-4.3873,-4.297,-4.2125,-4.1213,-4.0378,-3.9737,-3.9424,-3.9424,-3.9424,-3.9424,-3.9424,-3.9424,-3.9424,-3.9424,-3.9424,-3.9424,-3.9424,-3.9017,-3.8633,-3.8712,-3.8352,-3.7795,-3.7294,-3.7273,-3.7057,-3.6546,-3.6358,-3.6358,-3.6358,-3.6358,-3.6358,-3.6358,-3.6358,-3.6358,-3.6358,-3.6358,-3.6358,-3.6358,-3.6358,-3.6358,-3.6358,-3.6358,-3.6358,-3.6358,-3.6358,-3.6358,-3.6358,-3.6358,-3.6358,-3.6358,-3.6358,-3.6358,-3.6358,-3.6358,-3.6061,-3.5367,-3.3958,-3.2644,-4.09,-4.0996,-4.1138,-4.2101,-4.2519,-4.285,0.0,0.0,0.0,-4.486,-4.5068,-4.5253,-4.5722,-4.5594,-4.5375,-4.5239,-4.4787,-4.4463,-4.4478,-4.3664,-4.3067,-4.3069,-4.2865,-4.277,-4.2922,-4.3355,-4.3563,-4.3479,-4.3563,-4.3563,-4.3479,-4.3497,-4.3497,-4.3497,-4.3497,-4.3497,-4.3497,-4.3497,-4.3497,-4.3497,-4.3497,-4.3444,-4.3339,-4.277,-4.2537,-4.2476,-4.2096,-4.242,-4.3212,-4.335,-4.3876,-4.4587,-4.4587,-4.4196,-4.3426,-4.2379,-4.1543,-4.0826,-3.9737,-3.9424,-3.9424,-3.9424,-3.9424,-3.9424,-3.9424,-3.9424,-3.9424,-3.9424,-3.9424,-3.9424,-3.9424,-3.862,-3.7958,-3.8477,-3.7359,-3.6292,-3.6959,-3.6676,-3.6232,-3.6345,-3.6358,-3.6358,-3.6358,-3.6358,-3.6358,-3.6358,-3.6358,-3.6358,-3.6358,-3.6358,-3.6358,-3.6358,-3.6358,-3.6358,-3.6358,-3.6358,-3.6358,-3.6358,-3.6358,-3.6358,-3.6358,-3.6358,-3.6358,-3.6358,-3.6358,-3.6358,-3.6358,-3.6358,-3.5858,-3.4775,-3.3353,-3.1938,-4.2454,-4.2078,-4.1601,-4.1188,-4.1895,-4.258,-4.2145,0.0,-4.4112,-4.4573,0.0,-4.5257,-4.5802,0.0,0.0,-4.4953,-4.5179,-4.5124,-4.4207,-4.4296,-4.4454,-4.439,-4.3401,-4.2996,-4.3781,-4.3924,-4.3836,-4.3513,-4.3772,-4.3804,-4.3513,-4.3497,-4.3497,-4.3497,-4.3497,-4.3497,-4.3497,-4.3497,-4.3497,-4.3497,-4.3497,-4.325,-4.2788,-4.2162,-4.1895,-4.1888,-4.1498,-4.2039,-4.3212,-4.335,-4.3876,-4.4587,-4.4587,-4.4514,-4.4253,-4.2583,-4.1933,-4.1609,-4.0005,-3.9424,-3.9424,-3.9424,-3.9424,-3.9424,-3.9424,-3.9424,-3.9424,-3.9424,-3.9424,-3.9424,-3.9424,-3.862,-3.7857,-3.7929,-3.6725,-3.57,-3.6279,-3.6019,-3.578,-3.627,-3.6358,-3.6358,-3.6358,-3.6358,-3.6358,-3.6358,-3.6358,-3.6358,-3.6358,-3.6358,-3.6358,-3.6358,-3.6358,-3.6358,-3.6358,-3.6358,-3.6358,-3.6358,-3.6358,-3.6358,-3.6358,-3.6358,-3.6358,-3.6358,-3.6358,-3.6358,-3.6358,-3.6358,-3.6358,-3.6156,-3.4775,-3.3464,-4.2788,-4.268,-4.2495,-4.2085,-4.249,-4.2941,-4.2829,-4.3419,-4.4117,-4.4527,0.0,0.0,0.0,0.0,0.0,0.0,-4.5579,-4.5463,-4.5114,-4.4844,-4.468,-4.4612,-4.4109,-4.3838,-4.3986,-4.4016,-4.3849,-4.3513,-4.3804,-4.3849,-4.3513,-4.3497,-4.3497,-4.3497,-4.3497,-4.3497,-4.3497,-4.3497,-4.3497,-4.3497,-4.3497,-4.3214,-4.2655,-4.208,-4.181,-4.1778,-4.1814,-4.2347,-4.3247,-4.3844,-4.4282,-4.457,-4.4064,-4.3545,-4.3015,-4.2252,-4.1346,-4.0393,-3.9681,-3.9424,-3.9424,-3.9424,-3.9424,-3.9424,-3.9424,-3.9424,-3.9424,-3.9424,-3.9424,-3.9424,-3.9424,-3.862,-3.7663,-3.7021,-3.613,-3.5345,-3.5015,-3.5173,-3.5604,-3.5843,-3.6144,-3.6358,-3.6358,-3.6358,-3.6358,-3.6358,-3.6358,-3.6358,-3.6358,-3.6358,-3.6358,-3.6358,-3.6358,-3.6358,-3.6358,-3.6358,-3.6358,-3.6358,-3.6358,-3.6358,-3.6358,-3.6358,-3.6358,-3.6358,-3.6358,-3.6358,-3.6358,-3.5571,-3.5271,-3.5174,-3.3859,-3.2039,-4.3316,-4.3413,-4.3457,-4.296,-4.319,-4.3541,-4.3437,-4.3875,-4.4382,-4.4682,-4.511,0.0,0.0,0.0,-4.6039,-4.5827,0.0,-4.5726,-4.5526,-4.5233,-4.4978,-4.4881,-4.4781,-4.458,-4.4204,-4.4261,-4.4117,-4.3679,-4.3955,-4.3974,-4.3513,-4.3497,-4.3497,-4.3497,-4.3497,-4.3497,-4.3497,-4.3497,-4.3497,-4.3497,-4.3497,-4.3214,-4.2711,-4.2262,-4.1853,-4.1578,-4.224,-4.2723,-4.303,-4.4147,-4.4457,-4.4196,-4.3562,-4.2645,-4.1658,-4.1658,-4.0826,-3.9737,-3.9481,-3.9424,-3.9424,-3.9424,-3.9424,-3.9424,-3.9424,-3.9424,-3.9424,-3.9424,-3.9424,-3.9337,-3.9031,-3.8144,-3.7098,-3.6067,-3.5285,-3.4697,-3.4035,-3.465,-3.5366,-3.5516,-3.5994,-3.6358,-3.6358,-3.6358,-3.6358,-3.6358,-3.6358,-3.6358,-3.6358,-3.6358,-3.6358,-3.6358,-3.6358,-3.6358,-3.6358,-3.6358,-3.6358,-3.6358,-3.6358,-3.6358,-3.6358,-3.6358,-3.6358,-3.6358,-3.6358,-3.6358,-3.6358,-3.5078,-3.4178,-3.3773,-3.2443,-3.0721,-4.4553,-4.4553,-4.4336,-4.3406,-4.3886,-4.4308,-4.3406,-4.4186,-4.5074,-4.5074,-4.5468,-4.5808,-4.59,-4.6001,-4.5874,-4.5156,-4.5722,0.0,0.0,-4.5395,-4.5778,-4.5582,-4.5263,-4.4943,-4.4606,-4.4872,-4.4762,-4.4028,-4.4346,-4.4252,-4.3548,-4.3497,-4.3497,-4.3497,-4.3497,-4.3497,-4.3497,-4.3497,-4.3497,-4.3497,-4.3497,-4.3214,-4.2711,-4.2655,-4.2021,-4.099,-4.2518,-4.2859,-4.2458,-4.3999,-4.4121,-4.3366,-4.3306,-4.2252,-4.0743,-4.0743,-4.069,-4.0569,-3.9666,-3.9424,-3.9424,-3.9424,-3.9424,-3.9424,-3.9424,-3.9424,-3.9424,-3.9424,-3.9424,-3.9177,-3.8144,-3.7021,-3.5974,-3.4979,-3.3966,-3.333,-3.3784,-3.4349,-3.4901,-3.5441,-3.5994,-3.6358,-3.6358,-3.6358,-3.6358,-3.6358,-3.6358,-3.6358,-3.6358,-3.6358,-3.6358,-3.6358,-3.6358,-3.6358,-3.6358,-3.6358,-3.6358,-3.6358,-3.6358,-3.6358,-3.6358,-3.6358,-3.6358,-3.6358,-3.6358,-3.6358,-3.6358,-3.5078,-3.3674,-3.2342,-3.103,-3.0317,-4.4645,-4.4868,-4.4911,-4.4342,-4.4615,-4.4911,-4.4323,-4.4725,-4.5245,-4.5288,-4.5681,-4.5982,-4.5909,-4.6083,-4.6113,-4.5787,-4.6051,-4.6148,0.0,-4.5792,-4.5872,-4.5817,-4.5472,-4.5149,-4.4966,-4.4859,-4.4597,-4.4039,-4.4136,-4.4004,-4.3513,-4.3497,-4.3497,-4.3497,-4.3497,-4.3497,-4.3497,-4.3497,-4.3497,-4.3497,-4.3497,-4.3214,-4.2711,-4.2302,-4.1664,-4.0943,-4.209,-4.2481,-4.2405,-4.3944,-4.4064,-4.3246,-4.2645,-4.1739,-4.069,-4.069,-4.0293,-3.9793,-3.9481,-3.9424,-3.9424,-3.9424,-3.9424,-3.9424,-3.9424,-3.9424,-3.9424,-3.9424,-3.9424,-3.9177,-3.8069,-3.751,-3.6788,-3.5142,-3.4428,-3.4004,-3.348,-3.3784,-3.4349,-3.4901,-3.5441,-3.5931,-3.6295,-3.6358,-3.6358,-3.6358,-3.6358,-3.6358,-3.6358,-3.6358,-3.6358,-3.6358,-3.6358,-3.6358,-3.6358,-3.6358,-3.6358,-3.6358,-3.6358,-3.6358,-3.6358,-3.6358,-3.6358,-3.6358,-3.6358,-3.5966,-3.5066,-3.3662,-3.2342,-3.0916,-2.9608,-2.9006,-4.5074,-4.5295,-4.5382,-4.5015,-4.5167,-4.5311,-4.4958,-4.5148,-4.542,-4.5521,-4.5777,-4.5975,-4.5875,-4.6022,-4.612,-4.6039,-4.6108,-4.614,0.0,-4.5947,-4.5899,-4.5899,-4.5665,-4.5414,-4.5188,-4.5132,-4.4789,-4.4039,-4.4243,-4.4175,-4.3693,-4.3679,-4.3679,-4.3679,-4.3563,-4.3497,-4.3497,-4.3497,-4.3497,-4.3497,-4.3497,-4.3339,-4.2976,-4.2382,-4.181,-4.1265,-4.219,-4.2481,-4.2405,-4.3944,-4.3931,-4.2785,-4.2189,-4.128,-4.0255,-4.0255,-3.9864,-3.9424,-3.9424,-3.9424,-3.9424,-3.9424,-3.9424,-3.9424,-3.9424,-3.9424,-3.9424,-3.9424,-3.9424,-3.9177,-3.8069,-3.7829,-3.7281,-3.5224,-3.4664,-3.4428,-3.3313,-3.3508,-3.401,-3.4361,-3.5039,-3.5655,-3.6006,-3.6232,-3.6358,-3.6358,-3.6358,-3.6358,-3.6358,-3.6358,-3.6358,-3.6358,-3.6358,-3.6358,-3.6358,-3.6358,-3.6358,-3.6358,-3.6358,-3.6358,-3.6358,-3.6358,-3.627,-3.6069,-3.5866,-3.5173,-3.41,-3.2353,-3.1122,-3.0317,-2.89,-2.8291]},{"header":{"parameterUnit":"m.s-1","parameterCategory":1,"la1":30.6,"la2":29.2853,"lo1":-89.7004,"lo2":-87.6739,"dy":0.0162,"dx":0.0183,"nx":112,"ny":82,"refTime":"2023-10-14T18:00:00:Z","depth":0,"parameterNumber":3,"parameterNumberName":"V-component_of_WINDS"},"data":[0.0,0.0,0.0,0.0,0.0,0.0,0.0,0.0,0.0,0.0,0.0,0.0,0.0,0.0,0.0,0.0,0.0,0.0,0.0,0.0,0.0,0.0,0.0,0.0,0.0,0.0,0.0,0.0,0.0,0.0,0.0,0.0,0.0,0.0,0.0,0.0,0.0,0.0,0.0,0.0,0.0,0.0,0.0,0.0,0.0,0.0,0.0,0.0,0.0,0.0,0.0,0.0,0.0,0.0,0.0,0.0,0.0,0.0,0.0,0.0,0.0,0.0,0.0,0.0,0.0,0.0,0.0,0.0,0.0,0.0,0.0,0.0,0.0,0.0,0.0,0.0,0.0,0.0,0.0,0.0,0.0,0.0,0.0,0.0,0.0,0.0,0.0,0.0,0.0,0.0,3.7439,3.8296,3.9103,3.9825,4.0446,4.0596,4.0699,4.0793,0.0,0.0,0.0,0.0,0.0,0.0,0.0,0.0,0.0,0.0,0.0,0.0,0.0,0.0,0.0,0.0,0.0,0.0,0.0,0.0,0.0,0.0,0.0,0.0,0.0,0.0,0.0,0.0,0.0,0.0,0.0,0.0,0.0,0.0,0.0,0.0,0.0,0.0,0.0,0.0,0.0,0.0,0.0,0.0,0.0,0.0,0.0,0.0,0.0,0.0,0.0,0.0,0.0,0.0,0.0,0.0,0.0,0.0,0.0,0.0,0.0,0.0,0.0,0.0,0.0,0.0,0.0,0.0,0.0,0.0,0.0,0.0,0.0,0.0,0.0,0.0,0.0,0.0,0.0,0.0,0.0,0.0,0.0,0.0,0.0,0.0,0.0,0.0,0.0,0.0,0.0,0.0,0.0,0.0,0.0,0.0,0.0,0.0,0.0,0.0,0.0,0.0,0.0,0.0,3.9284,4.0038,4.025,4.038,4.0504,4.0519,4.061,4.0785,0.0,0.0,0.0,0.0,0.0,0.0,0.0,0.0,0.0,0.0,0.0,0.0,0.0,0.0,0.0,0.0,0.0,0.0,0.0,0.0,0.0,0.0,0.0,0.0,0.0,0.0,0.0,0.0,0.0,0.0,0.0,0.0,0.0,0.0,0.0,0.0,0.0,0.0,0.0,0.0,0.0,0.0,0.0,0.0,0.0,0.0,0.0,0.0,0.0,0.0,0.0,0.0,0.0,0.0,0.0,0.0,0.0,0.0,0.0,0.0,0.0,0.0,0.0,0.0,0.0,0.0,0.0,0.0,0.0,0.0,0.0,0.0,0.0,0.0,0.0,0.0,0.0,0.0,0.0,0.0,0.0,0.0,0.0,0.0,0.0,0.0,0.0,0.0,0.0,0.0,0.0,0.0,0.0,0.0,0.0,0.0,0.0,0.0,0.0,0.0,0.0,0.0,0.0,3.9727,4.013,4.0466,4.0489,4.0489,4.0489,4.0489,4.0604,4.0785,4.0275,0.0,0.0,0.0,0.0,0.0,0.0,0.0,0.0,0.0,0.0,0.0,0.0,0.0,0.0,0.0,0.0,0.0,0.0,0.0,0.0,0.0,0.0,0.0,0.0,0.0,0.0,0.0,0.0,0.0,0.0,0.0,0.0,0.0,0.0,0.0,0.0,0.0,0.0,0.0,0.0,0.0,0.0,0.0,0.0,0.0,0.0,0.0,0.0,0.0,0.0,0.0,0.0,0.0,0.0,0.0,0.0,0.0,0.0,0.0,0.0,0.0,0.0,0.0,0.0,0.0,0.0,0.0,0.0,0.0,0.0,0.0,0.0,0.0,0.0,0.0,0.0,0.0,0.0,0.0,0.0,0.0,0.0,0.0,0.0,0.0,0.0,0.0,0.0,0.0,0.0,0.0,0.0,0.0,0.0,0.0,0.0,0.0,0.0,0.0,0.0,0.0,0.0,4.0134,4.0489,4.0489,4.0489,4.0489,4.0489,4.0489,4.0577,4.0761,4.0597,0.0,0.0,0.0,0.0,0.0,0.0,0.0,0.0,0.0,0.0,0.0,0.0,0.0,0.0,0.0,0.0,0.0,0.0,0.0,0.0,0.0,0.0,0.0,0.0,0.0,0.0,0.0,0.0,0.0,0.0,0.0,0.0,0.0,0.0,0.0,0.0,0.0,0.0,0.0,0.0,0.0,0.0,0.0,0.0,0.0,0.0,0.0,0.0,0.0,0.0,0.0,0.0,0.0,0.0,0.0,0.0,0.0,0.0,0.0,0.0,0.0,0.0,0.0,0.0,0.0,0.0,0.0,0.0,0.0,0.0,0.0,0.0,0.0,0.0,0.0,0.0,0.0,0.0,0.0,0.0,0.0,0.0,0.0,0.0,0.0,0.0,0.0,0.0,0.0,0.0,0.0,0.0,0.0,0.0,0.0,0.0,0.0,0.0,0.0,0.0,0.0,0.0,4.0549,4.0489,4.0489,4.0489,4.0489,4.0489,4.0489,4.0559,4.0703,4.0588,0.0,0.0,0.0,0.0,0.0,0.0,0.0,0.0,0.0,0.0,0.0,0.0,0.0,0.0,0.0,0.0,0.0,0.0,0.0,0.0,0.0,0.0,0.0,0.0,0.0,0.0,0.0,0.0,0.0,0.0,0.0,0.0,0.0,0.0,0.0,0.0,0.0,0.0,0.0,0.0,0.0,0.0,0.0,0.0,0.0,0.0,0.0,0.0,0.0,0.0,0.0,0.0,0.0,0.0,0.0,0.0,0.0,0.0,0.0,0.0,0.0,0.0,0.0,0.0,0.0,0.0,0.0,0.0,0.0,0.0,0.0,0.0,0.0,0.0,0.0,0.0,0.0,0.0,0.0,0.0,0.0,0.0,0.0,0.0,0.0,0.0,0.0,0.0,0.0,0.0,0.0,0.0,0.0,0.0,0.0,0.0,0.0,0.0,0.0,0.0,0.0,0.0,4.0515,4.0489,4.0489,4.0489,4.0489,4.0489,4.0489,4.0559,4.0692,0.0,0.0,0.0,0.0,0.0,0.0,0.0,0.0,0.0,0.0,0.0,0.0,0.0,0.0,0.0,0.0,0.0,0.0,0.0,0.0,0.0,0.0,0.0,0.0,0.0,0.0,0.0,0.0,0.0,0.0,0.0,0.0,0.0,0.0,0.0,0.0,0.0,0.0,0.0,0.0,0.0,0.0,0.0,0.0,0.0,0.0,0.0,0.0,0.0,0.0,0.0,0.0,0.0,0.0,0.0,0.0,0.0,0.0,0.0,0.0,0.0,0.0,0.0,0.0,0.0,0.0,0.0,0.0,0.0,0.0,0.0,0.0,0.0,0.0,0.0,0.0,0.0,0.0,0.0,0.0,0.0,0.0,0.0,0.0,0.0,0.0,0.0,0.0,0.0,0.0,0.0,0.0,0.0,0.0,0.0,0.0,0.0,0.0,0.0,0.0,0.0,0.0,4.0489,4.0739,4.0912,4.0912,4.1162,4.1316,4.1316,4.1316,4.1358,4.1467,0.0,0.0,0.0,0.0,0.0,0.0,0.0,0.0,0.0,0.0,0.0,0.0,0.0,0.0,0.0,0.0,0.0,0.0,0.0,0.0,0.0,0.0,0.0,0.0,0.0,0.0,0.0,0.0,0.0,0.0,0.0,0.0,0.0,0.0,0.0,0.0,0.0,0.0,0.0,0.0,0.0,0.0,0.0,0.0,0.0,0.0,0.0,0.0,0.0,0.0,0.0,0.0,0.0,0.0,0.0,0.0,0.0,0.0,0.0,0.0,0.0,0.0,0.0,0.0,0.0,0.0,0.0,0.0,0.0,0.0,0.0,0.0,0.0,0.0,0.0,0.0,0.0,0.0,0.0,0.0,0.0,0.0,0.0,0.0,0.0,0.0,0.0,0.0,0.0,0.0,0.0,0.0,0.0,0.0,0.0,0.0,0.0,0.0,0.0,0.0,0.0,0.0,4.0508,4.1277,4.18,4.18,4.2585,4.3085,4.3085,4.3104,4.3104,0.0,0.0,0.0,0.0,0.0,0.0,0.0,0.0,0.0,0.0,0.0,0.0,0.0,0.0,0.0,0.0,0.0,0.0,0.0,0.0,0.0,0.0,0.0,0.0,0.0,0.0,0.0,0.0,0.0,0.0,0.0,0.0,0.0,0.0,0.0,0.0,0.0,0.0,0.0,0.0,0.0,0.0,0.0,0.0,0.0,0.0,0.0,0.0,0.0,0.0,0.0,0.0,0.0,0.0,0.0,0.0,0.0,0.0,0.0,0.0,0.0,0.0,0.0,0.0,0.0,0.0,0.0,0.0,0.0,0.0,0.0,0.0,0.0,0.0,0.0,0.0,0.0,0.0,0.0,0.0,0.0,0.0,0.0,0.0,0.0,0.0,0.0,0.0,0.0,0.0,0.0,0.0,0.0,0.0,0.0,0.0,0.0,0.0,0.0,0.0,0.0,0.0,0.0,4.1839,4.1924,4.1946,4.1946,4.2368,4.268,4.268,4.2925,4.3104,4.3104,0.0,0.0,0.0,0.0,0.0,0.0,0.0,0.0,0.0,0.0,0.0,0.0,0.0,0.0,0.0,0.0,0.0,0.0,0.0,0.0,0.0,0.0,0.0,0.0,0.0,0.0,0.0,0.0,0.0,0.0,0.0,0.0,0.0,0.0,0.0,0.0,0.0,0.0,0.0,0.0,0.0,0.0,0.0,0.0,0.0,0.0,0.0,0.0,0.0,0.0,0.0,0.0,0.0,0.0,0.0,0.0,0.0,0.0,0.0,0.0,0.0,0.0,0.0,0.0,0.0,0.0,0.0,0.0,0.0,0.0,0.0,0.0,0.0,0.0,0.0,0.0,0.0,0.0,0.0,0.0,0.0,0.0,0.0,0.0,0.0,0.0,0.0,0.0,0.0,0.0,0.0,0.0,0.0,0.0,0.0,0.0,0.0,0.0,0.0,0.0,0.0,0.0,4.2444,4.2522,4.2561,4.2707,4.3213,4.3552,4.3552,4.3752,4.3829,4.3711,0.0,0.0,0.0,0.0,0.0,0.0,0.0,0.0,0.0,0.0,0.0,0.0,0.0,0.0,0.0,0.0,0.0,0.0,0.0,0.0,0.0,0.0,0.0,0.0,0.0,0.0,0.0,0.0,0.0,0.0,0.0,0.0,0.0,0.0,0.0,0.0,0.0,0.0,0.0,0.0,0.0,0.0,0.0,0.0,0.0,0.0,0.0,0.0,0.0,0.0,0.0,0.0,0.0,0.0,0.0,0.0,0.0,0.0,0.0,0.0,0.0,0.0,0.0,0.0,0.0,0.0,0.0,0.0,0.0,0.0,0.0,0.0,0.0,0.0,0.0,0.0,0.0,0.0,0.0,0.0,0.0,0.0,0.0,0.0,0.0,0.0,0.0,0.0,0.0,0.0,0.0,0.0,0.0,0.0,0.0,0.0,0.0,0.0,0.0,0.0,0.0,0.0,4.2626,4.3056,4.3448,4.3738,4.4509,4.4988,4.4988,4.503,4.4919,4.4606,0.0,0.0,0.0,0.0,0.0,0.0,0.0,0.0,0.0,0.0,0.0,0.0,0.0,0.0,0.0,0.0,0.0,0.0,0.0,0.0,0.0,0.0,0.0,0.0,0.0,0.0,0.0,0.0,0.0,0.0,0.0,0.0,0.0,0.0,0.0,0.0,0.0,0.0,0.0,0.0,0.0,0.0,0.0,0.0,0.0,0.0,0.0,0.0,0.0,0.0,0.0,0.0,0.0,0.0,0.0,0.0,0.0,0.0,0.0,0.0,2.8912,2.7727,0.0,0.0,0.0,0.0,0.0,0.0,0.0,0.0,0.0,0.0,0.0,0.0,0.0,0.0,0.0,0.0,0.0,0.0,0.0,0.0,0.0,0.0,0.0,0.0,0.0,0.0,0.0,0.0,0.0,0.0,0.0,0.0,0.0,0.0,0.0,0.0,0.0,0.0,0.0,0.0,4.3624,4.354,4.3467,4.3545,4.3964,4.4214,4.4214,4.4508,4.4676,4.4606,4.4487,0.0,0.0,0.0,0.0,0.0,0.0,0.0,0.0,0.0,0.0,0.0,0.0,0.0,0.0,0.0,0.0,0.0,0.0,0.0,0.0,0.0,0.0,0.0,0.0,0.0,0.0,0.0,0.0,0.0,0.0,0.0,0.0,0.0,0.0,0.0,0.0,0.0,0.0,0.0,0.0,0.0,0.0,0.0,0.0,0.0,0.0,0.0,0.0,0.0,0.0,0.0,0.0,0.0,0.0,0.0,0.0,0.0,0.0,0.0,2.9988,2.9206,0.0,0.0,0.0,0.0,0.0,0.0,0.0,0.0,0.0,0.0,0.0,0.0,0.0,0.0,0.0,0.0,0.0,0.0,0.0,0.0,0.0,0.0,0.0,0.0,0.0,0.0,0.0,0.0,0.0,0.0,0.0,0.0,0.0,0.0,0.0,0.0,0.0,0.0,0.0,0.0,4.399,4.3693,4.3563,4.3726,4.3912,4.4016,4.4016,4.4175,4.4252,4.4065,4.3972,0.0,0.0,0.0,0.0,0.0,0.0,0.0,0.0,0.0,0.0,0.0,0.0,0.0,0.0,0.0,0.0,0.0,0.0,0.0,0.0,0.0,0.0,0.0,0.0,0.0,0.0,0.0,0.0,0.0,0.0,0.0,0.0,0.0,0.0,0.0,0.0,0.0,0.0,0.0,0.0,0.0,0.0,0.0,0.0,0.0,0.0,0.0,0.0,0.0,0.0,0.0,0.0,0.0,3.2529,3.2293,3.239,3.2283,3.2241,3.2161,3.1001,3.0903,3.143,2.9541,0.0,0.0,0.0,0.0,0.0,0.0,0.0,0.0,0.0,0.0,0.0,0.0,0.0,0.0,0.0,0.0,0.0,0.0,0.0,0.0,0.0,0.0,3.9356,4.0769,4.0886,4.0565,4.0113,0.0,0.0,0.0,0.0,0.0,0.0,0.0,0.0,0.0,0.0,0.0,4.3924,4.3594,4.3477,4.3749,4.368,4.3615,4.3615,4.3615,4.3502,4.3213,4.305,4.2832,0.0,0.0,0.0,0.0,0.0,0.0,0.0,0.0,0.0,0.0,0.0,0.0,0.0,0.0,0.0,0.0,0.0,0.0,0.0,0.0,0.0,0.0,0.0,0.0,0.0,0.0,0.0,0.0,0.0,0.0,0.0,0.0,2.8521,2.8233,0.0,0.0,0.0,0.0,0.0,0.0,0.0,0.0,0.0,0.0,0.0,0.0,0.0,3.0323,2.9785,2.9816,3.0083,3.0592,3.0736,3.1062,3.156,3.1533,3.1539,3.152,3.1321,0.0,3.2212,3.1411,0.0,0.0,0.0,0.0,0.0,0.0,0.0,0.0,0.0,0.0,0.0,0.0,0.0,0.0,0.0,0.0,0.0,0.0,0.0,0.0,0.0,0.0,3.9704,4.0824,4.0698,4.0393,4.0835,4.14,4.1851,4.1851,4.234,4.2857,0.0,0.0,0.0,0.0,0.0,0.0,4.3597,4.3124,4.2808,4.2865,4.2408,4.2091,4.2091,4.2091,4.2068,4.2021,4.1985,4.1943,4.1937,4.1943,0.0,0.0,0.0,0.0,0.0,0.0,0.0,0.0,0.0,0.0,0.0,0.0,0.0,0.0,0.0,0.0,0.0,0.0,0.0,0.0,0.0,0.0,0.0,0.0,0.0,0.0,0.0,0.0,0.0,3.0291,2.9389,2.8993,2.9599,3.0179,0.0,0.0,0.0,0.0,0.0,0.0,0.0,0.0,0.0,2.9438,2.9436,2.9192,2.8669,2.8957,2.9201,2.9508,2.9624,2.9812,3.0054,3.0443,3.0402,3.011,3.0852,3.0892,3.0551,3.1139,3.1278,3.1038,0.0,0.0,0.0,0.0,3.1141,3.2693,3.1969,3.2913,3.4465,3.4768,0.0,0.0,0.0,0.0,0.0,0.0,0.0,4.0263,4.0274,3.9973,3.9876,4.0652,4.0641,4.0631,4.133,4.1687,4.1841,4.1687,4.2392,4.2996,4.2982,4.3018,0.0,0.0,0.0,4.2701,4.2544,4.2324,4.2203,4.2203,4.1937,4.181,4.181,4.181,4.181,4.181,4.149,4.1296,4.1296,4.1296,4.1133,0.0,0.0,0.0,0.0,0.0,0.0,0.0,0.0,0.0,0.0,0.0,0.0,0.0,0.0,0.0,0.0,0.0,0.0,0.0,0.0,0.0,0.0,0.0,0.0,0.0,0.0,0.0,0.0,2.9995,2.8935,2.8566,2.8595,2.874,0.0,0.0,0.0,0.0,0.0,0.0,2.8882,2.8513,2.7911,2.7146,2.7809,2.7927,2.7229,2.8048,2.846,2.846,2.8516,2.8569,2.8556,2.9378,2.9315,2.8621,2.9907,2.9888,2.9096,3.0423,3.1108,3.129,3.0582,3.1204,3.2345,3.0858,3.1375,3.2683,3.1748,3.285,3.4663,3.4607,3.5913,3.7548,3.8122,0.0,0.0,0.0,0.0,4.0213,4.0437,4.0107,3.9975,4.0731,4.0793,4.0891,4.1644,4.181,4.1742,4.1518,4.2229,4.2777,4.2483,4.23,0.0,4.2444,4.208,4.181,4.181,4.1664,4.1578,4.1578,4.1464,4.1375,4.1375,4.1375,4.1375,4.1375,4.092,4.0703,4.0703,4.0703,4.0497,4.0121,0.0,0.0,0.0,0.0,0.0,0.0,0.0,0.0,0.0,0.0,0.0,0.0,0.0,0.0,0.0,0.0,0.0,0.0,0.0,0.0,0.0,0.0,0.0,0.0,0.0,0.0,0.0,0.0,0.0,2.5027,2.6163,0.0,0.0,0.0,0.0,2.7252,2.6474,2.6361,2.7203,2.582,2.5021,2.4975,2.5903,2.599,2.5169,2.6371,2.703,2.703,2.7276,2.7391,2.7391,2.8537,2.8453,2.7463,2.8594,2.9052,2.9042,2.9789,2.9228,2.7916,2.7862,2.8329,2.8979,2.818,2.8878,3.0178,3.0133,3.1131,3.2428,3.2146,3.4101,3.6746,3.7646,3.902,0.0,0.0,3.8899,3.9853,3.9861,3.977,4.0033,4.1435,4.1305,4.1035,4.1664,4.181,4.1793,4.1782,4.1817,4.1877,4.1853,0.0,4.1835,4.1835,4.181,4.181,4.181,4.1313,4.0949,4.0949,4.0497,4.0171,4.0171,4.0171,4.0171,4.0171,4.0171,4.0121,4.0121,4.0121,4.0121,4.007,4.0121,0.0,0.0,0.0,0.0,0.0,0.0,0.0,0.0,0.0,0.0,0.0,0.0,0.0,0.0,0.0,0.0,0.0,0.0,0.0,0.0,0.0,0.0,0.0,0.0,0.0,0.0,0.0,0.0,2.5665,2.4822,0.0,2.4139,2.4796,2.5117,2.4764,2.446,2.4472,2.4801,2.4583,2.4374,2.4374,2.4992,2.5188,2.4846,2.5362,2.5582,2.5582,2.5645,2.5703,2.5703,2.6094,2.6094,2.5703,2.6094,2.632,2.6285,2.5739,2.668,2.8425,2.7322,2.7768,2.8837,2.8195,2.8997,3.0197,2.9147,3.0162,3.2094,3.299,3.4518,3.5994,3.6334,3.7136,3.7928,3.7701,3.8053,3.8606,3.8942,3.875,3.8583,3.9116,3.9076,3.9093,3.9767,3.9918,3.9918,3.9918,4.0617,4.1223,4.1223,4.092,4.0797,4.1178,4.0938,4.0511,3.9985,4.0201,4.0019,3.9003,3.9176,3.9315,3.9315,3.9315,3.9315,3.9315,3.9315,3.9086,3.8668,3.8613,3.8613,3.8613,3.9102,3.9102,0.0,0.0,0.0,0.0,0.0,0.0,0.0,0.0,0.0,0.0,0.0,0.0,0.0,0.0,0.0,0.0,0.0,0.0,0.0,0.0,0.0,0.0,0.0,0.0,0.0,2.5628,2.4872,2.5244,2.42,2.3383,2.304,2.3449,2.3475,2.281,2.2885,2.297,2.297,2.327,2.3197,2.283,2.3351,2.3499,2.3057,2.3213,2.3296,2.3296,2.3135,2.3052,2.3052,2.3361,2.3361,2.3052,2.3361,2.3514,2.3422,2.234,2.3612,2.6253,2.5612,2.6007,2.6944,2.7003,2.7679,2.8595,2.8356,2.9379,3.1112,3.3258,3.4243,3.4606,3.5291,3.5969,3.6648,3.7078,3.7512,3.7889,3.8251,3.8052,3.7822,3.7822,3.7822,3.7921,3.8414,3.8525,3.8525,3.8525,3.9681,4.0446,3.9935,3.9986,4.002,3.9901,3.9749,3.9437,3.8635,3.8978,3.8941,3.7937,3.8246,3.8525,3.8525,3.8525,3.8525,3.8525,3.8525,3.8302,3.7822,3.7822,3.7822,3.7822,3.8525,3.8635,3.8189,0.0,0.0,0.0,0.0,0.0,0.0,0.0,0.0,0.0,0.0,0.0,0.0,0.0,0.0,0.0,0.0,0.0,0.0,0.0,0.0,0.0,0.0,0.0,2.4347,2.3956,2.3441,2.3441,2.4276,2.407,2.2124,2.3232,2.3217,2.124,2.1559,2.1792,2.1792,2.1812,2.1201,1.9969,2.093,2.0893,1.9676,2.0066,2.0174,2.0174,1.9732,1.9397,1.948,2.0552,2.0471,1.9579,2.0641,2.1042,2.0962,1.9901,2.0065,2.1146,2.2489,2.2998,2.3168,2.4355,2.4871,2.5228,2.78,2.8825,2.9425,3.2681,3.3085,3.2639,3.4545,3.5655,3.6291,3.643,3.7084,3.769,3.7632,3.769,3.769,3.7632,3.769,3.769,3.769,3.7748,3.7748,3.7748,3.8995,3.9558,3.8035,3.9049,3.9506,3.8035,3.8414,0.0,3.7863,3.7748,3.7764,3.7764,3.7764,3.7748,3.7748,3.7748,3.7748,3.7748,3.7748,3.7764,3.7764,3.7764,3.7764,3.7748,3.8469,3.8799,3.8854,0.0,0.0,0.0,0.0,0.0,0.0,0.0,0.0,0.0,0.0,0.0,0.0,0.0,0.0,0.0,0.0,0.0,0.0,0.0,0.0,0.0,2.0372,2.138,2.2546,2.2561,2.2403,2.2403,2.2276,2.1696,2.024,2.0761,2.0587,1.9125,1.9135,1.9196,1.9196,1.9454,1.9513,1.925,1.9752,1.9872,1.9605,1.8733,1.8297,1.8297,1.814,1.8011,1.8103,1.9331,1.9736,1.9497,1.9827,1.9901,1.981,1.8672,1.8395,1.8891,2.1832,2.2958,2.3213,2.5289,2.6069,2.6242,2.7787,2.875,2.9606,3.1329,3.2181,3.2609,3.317,3.3502,3.3625,3.3654,3.4345,3.4889,3.4182,3.505,3.5785,3.4397,3.5115,3.5897,3.5046,3.5997,3.6751,3.6044,3.7286,3.8318,3.7863,3.8149,3.8262,3.7863,3.7978,3.779,3.7024,3.7456,3.7354,3.6258,3.6631,3.6904,3.6904,3.6904,3.6904,3.6904,3.6904,3.6692,3.6133,3.6148,3.6352,3.6919,3.6569,3.6995,0.0,0.0,0.0,0.0,0.0,0.0,0.0,0.0,0.0,0.0,0.0,0.0,0.0,0.0,0.0,0.0,0.0,0.0,0.0,0.0,0.0,0.0,1.958,2.0318,2.084,2.1328,2.1565,2.1234,2.126,2.0684,1.9028,1.968,1.9643,1.8559,1.8611,1.8781,1.8781,1.8978,1.8913,1.8387,1.8577,1.8495,1.794,1.7152,1.6556,1.598,1.6556,1.6469,1.6074,1.7345,1.794,1.794,1.794,1.794,1.794,1.7217,1.6943,1.7124,0.0,0.0,0.0,0.0,2.465,2.5157,2.6345,2.7383,2.8397,2.9539,3.029,3.0878,3.1729,3.2033,3.2105,3.2464,3.2961,3.331,3.2749,3.3463,3.3973,3.289,3.3463,3.4095,3.3433,3.4167,3.4728,3.422,3.5235,0.0,3.5667,3.6826,3.7589,3.6951,3.7115,3.704,3.6228,3.6538,3.6492,3.5619,3.5894,3.6165,3.6165,3.6165,0.0,0.0,0.0,3.5943,3.5504,3.5504,0.0,0.0,0.0,3.6415,3.7279,3.7962,0.0,0.0,3.9952,4.007,0.0,0.0,0.0,0.0,0.0,0.0,0.0,0.0,0.0,0.0,0.0,0.0,0.0,0.0,0.0,0.0,1.902,1.9286,1.933,2.0272,2.0649,1.9916,2.0606,2.0373,1.83,1.9261,1.9562,1.8661,1.8862,1.9031,1.9031,1.9031,0.0,0.0,0.0,1.6943,1.5832,1.5635,1.5045,1.3878,1.5045,1.4949,1.3974,1.5242,1.5832,1.5832,1.5832,1.5832,1.5832,1.5832,1.5832,1.592,1.7225,1.7777,1.8141,2.0486,2.1975,2.2998,2.4341,0.0,0.0,2.7602,2.8004,2.8469,3.0329,3.0957,3.118,3.2033,3.2393,3.2393,3.2321,3.2464,3.2536,3.2321,3.2464,3.2522,3.2321,3.2519,3.2632,3.2561,3.3326,3.3746,3.2957,3.531,3.6874,3.5484,3.594,3.6146,3.5472,3.5436,3.5583,3.5583,3.5436,0.0,3.5714,3.5523,3.5478,3.5624,3.5549,3.5504,3.5504,3.5504,3.5504,3.5504,3.6165,3.6508,3.6508,3.793,3.869,3.8799,3.9679,4.007,0.0,0.0,0.0,0.0,0.0,0.0,0.0,0.0,0.0,0.0,0.0,0.0,0.0,0.0,0.0,1.6844,1.7645,1.8587,1.8871,1.9087,1.9098,1.8612,1.9003,1.8732,1.7333,1.7819,1.7657,1.6476,1.6438,1.6567,1.6567,1.6567,1.6379,1.6197,1.6204,1.6015,1.5832,1.4752,1.4166,1.3878,1.4166,0.0,1.3974,1.5242,1.5832,1.5832,1.5832,1.5832,1.5832,1.5832,1.5832,1.592,1.7225,1.8319,1.9314,2.0755,2.1462,2.1896,2.4084,2.4957,2.5294,2.6461,2.736,2.8176,2.8548,2.9303,0.0,3.0292,3.0908,3.1328,3.057,3.1489,3.2249,3.0709,3.1476,3.2177,3.0633,3.1849,3.3033,3.223,3.3295,3.4159,3.401,3.4382,3.4481,3.3903,3.4677,3.5157,3.4618,3.5296,3.5809,3.5809,3.5066,3.521,3.6894,3.5776,3.5414,3.6231,3.5804,3.5504,3.5504,3.5504,3.5504,3.5504,3.5604,3.5733,3.5733,3.6631,3.7381,3.8035,3.9454,4.007,0.0,0.0,0.0,0.0,0.0,0.0,0.0,0.0,0.0,0.0,0.0,1.5054,1.5738,0.0,1.6838,1.6406,1.7056,1.7687,1.785,1.7576,1.7447,1.792,1.8143,1.7789,1.6508,1.6563,1.648,1.5825,1.5832,1.5832,1.5832,1.5832,1.5832,1.5832,1.5832,1.5832,1.5832,1.5146,1.4555,1.3878,1.4561,1.4561,1.3974,1.5242,1.5439,1.4854,1.4854,1.4854,1.4854,1.5534,1.5832,1.5825,1.648,1.7124,1.7848,1.9753,2.0395,2.0747,2.3153,2.3963,2.4125,2.5294,2.6378,2.7371,2.7924,2.8937,2.9792,2.9792,3.0139,3.0419,2.9934,3.0714,3.1339,3.0416,3.1126,3.1744,3.0808,3.1538,3.224,3.1797,3.2711,3.3376,3.2922,3.3171,3.3468,3.3771,3.4343,3.4542,3.4341,3.4757,3.5127,3.5127,3.5127,3.526,3.5784,3.5583,3.5848,3.6873,3.6641,3.6462,3.6462,3.6462,3.6312,3.6013,3.5998,3.5833,3.5504,3.6228,3.6783,3.7219,3.8414,3.9332,0.0,0.0,0.0,0.0,0.0,0.0,0.0,1.3355,1.2849,1.4992,1.3743,1.2979,1.5088,1.554,1.5762,1.6293,1.6606,1.6711,1.643,1.5832,1.5812,1.6828,1.7217,1.6951,1.592,1.5832,1.5832,1.5832,1.5832,1.573,1.5439,1.5439,1.5337,1.5051,1.5051,1.5051,1.5051,1.5051,1.4561,1.3488,1.4561,1.4465,1.359,1.4561,1.4465,1.3488,1.3488,1.3488,1.359,1.4854,1.5439,1.5439,1.573,1.5832,1.6109,1.8311,1.9314,1.9761,2.1943,2.2862,2.3212,2.4211,2.5221,2.6389,2.7441,2.8609,2.9559,2.9839,2.9955,2.998,3.008,3.0432,3.0771,3.0771,3.1085,3.1386,3.1386,3.1474,3.1549,3.1549,3.2252,3.2639,3.1877,3.2329,3.3054,3.3796,3.4091,3.4208,3.4099,3.4267,3.4344,3.4344,3.494,3.5125,3.4561,3.5458,3.643,3.7336,3.7404,3.7404,3.7404,3.7404,3.718,3.6671,3.6671,3.6402,3.5878,3.6499,3.6831,3.7002,3.7673,3.8634,1.2643,1.3685,1.4814,1.5561,1.4198,1.3406,0.0,1.4518,1.2644,1.4031,1.3386,1.2692,1.3273,1.3519,1.4062,1.5324,1.5771,1.5569,1.4404,1.4142,1.4166,1.4351,1.533,1.592,1.5825,1.5832,1.5832,1.5832,1.5832,1.5337,1.4166,1.407,1.359,1.2334,1.2334,1.2334,1.2334,1.2334,1.2237,1.2139,1.2237,1.2237,1.2139,1.2237,1.2237,1.2139,1.2139,1.2139,1.2237,1.359,1.407,1.4262,1.5343,1.5832,1.6015,1.7404,1.8596,1.9679,2.1025,2.2217,2.3135,2.3222,2.4049,2.521,2.6307,2.7452,2.8614,3.0119,3.052,3.0633,3.1097,3.126,3.1298,3.1298,3.1348,3.1386,3.1386,3.1775,3.2127,3.2127,3.2613,3.3051,3.2893,3.2965,3.2946,3.251,3.3284,3.371,3.3301,3.4079,3.4629,3.4629,3.3926,3.3884,3.5068,3.6141,3.6881,3.7366,3.7404,3.7404,3.7404,3.7404,3.7375,3.73,3.73,3.727,3.7195,3.7248,3.7688,3.8394,3.8459,3.869,1.0444,1.1096,1.1395,1.3199,1.2468,1.1718,1.3056,1.1871,1.07,1.1949,1.1909,1.1812,1.2069,1.2192,1.2775,1.427,1.4005,1.3596,1.3878,1.3199,1.2721,1.2721,1.3884,1.4657,1.4657,1.4657,1.437,1.3596,1.4268,1.4076,1.2818,1.3494,1.3295,1.1945,1.1945,1.1945,1.1945,1.1945,1.1945,1.1945,1.1945,1.1945,1.1945,1.1945,1.1463,1.0779,1.0779,1.1165,1.2042,1.3397,1.4364,1.5051,1.5629,1.5832,1.592,1.7225,1.8503,1.967,2.0845,2.212,2.3135,2.3135,2.4058,2.5207,2.5723,2.6834,2.8191,2.9629,3.0044,3.0257,3.116,3.1625,3.1863,3.1863,3.2127,3.2365,3.2365,3.2554,3.2717,3.2717,3.2918,3.3081,3.3081,3.3081,3.2993,3.2754,3.3115,3.336,3.3129,3.3471,3.4037,3.4664,3.3713,3.385,3.5631,3.6227,3.6817,3.758,3.8186,3.8571,3.8571,3.8571,3.8392,3.7988,3.7973,3.7793,3.7404,3.7404,3.7594,3.7916,3.7916,3.8172,0.802,0.8736,0.8827,1.0854,1.0956,1.0626,1.0686,0.9851,0.9362,1.029,1.0338,1.0403,1.0986,1.112,1.1557,1.3075,1.2528,1.2139,1.2716,1.2037,1.1365,1.1365,1.2522,1.3199,1.2904,1.3488,1.3295,1.2042,1.2813,1.2813,1.1463,1.2328,1.2231,1.0872,1.0779,1.0779,1.0779,1.0779,1.0779,1.0779,1.0779,1.0779,1.0779,1.0779,1.0288,0.9509,0.9801,1.0485,1.1556,1.3199,1.4459,1.5337,1.5635,1.5832,1.5933,1.6949,1.8031,1.9222,2.0395,2.1651,2.2859,2.3134,2.4117,2.517,2.5524,2.6605,2.7939,2.9051,2.9794,3.0519,3.1193,3.1875,3.2453,3.2453,3.2767,3.3081,3.3081,3.3081,3.3081,3.3081,3.3081,3.3081,3.3081,3.3081,3.3081,3.3081,3.3081,3.3081,3.3081,3.3081,3.3398,3.4191,3.3556,3.3869,3.5668,3.6053,3.6682,3.7753,3.8782,3.9424,3.9424,3.9424,3.9185,3.8691,3.8676,3.8437,3.7958,3.7958,3.7958,3.7958,3.7958,3.8288,0.491,0.6313,0.7446,0.8703,0.9836,1.0666,1.08,0.9956,0.9167,0.9436,0.866,0.833,0.9759,1.0087,1.048,1.175,1.1945,1.1458,1.0288,1.0096,1.0096,1.0096,1.117,1.1458,1.0194,1.242,1.3295,1.2042,1.1945,1.1361,1.0096,1.0096,0.9509,0.8137,0.8137,0.8137,0.8137,0.8137,0.8137,0.8137,0.8137,0.8137,0.8137,0.8137,0.8137,0.8137,0.941,0.9998,1.0293,1.2813,1.3872,1.407,1.5343,1.5832,1.5865,1.6249,1.6922,1.7963,1.9131,2.0654,2.219,2.34,2.4053,2.467,2.5733,2.6963,2.8029,2.8511,3.0328,3.1953,3.1408,3.2103,3.3056,3.3056,3.3068,3.3081,3.3081,3.3081,3.3081,3.3081,3.3081,3.3081,3.3081,3.3081,3.3081,3.3081,3.3081,3.3081,3.3081,3.3081,3.3081,3.3154,3.3167,3.3556,3.4664,3.5668,3.6682,3.7753,3.8782,3.9424,3.9424,3.9424,3.9409,3.9394,3.9394,3.9379,3.9364,3.9364,3.9364,3.9364,3.9364,3.9349,0.2305,0.3805,0.522,0.7149,0.7334,0.7115,0.7175,0.6382,0.5568,0.5719,0.5515,0.5475,0.5902,0.6714,0.7809,0.9079,0.9296,0.9509,0.9899,0.9217,0.8627,0.8627,0.9801,1.0096,0.8825,1.1063,1.1648,0.9509,1.0096,1.0096,0.8726,0.9509,0.941,0.8038,0.8038,0.8038,0.8038,0.8038,0.8038,0.8038,0.8038,0.8038,0.8038,0.8038,0.8038,0.8038,0.8432,0.9702,1.1361,1.2237,1.359,1.5242,1.5635,1.5952,1.6139,1.6239,1.719,1.8512,1.9836,2.171,2.3639,2.4117,2.4502,2.4938,2.5302,2.5876,2.6692,2.7668,2.907,3.0275,3.0089,3.1512,3.2896,3.2052,3.2513,3.3081,3.3081,3.3081,3.3081,3.3081,3.3081,3.3081,3.3081,3.3081,3.3081,3.3081,3.3081,3.3081,3.3081,3.3081,3.3081,3.3081,3.3081,3.324,3.3641,3.5197,3.6369,3.6696,3.8368,3.9424,3.9424,3.9424,3.9424,3.9424,3.9424,3.9424,3.9424,3.9424,3.9424,3.9424,3.9424,3.9424,0.1065,0.2309,0.3374,0.5305,0.5257,0.4604,0.4141,0.3576,0.2982,0.2547,0.2881,0.3307,0.3307,0.4816,0.6124,0.6504,0.7018,0.763,0.8411,0.7826,0.7434,0.7939,0.9217,0.9509,0.8137,0.9998,1.0288,0.8137,0.8825,0.892,0.8038,0.8825,0.8924,0.8038,0.8038,0.8038,0.8038,0.8038,0.8038,0.8038,0.8038,0.8038,0.8038,0.8038,0.8038,0.8038,0.8528,0.9899,1.1945,1.2431,1.3937,1.5985,1.5985,1.6166,1.6538,1.7126,1.8255,1.9677,2.0329,2.2108,2.4068,2.4545,2.4951,2.5303,2.5303,2.5777,2.6476,2.6849,2.8132,2.9407,2.9407,3.0866,3.2339,3.1965,3.2513,3.3081,3.3081,3.3081,3.3081,3.3081,3.3081,3.3081,3.3081,3.3081,3.3081,3.3081,3.3081,3.3081,3.3081,3.3081,3.3081,3.3081,3.3081,3.3081,3.3081,3.465,3.5814,3.6198,3.7814,3.9017,3.9352,3.9424,3.9424,3.9424,3.9424,3.9424,3.9424,3.9424,3.9424,3.9424,3.9424,3.9424,0.0894,0.1521,0.1788,0.3035,0.3262,0.2956,0.1785,0.1532,0.1171,0.0,0.0798,0.17,0.18,0.4007,0.5422,0.4216,0.5222,0.6129,0.6129,0.6129,0.6531,0.7839,0.9118,0.941,0.8137,0.9118,0.941,0.8137,0.8038,0.8038,0.8038,0.8038,0.8038,0.8038,0.8038,0.8038,0.8038,0.8038,0.8038,0.8038,0.8038,0.8038,0.8038,0.8038,0.8038,0.8038,0.9312,1.0583,1.195,1.3216,1.4734,1.6175,1.6286,1.6473,1.6961,1.8635,2.0037,2.118,2.084,2.1935,2.3634,2.4803,2.5391,2.5742,2.5742,2.6572,2.722,2.6014,2.7484,2.9315,2.9223,3.0226,3.15,3.2612,3.2982,3.3081,3.3081,3.3081,3.3081,3.3081,3.3081,3.3081,3.3081,3.3081,3.3081,3.3081,3.3081,3.3081,3.3081,3.3081,3.3081,3.3081,3.3081,3.3081,3.3081,3.4108,3.5197,3.6119,3.7252,3.8308,3.9337,3.9424,3.9424,3.9424,3.9424,3.9424,3.9424,3.9424,3.9424,3.9424,3.9424,3.9424,-0.2409,-0.2231,-0.1963,-0.0714,-0.1178,-0.2033,-0.2262,-0.2403,-0.2646,-0.2893,-0.2704,-0.2205,-0.1205,0.1202,0.3204,0.3914,0.5924,0.7537,0.7537,0.7537,0.7637,0.7939,0.8333,0.8333,0.8038,0.8333,0.8333,0.8038,0.8038,0.8038,0.8038,0.8038,0.8038,0.8038,0.8038,0.8038,0.8038,0.8038,0.8038,0.8038,0.8038,0.8038,0.8038,0.8038,0.8038,0.8041,0.8333,0.9213,1.0596,1.2122,1.361,1.498,1.6104,1.678,1.7245,1.8716,2.0194,2.1695,2.2615,2.3859,2.5169,2.547,2.5644,2.5742,2.5742,2.5917,2.611,2.583,2.6849,2.7861,2.6935,2.8947,3.1045,3.0508,3.1789,3.3081,3.3081,3.3081,3.3081,3.3081,3.3081,3.3081,3.3081,3.3081,3.3081,3.3081,3.3081,3.3081,3.3081,3.3081,3.3081,3.3081,3.3081,3.3081,3.3081,3.4802,3.5894,3.6198,3.7979,3.9104,3.9424,3.9424,3.9424,3.9424,3.9424,3.9424,3.9424,3.9424,3.9424,3.9424,3.9424,3.9424,-0.3748,-0.357,-0.3481,-0.2769,-0.3197,-0.3932,-0.4542,-0.4751,-0.5059,-0.561,-0.4818,-0.3815,-0.3015,-0.0201,0.2207,0.3013,0.4918,0.6426,0.7033,0.7135,0.7335,0.7939,0.8038,0.8038,0.8038,0.8038,0.8038,0.8038,0.8038,0.8038,0.8038,0.8038,0.8038,0.8038,0.8038,0.8038,0.8038,0.8038,0.8038,0.8038,0.8038,0.8038,0.8038,0.8038,0.8038,0.8038,0.8038,0.8726,1.0109,1.0993,1.2625,1.4654,1.5543,1.685,1.8451,1.975,2.1276,2.2767,2.4097,2.5118,2.5742,2.5742,2.5742,2.5742,2.5742,2.5742,2.5742,2.5742,2.6197,2.6849,2.721,2.8855,3.0496,3.0956,3.2064,3.3081,3.3081,3.3081,3.3081,3.3081,3.3081,3.3081,3.3081,3.3081,3.3081,3.3081,3.3081,3.3081,3.3081,3.3081,3.3081,3.3081,3.3081,3.3081,3.3081,3.4568,3.5734,3.6198,3.7738,3.8943,3.9352,3.9424,3.9424,3.9424,3.9424,3.9424,3.9424,3.9424,3.9424,3.9424,3.9424,3.9424,-0.4105,-0.3926,-0.4014,-0.3837,-0.4053,-0.4649,-0.5784,-0.616,-0.6631,-0.7736,-0.6024,-0.4216,-0.4016,-0.0903,0.181,0.2012,0.3316,0.472,0.5827,0.6129,0.6731,0.7839,0.8038,0.8038,0.8038,0.8038,0.8038,0.8038,0.8038,0.8038,0.8038,0.8038,0.8038,0.8038,0.8038,0.8038,0.8038,0.8038,0.8038,0.8038,0.8038,0.8038,0.8038,0.8038,0.8038,0.8038,0.8038,0.8641,0.9855,1.0327,1.2131,1.4616,1.5092,1.7094,1.9731,2.1143,2.2567,2.389,2.5226,2.5742,2.5742,2.5742,2.5742,2.5742,2.5742,2.5742,2.5742,2.5742,2.583,2.638,2.8402,2.9131,2.9954,3.2064,3.2711,3.2884,3.3068,3.3081,3.3081,3.3081,3.3081,3.3081,3.3081,3.3081,3.3081,3.3081,3.3081,3.3081,3.3081,3.3081,3.3081,3.3081,3.3081,3.3154,3.3313,3.4262,3.5359,3.6369,3.742,3.8472,3.9337,3.9424,3.9424,3.9424,3.9424,3.9424,3.9424,3.9424,3.9424,3.9424,3.9424,3.9424,-0.5179,-0.5802,-0.6245,-0.5356,-0.5987,-0.7026,-0.7218,-0.7434,-0.7736,-0.7939,-0.6731,-0.5322,-0.4216,-0.1604,0.0702,0.181,0.4019,0.5727,0.5929,0.6933,0.7739,0.7939,0.8038,0.8038,0.8038,0.8038,0.8038,0.8038,0.8038,0.8038,0.8038,0.8038,0.8038,0.8038,0.8038,0.8038,0.8038,0.8038,0.8038,0.8038,0.8038,0.8038,0.8038,0.8038,0.8038,0.8038,0.8038,0.8213,0.8744,1.1341,1.2776,1.3618,1.6107,1.8137,1.9731,2.1143,2.2567,2.389,2.5226,2.5742,2.5742,2.5742,2.5742,2.5742,2.5742,2.5742,2.5742,2.5742,2.6476,2.7125,2.6476,2.7851,2.9498,2.9954,3.0777,3.1777,3.2884,3.3081,3.3081,3.3081,3.3081,3.3081,3.3081,3.3081,3.3081,3.3081,3.3081,3.3081,3.3081,3.3081,3.3081,3.3081,3.3081,3.3484,3.4345,3.5346,3.6369,3.7434,3.8546,3.9192,3.9424,3.9424,3.9424,3.9424,3.9424,3.9424,3.9424,3.9424,3.9424,3.9424,3.9424,3.9424,-0.6248,-0.6694,-0.6962,-0.6428,-0.6913,-0.76,-0.76,-0.7828,-0.8038,-0.8038,-0.6933,-0.5625,-0.4218,-0.2408,-0.0402,0.171,0.3618,0.5222,0.5927,0.7132,0.8038,0.8038,0.8038,0.8038,0.8038,0.8038,0.8038,0.8038,0.8038,0.8038,0.8038,0.8038,0.8038,0.8038,0.8038,0.8038,0.8038,0.8038,0.8038,0.8038,0.8038,0.8038,0.8038,0.8038,0.8038,0.8038,0.8038,0.8126,0.8484,1.0789,1.2215,1.3262,1.5529,1.7752,1.9731,2.1143,2.2567,2.389,2.5226,2.5742,2.5742,2.5742,2.5742,2.5742,2.5742,2.5742,2.5742,2.5742,2.611,2.6668,2.6668,2.7579,2.8773,3.0045,3.1323,3.2339,3.2982,3.3081,3.3081,3.3081,3.3081,3.3081,3.3081,3.3081,3.3081,3.3081,3.3081,3.3081,3.3081,3.3081,3.3081,3.3081,3.3081,3.3556,3.4581,3.5588,3.6682,3.7753,3.8782,3.9424,3.9424,3.9424,3.9424,3.9424,3.9424,3.9424,3.9424,3.9424,3.9424,3.9424,3.9424,3.9424,-0.7139,-0.7139,-0.7139,-0.7139,-0.7373,-0.76,-0.76,-0.7828,-0.8038,-0.8038,-0.6933,-0.5625,-0.4218,-0.2914,-0.1208,0.1208,0.2715,0.4017,0.5425,0.6731,0.7637,0.7939,0.8038,0.8038,0.8038,0.8038,0.8038,0.8038,0.8038,0.8038,0.8038,0.8038,0.8038,0.8038,0.8038,0.8038,0.8038,0.8038,0.8038,0.8038,0.8038,0.8038,0.8038,0.8038,0.8038,0.8041,0.8075,0.8174,0.8532,1.0435,1.1968,1.3223,1.5122,1.7423,1.9731,2.1143,2.2567,2.389,2.5226,2.5742,2.5742,2.5742,2.5742,2.5742,2.5742,2.5742,2.5742,2.5742,2.5927,2.6294,2.703,2.741,2.8132,3.0316,3.1965,3.3081,3.3081,3.3169,3.3257,3.3257,3.3345,3.3432,3.3432,3.3432,3.3432,3.3432,3.3432,3.3432,3.3432,3.3432,3.3432,3.3432,3.3219,3.3628,3.4897,3.5734,3.6774,3.8069,3.8943,3.9424,3.9424,3.9424,3.9424,3.9424,3.9424,3.9424,3.9424,3.9424,3.9424,3.9424,3.9424,3.9424,-0.7139,-0.7139,-0.7139,-0.7139,-0.7373,-0.76,-0.76,-0.7828,-0.8038,-0.8038,-0.6933,-0.5625,-0.4218,-0.2914,-0.1511,-0.0101,0.131,0.2614,0.4016,0.5322,0.6631,0.7839,0.8038,0.8038,0.8038,0.8038,0.8038,0.8038,0.8038,0.8038,0.8038,0.8038,0.8038,0.8038,0.8038,0.8038,0.8038,0.8038,0.8038,0.8038,0.8038,0.8038,0.8038,0.8038,0.8038,0.8045,0.8187,0.833,0.8682,1.1549,1.3027,1.3557,1.6274,1.829,1.9731,2.1143,2.2567,2.389,2.5226,2.5742,2.5742,2.5742,2.5742,2.5742,2.5742,2.5742,2.5742,2.5742,2.6572,2.722,2.611,2.6754,2.7955,2.9223,3.1424,3.3081,3.3081,3.347,3.3822,3.3822,3.4223,3.4575,3.4575,3.4575,3.4575,3.4575,3.4575,3.4575,3.4575,3.4575,3.4575,3.4575,3.3671,3.394,3.5894,3.6132,3.7084,3.9104,3.9337,3.9424,3.9424,3.9424,3.9424,3.9424,3.9424,3.9424,3.9424,3.9424,3.9424,3.9424,3.9424,3.9424,-0.7316,-0.7139,-0.7139,-0.7139,-0.7373,-0.76,-0.76,-0.7828,-0.8038,-0.8038,-0.7537,-0.683,-0.5425,-0.4117,-0.2814,-0.1411,0.0604,0.2213,0.2715,0.4622,0.6229,0.6734,0.7537,0.8038,0.8038,0.8038,0.8038,0.8038,0.8038,0.8038,0.8038,0.8038,0.8038,0.8038,0.8038,0.8038,0.8038,0.8038,0.8038,0.8038,0.8038,0.8038,0.8038,0.8038,0.8038,0.8048,0.8204,0.835,0.8699,1.1787,1.3163,1.3588,1.6499,1.7891,1.8708,2.0837,2.2055,2.2767,2.4922,2.5742,2.5742,2.5742,2.5742,2.5742,2.5742,2.5742,2.5742,2.5742,2.611,2.639,2.583,2.721,2.9117,3.0617,3.2362,3.3658,3.3997,3.4236,3.4399,3.4399,3.4575,3.4726,3.4726,3.4726,3.4726,3.4726,3.4726,3.4726,3.4726,3.4726,3.4726,3.4726,3.4324,3.4973,3.7071,3.7316,3.8295,4.0442,4.0591,4.0591,4.0591,4.0591,4.0591,4.0591,4.0217,4.0008,4.0008,3.9619,3.9424,3.9424,3.9424,3.9424,-0.7925,-0.7404,-0.7139,-0.7139,-0.7373,-0.76,-0.76,-0.7828,-0.8038,-0.8038,-0.8038,-0.7434,-0.5724,-0.462,-0.3416,-0.1711,0.0201,0.1511,0.1913,0.3919,0.5525,0.5929,0.7235,0.8038,0.8038,0.8038,0.8038,0.8038,0.8038,0.8038,0.8038,0.8038,0.8038,0.8038,0.8038,0.8038,0.8038,0.8038,0.8038,0.8038,0.8038,0.8038,0.8038,0.8038,0.8038,0.8052,0.8751,0.9105,0.9429,1.248,1.3758,1.4126,1.6611,1.7582,1.7891,2.0735,2.1752,2.2055,2.4815,2.5742,2.5742,2.5742,2.5742,2.5742,2.5742,2.5742,2.5742,2.5742,2.5742,2.5859,2.6356,2.7788,2.9475,3.1287,3.2635,3.3674,3.4057,3.4554,3.4964,3.4964,3.5102,3.5203,3.5203,3.5203,3.5203,3.5203,3.5203,3.5203,3.5203,3.5203,3.5203,3.5203,3.5451,3.6171,3.7419,3.7882,3.8883,4.0713,4.1217,4.1384,4.1384,4.1384,4.1384,4.1384,4.0935,4.0696,4.0681,4.0232,3.9993,3.9993,3.9993,3.9903,-0.9135,-0.8017,-0.7139,-0.7139,-0.7373,-0.76,-0.76,-0.7828,-0.8038,-0.8038,-0.8038,-0.7232,-0.4516,-0.4016,-0.3115,-0.0504,0.0,0.0504,0.1812,0.3215,0.4518,0.5827,0.7235,0.8038,0.8038,0.8038,0.8038,0.8038,0.8038,0.8038,0.8038,0.8038,0.8038,0.8038,0.8038,0.8038,0.8038,0.8038,0.8038,0.8038,0.8038,0.8038,0.8038,0.8038,0.8038,0.8055,0.9871,1.0642,1.0876,1.4028,1.5417,1.5524,1.7041,1.7582,1.7891,2.0735,2.1752,2.2055,2.4815,2.5742,2.5742,2.5742,2.5742,2.5742,2.5742,2.5742,2.5742,2.5742,2.5742,2.6112,2.7866,2.8261,2.8656,3.0474,3.1829,3.2687,3.2699,3.4181,3.5449,3.5449,3.5968,3.6345,3.6345,3.6345,3.6345,3.6345,3.6345,3.6345,3.6345,3.6345,3.6345,3.6345,3.7389,3.7632,3.6411,3.7392,3.8543,3.9541,4.0713,4.1384,4.1384,4.1384,4.1384,4.1384,4.1369,4.1369,4.1369,4.1369,4.1354,4.1354,4.1354,4.101,-0.9657,-0.8627,-0.8101,-0.7316,-0.7292,-0.7472,-0.7577,-0.7746,-0.7913,-0.8018,-0.7235,-0.6331,-0.5525,-0.3917,-0.2313,-0.1511,-0.0605,0.0101,0.0605,0.2614,0.4116,0.4618,0.6628,0.8038,0.8038,0.8038,0.8038,0.8038,0.8038,0.8038,0.8038,0.8038,0.8038,0.8038,0.8038,0.8038,0.8038,0.8038,0.8038,0.8038,0.8038,0.8038,0.8038,0.8038,0.8038,0.8055,0.8862,0.9715,1.0876,1.3077,1.4556,1.5524,1.7041,1.7582,1.7891,2.0735,2.1752,2.2055,2.4815,2.5742,2.5742,2.5742,2.5742,2.5742,2.5742,2.5742,2.5742,2.5742,2.5947,2.6675,2.9072,2.9833,3.0678,3.3409,3.4316,3.4706,3.5157,3.5687,3.6107,3.6107,3.6245,3.6358,3.6358,3.6358,3.6358,3.6358,3.6358,3.6358,3.6358,3.6358,3.6358,3.6358,3.6709,3.7456,3.8654,3.9802,4.0997,4.2025,4.2465,4.2716,4.2716,4.2716,4.2716,4.2716,4.2282,4.2058,4.2058,4.1594,4.1384,4.1384,4.1384,4.161,-1.1112,-0.9579,-0.8715,-0.7929,-0.7613,-0.7411,-0.7563,-0.7709,-0.7855,-0.8007,-0.6933,-0.5827,-0.5322,-0.3417,-0.1812,-0.131,-0.0504,0.0202,0.0706,0.2614,0.4416,0.542,0.703,0.8038,0.8038,0.8038,0.8237,0.8726,0.8726,0.892,0.941,0.9505,0.9213,0.8726,0.8233,0.8038,0.8038,0.8038,0.8038,0.8038,0.8038,0.8038,0.8038,0.8038,0.8038,0.8055,0.9472,1.0647,0.0,1.3933,1.5423,1.628,1.7259,1.7582,1.7891,2.0735,2.1752,2.2055,2.4815,2.5742,2.5742,2.5742,2.5742,2.5742,2.5742,2.5742,2.5742,2.5742,2.6428,2.7652,2.9895,3.0881,3.1871,3.4447,3.508,3.5166,3.5593,3.6061,3.6358,3.6358,3.6358,3.6358,3.6358,3.6358,3.6358,3.6358,3.6358,3.6358,3.6358,3.6358,3.6358,3.6358,3.6803,3.7861,3.9724,4.0575,4.142,4.2548,4.3076,4.3329,4.3329,4.3329,4.3329,4.3329,4.294,4.2731,4.2731,4.2312,4.2117,4.2117,4.247,4.2829,0.0,-1.0778,-0.8978,-0.889,-0.8139,-0.7397,-0.7563,-0.7702,0.0,-0.8007,-0.6833,-0.5525,-0.4218,-0.2815,-0.1411,-0.0202,0.0,0.0504,0.1812,0.3215,0.5118,0.7736,0.8038,0.8038,0.8038,0.8038,0.8528,0.9903,0.9998,1.0583,1.1848,1.1945,1.1361,1.0194,0.892,0.8237,0.8038,0.8038,0.8038,0.8038,0.8038,0.8038,0.8038,0.8038,0.8038,0.8151,1.13,1.271,1.3054,1.6168,1.7477,1.7582,1.7582,1.7687,1.8094,2.0735,2.1752,2.2257,2.4815,2.5742,2.5742,2.5742,2.5742,2.5742,2.5742,2.5742,2.5742,2.5869,2.712,2.8806,3.0615,3.1495,3.2286,3.3962,3.4483,3.4581,3.4581,3.5571,3.6358,3.6358,3.6358,3.6358,3.6358,3.6358,3.6358,3.6358,3.6358,3.6358,3.6358,3.6358,3.6358,3.6358,3.7322,3.8469,3.9812,3.9986,4.049,4.167,4.2725,4.3329,4.3329,4.3329,4.3329,4.3329,4.3329,4.3329,4.3329,4.3329,4.3329,4.3329,4.4358,4.453,-1.535,0.0,-1.0009,-0.9152,-0.8047,-0.7265,0.0,-0.7628,-0.7723,-0.7984,-0.6124,-0.4418,-0.4016,-0.2113,-0.0404,-0.0101,0.0,0.0504,0.1812,0.4019,0.6126,0.7839,0.8038,0.8038,0.8038,0.8038,0.8528,0.9903,0.9998,1.0583,1.1848,1.1945,1.1755,1.1463,1.1165,0.9993,0.8038,0.8038,0.8038,0.8038,0.8038,0.8038,0.8038,0.8038,0.8038,0.8155,1.028,1.1779,1.2951,1.51,1.6605,1.7582,1.7582,1.8199,1.9317,2.1041,2.2366,2.3484,2.5128,2.5742,2.5742,2.5742,2.5742,2.5742,2.5742,2.5742,2.5995,2.7355,2.8244,2.9285,3.1116,3.2604,3.3829,3.4252,3.5174,3.5966,3.5966,3.6168,3.6358,3.6358,3.6358,3.6358,3.6358,3.6358,3.6358,3.6358,3.6358,3.6358,3.6358,3.6358,3.6358,3.6358,3.6628,3.7599,3.9724,4.0661,4.1684,4.282,4.3155,4.3329,4.3329,4.3329,4.3329,4.3329,4.3329,4.3329,4.3329,4.3329,4.3329,4.3329,4.4358,4.5133,-1.6026,-1.3581,-1.1123,-0.9923,-0.8798,-0.7841,-0.7622,-0.76,-0.7685,-0.7977,-0.5822,-0.4016,-0.4016,-0.1307,0.0706,0.0101,0.1008,0.2314,0.362,0.5627,0.7235,0.7939,0.8528,0.892,0.892,0.941,1.0386,1.1648,1.1745,1.2328,1.3596,1.3692,1.3403,1.2813,1.2813,1.1551,0.892,0.892,0.8627,0.8038,0.8038,0.8038,0.8038,0.8038,0.8038,0.8151,1.0496,1.2001,1.2941,1.5291,1.6813,1.7582,1.7582,1.7989,1.8916,2.0939,2.2156,2.3076,2.502,2.5742,2.5742,2.5742,2.5742,2.5742,2.5742,2.611,2.6845,2.8049,2.9171,3.0307,3.2174,3.3981,3.5271,3.5271,3.587,3.6358,3.6358,3.6358,3.6358,3.6358,3.6358,3.6358,3.6358,3.6358,3.6358,3.6358,3.6358,3.6358,3.6358,3.6358,3.6358,3.6358,3.6896,3.7952,3.9724,4.0916,4.2111,4.325,4.3329,4.3329,4.3329,4.3329,4.3329,4.3329,4.3329,4.3329,4.3329,4.3329,4.3329,4.3329,4.4765,4.569,-1.6191,-1.4176,-1.2066,-1.0869,-0.9575,-0.846,-0.7716,-0.76,-0.7587,-0.7677,-0.5722,-0.3914,-0.3512,-0.0603,0.141,0.0504,0.2413,0.4418,0.5827,0.7132,0.8038,0.8233,0.9312,1.0096,1.0293,1.1268,1.2431,1.3776,1.3878,1.4459,1.573,1.5832,1.5337,1.4262,1.4166,1.3006,1.0583,1.019,0.9316,0.8038,0.8038,0.8038,0.8038,0.8038,0.8038,0.8144,1.1088,1.2506,1.3038,1.5978,1.7321,1.7582,1.7582,1.7891,1.8499,2.0837,2.1954,2.2667,2.4913,2.5742,2.5742,2.5742,2.5742,2.5742,2.5742,2.6572,2.7789,2.8604,2.9987,3.1586,3.3051,3.4917,3.6358,3.6156,3.6263,3.6358,3.6358,3.6358,3.6358,3.6358,3.6358,3.6358,3.6358,3.6358,3.6358,3.6358,3.6358,3.6358,3.6358,3.6358,3.6452,3.6628,3.7494,3.8635,4.0059,4.1085,4.2111,4.325,4.3329,4.3329,4.3329,4.3329,4.3329,4.3329,4.3329,4.3329,4.3329,4.3329,4.3329,4.3329,4.5327,4.6173,-1.709,-1.4747,-1.2066,-1.0869,-0.8965,-0.7399,-0.7529,-0.76,-0.7393,-0.6481,-0.512,-0.331,-0.1002,-0.0101,0.0605,0.1511,0.3015,0.4418,0.5827,0.7132,0.8432,0.9509,0.9899,1.0386,1.1458,1.175,1.2431,1.3776,1.3878,1.4459,1.573,1.5832,1.573,1.5534,1.5534,1.4758,1.3295,1.1068,0.9316,0.8038,0.8038,0.8038,0.8038,0.8038,0.8038,0.8144,1.1088,1.2506,1.3038,1.5978,1.7321,1.7582,1.7582,1.9005,2.1143,2.1541,2.3176,2.5118,2.5538,2.5742,2.5742,2.5742,2.5742,2.5742,2.5742,2.6572,2.8041,3.0039,3.1593,3.2547,3.2491,3.4485,3.6156,3.4981,3.5571,3.6358,3.6358,3.6358,3.6358,3.6358,3.6358,3.6358,3.6358,3.6358,3.6358,3.6358,3.6358,3.6358,3.6358,3.6358,3.6803,3.7756,3.803,3.8979,4.1155,4.1504,4.2111,4.325,4.3329,4.3329,4.3329,4.3329,4.3329,4.3329,4.3329,4.3329,4.3329,4.3329,4.3329,4.3329,4.5327,4.6173,-1.7342,-1.44,-1.13,-1.0697,-0.8849,-0.7021,-0.6593,-0.6026,-0.5441,-0.4993,-0.3817,-0.231,-0.0401,0.1205,0.2815,0.492,0.5122,0.5525,0.6933,0.7637,0.8531,0.9801,1.0583,1.1556,1.2813,1.359,1.4274,1.4854,1.4949,1.5146,1.5737,1.5832,1.5832,1.5832,1.5832,1.5146,1.3878,1.2037,1.0386,0.9118,0.8333,0.8038,0.8038,0.8038,0.8038,0.8141,1.0973,1.2394,1.3023,1.5815,1.7174,1.7582,1.7582,1.8401,1.962,2.1135,2.3384,2.5742,2.5742,2.5742,2.5742,2.5742,2.5742,2.5742,2.5742,2.703,2.8784,2.9645,3.1354,3.3148,3.427,3.5451,3.6263,3.5667,3.5966,3.6358,3.6358,3.6358,3.6358,3.6358,3.6358,3.6358,3.6358,3.6358,3.6358,3.6358,3.6358,3.6358,3.6358,3.6358,3.6803,3.803,3.8649,3.9784,4.142,4.2193,4.2725,4.325,4.3329,4.3329,4.3329,4.3329,4.3329,4.3329,4.3329,4.3329,4.3329,4.3329,4.3329,4.3329,4.5327,4.6173,-1.6985,-1.3794,-1.0524,-1.0269,-0.8641,-0.691,-0.5844,-0.4714,-0.3728,-0.3601,-0.2209,-0.0703,0.0301,0.2406,0.4816,0.712,0.6921,0.6924,0.8329,0.8726,0.9312,1.0288,1.1556,1.2915,1.4268,1.5242,1.5832,1.5832,1.5832,1.5832,1.5832,1.5832,1.5832,1.5832,1.5832,1.5337,1.4364,1.3011,1.1556,0.9998,0.892,0.8432,0.8432,0.8432,0.8432,0.8627,1.0877,1.2198,1.3017,1.5576,1.7054,1.7582,1.7582,1.7989,1.8805,2.1245,2.3683,2.5742,2.5742,2.5742,2.5742,2.5742,2.5742,2.5732,2.6014,2.7673,2.9424,2.9838,3.1556,3.372,3.5478,3.6156,3.6358,3.6358,3.6358,3.6358,3.6358,3.6358,3.6358,3.6358,3.6358,3.6358,3.6358,3.6358,3.6358,3.6358,3.6358,3.6358,3.6358,3.6628,3.7243,3.8379,3.9623,4.0746,4.1932,4.2805,4.3329,4.3329,4.3329,4.3329,4.3329,4.3329,4.3329,4.3329,4.3329,4.3329,4.3329,4.3329,4.3329,4.3329,4.5327,4.6173,-1.6016,-1.3187,-1.0351,-0.9323,-0.8232,-0.7034,-0.585,-0.4699,-0.3515,-0.2402,-0.01,0.1703,0.181,0.3013,0.451,0.5887,0.7084,0.8294,0.9698,1.0877,1.1653,1.175,1.2909,1.4268,1.5534,1.573,1.5832,1.5832,1.5832,1.5832,1.5832,1.5832,1.5832,1.5832,1.5832,1.573,1.5635,1.4364,1.2522,0.9998,0.9899,0.9903,0.9903,0.9903,0.9903,0.9899,1.1268,1.2198,1.3017,1.5576,1.7054,1.7582,1.7582,1.9109,2.155,2.2976,2.451,2.5742,2.5742,2.5742,2.5742,2.5742,2.5742,2.5927,2.7125,2.8402,2.9896,3.2043,3.357,3.4599,3.4511,3.5475,3.6358,3.6358,3.6358,3.6358,3.6358,3.6358,3.6358,3.6358,3.6358,3.6358,3.6358,3.6358,3.6358,3.6358,3.6358,3.6358,3.6358,3.7322,3.8469,3.9623,4.0831,4.1947,4.3076,4.325,4.3329,4.3329,4.3329,4.3329,4.3329,4.3329,4.3329,4.3329,4.3329,4.3329,4.3329,4.3329,4.3329,4.3329,4.5327,4.6173,-1.5927,-1.2644,-0.9369,-0.8969,-0.767,-0.5821,-0.3582,-0.2907,-0.2089,0.0,0.1306,0.2209,0.3114,0.502,0.6617,0.7186,0.8386,0.9395,0.9899,1.1072,1.1945,1.1945,1.3102,1.4364,1.5635,1.5832,1.5832,1.5832,1.5832,1.5832,1.5832,1.5832,1.5832,1.5832,1.5832,1.5832,1.5832,1.4555,1.3392,1.2425,1.1556,1.117,1.117,1.117,1.117,1.1263,1.2522,1.3478,1.4134,1.5985,1.7054,1.7582,1.7582,1.9317,2.1752,2.2257,2.3791,2.5742,2.5742,2.5742,2.5742,2.5742,2.5742,2.5927,2.722,2.8402,2.9896,3.2229,3.3766,3.4886,3.5491,3.6061,3.6358,3.6358,3.6358,3.6358,3.6358,3.6358,3.6358,3.6358,3.6358,3.6358,3.6358,3.6358,3.6358,3.6358,3.6358,3.6628,3.7415,3.7848,3.8814,4.0732,4.1947,4.282,4.325,4.3329,4.3329,4.3329,4.3329,4.3329,4.3329,4.3329,4.3329,4.3329,4.3329,4.3329,4.3329,4.3329,4.3329,4.3329,4.4706,4.5634,-1.4918,-1.1714,-0.8678,-0.7998,-0.6424,-0.435,-0.1699,-0.156,-0.1104,0.201,0.2314,0.2514,0.4318,0.6116,0.7604,0.847,1.0062,1.1258,1.1258,1.2328,1.3011,1.2624,1.3686,1.4848,1.573,1.5832,1.5832,1.5832,1.5832,1.5832,1.5832,1.5832,1.5832,1.5832,1.5832,1.5832,1.5832,1.4949,1.4459,1.4465,1.359,1.2915,1.2528,1.2528,1.2528,1.2624,1.3488,1.4217,1.4731,1.6147,1.7054,1.7582,1.7582,1.9317,2.1752,2.1752,2.3384,2.5742,2.5742,2.5742,2.5742,2.5742,2.6014,2.6572,2.7767,2.9039,3.0445,3.2795,3.4053,3.4977,3.6069,3.6358,3.6358,3.6358,3.6358,3.6358,3.6358,3.6358,3.6358,3.6358,3.6358,3.6358,3.6358,3.6358,3.6358,3.6358,3.6709,3.7243,3.803,3.8725,3.9931,4.1932,4.282,4.3329,4.3329,4.3329,4.3329,4.3329,4.3329,4.3329,4.3329,4.3329,4.3329,4.3329,4.3329,4.3329,4.3329,4.3329,4.3329,4.3329,4.4358,4.5285,-1.2819,-1.0565,-0.836,-0.598,-0.4497,-0.2924,-0.0378,-0.0877,-0.08,0.3209,0.2916,0.2816,0.5525,0.6001,0.6863,0.9514,1.218,1.3878,1.3878,1.5045,1.5337,1.407,1.5045,1.5832,1.5832,1.5832,1.5832,1.5832,1.5832,1.5832,1.5832,1.5832,1.5832,1.5832,1.5832,1.5832,1.5832,1.5832,1.5832,1.5832,1.5832,1.514,1.3878,1.3878,1.3878,1.3878,1.3878,1.4116,1.4475,1.6069,1.7054,1.7582,1.7582,1.9317,2.1752,2.1752,2.3384,2.5742,2.5742,2.5742,2.5742,2.5742,2.6572,2.7861,2.9039,3.0226,3.1716,3.4015,3.4726,3.4977,3.6069,3.6358,3.6358,3.6358,3.6358,3.6358,3.6358,3.6358,3.6358,3.6358,3.6358,3.6358,3.6358,3.6358,3.6358,3.6358,3.7415,3.8107,3.8107,4.0204,4.2029,4.317,4.3329,4.3329,4.3329,4.3329,4.3329,4.3329,4.3329,4.3329,4.3329,4.3329,4.3329,4.3329,4.3329,4.3329,4.3329,4.3329,4.3329,4.3329,4.4297,4.5285,-1.4061,-1.057,-0.7186,-0.5719,-0.325,-0.0569,0.1153,0.0492,0.03,0.341,0.442,0.532,0.7105,0.8192,0.9359,1.1075,1.2764,1.3878,1.3878,1.5045,1.5337,1.407,1.5045,1.5832,1.5832,1.5832,1.5832,1.5832,1.5832,1.5832,1.5832,1.5832,1.5832,1.5832,1.5832,1.5832,1.5832,1.5832,1.5832,1.5832,1.5832,1.5629,1.5242,1.5242,1.5242,1.5242,1.5242,1.5403,1.5803,1.6706,1.7241,1.7582,1.7582,1.9317,2.1752,2.1752,2.3384,2.5742,2.5742,2.5742,2.5742,2.5742,2.6572,2.7861,2.9039,3.0226,3.1644,3.3568,3.4424,3.4889,3.5604,3.6069,3.6358,3.6358,3.6358,3.6358,3.6358,3.6358,3.6358,3.6358,3.6358,3.6358,3.6358,3.6358,3.6358,3.6358,3.7415,3.8725,4.0376,4.185,4.29,4.325,4.3329,4.3329,4.3329,4.3329,4.3329,4.3329,4.3329,4.3329,4.3329,4.3329,4.3329,4.3329,4.3329,4.3329,4.3329,4.3329,4.3329,4.3329,4.363,4.4631,-1.265,-0.9221,-0.5963,-0.429,-0.149,0.1332,0.3229,0.3474,0.3504,0.4616,0.5425,0.6523,0.8495,0.9477,1.0542,1.2368,1.3753,1.4657,1.4657,1.5343,1.5534,1.4752,1.5337,1.5832,1.5832,1.5832,1.5832,1.5832,1.5832,1.5832,1.5832,1.5832,1.5832,1.5832,1.5832,1.5832,1.5832,1.5832,1.5832,1.5832,1.5832,1.5832,1.5832,1.5832,1.5832,1.5832,1.5832,1.6066,1.6473,1.6827,1.7215,1.7687,1.8199,1.9723,2.1752,2.2257,2.389,2.5742,2.5742,2.6014,2.6476,2.6476,2.7579,2.9131,2.9852,3.0956,3.225,3.3558,3.4299,3.4851,3.5403,3.5956,3.6358,3.6358,3.6358,3.6358,3.6358,3.6358,3.6358,3.6358,3.6358,3.6358,3.6358,3.6358,3.6534,3.6977,3.8456,4.0204,4.2029,4.29,4.3329,4.3329,4.3329,4.3329,4.3329,4.3329,4.3329,4.3329,4.3329,4.3329,4.3329,4.3329,4.3329,4.3329,4.3329,4.3329,4.3329,4.3329,4.3329,4.3329,4.3329,4.4128,-1.023,-0.7376,-0.475,-0.2195,0.0467,0.3163,0.5577,0.7135,0.7637,0.6229,0.6229,0.712,0.9698,1.0245,1.1094,1.3669,1.5045,1.5832,1.5832,1.5832,1.5832,1.5832,1.5832,1.5832,1.5832,1.5832,1.5832,1.5832,1.5832,1.5832,1.5832,1.5832,1.5832,1.5832,1.5832,1.5832,1.5832,1.5832,1.5832,1.5832,1.5832,1.5832,1.5832,1.5832,1.5832,1.5832,1.5832,1.6159,1.6707,1.6707,1.7054,1.7681,1.9124,2.0436,2.1853,2.3176,2.451,2.5742,2.5742,2.6572,2.7589,2.7589,2.9223,3.1223,3.1223,3.2052,3.3181,3.3684,3.4261,3.4839,3.5341,3.5918,3.6358,3.6358,3.6358,3.6358,3.6358,3.6358,3.6358,3.6358,3.6358,3.6358,3.6358,3.6452,3.6977,3.8198,4.0204,4.2029,4.3155,4.3329,4.3329,4.3329,4.3329,4.3329,4.3329,4.3329,4.3329,4.3329,4.3329,4.3329,4.3329,4.3329,4.3329,4.3329,4.3329,4.3329,4.3329,4.3329,4.3329,4.3329,4.3329,4.3849,-1.3451,-0.9117,-0.4746,-0.2229,0.1829,0.5565,0.722,0.7839,0.7637,0.6229,0.7717,0.9596,1.1165,1.2313,1.3567,1.514,1.5635,1.5832,1.5832,1.5832,1.5832,1.5832,1.5832,1.5832,1.5832,1.5832,1.5832,1.5832,1.5832,1.5832,1.5832,1.5832,1.5832,1.5832,1.5832,1.5832,1.5832,1.5832,1.5832,1.5832,1.5832,1.5832,1.5832,1.5832,1.5832,1.5832,1.5832,1.6159,1.6707,1.6707,1.7054,1.7681,1.9124,2.0436,2.1853,2.3176,2.451,2.5742,2.5742,2.6572,2.7589,2.7589,2.9223,3.1223,3.1223,3.2052,3.3106,3.3219,3.396,3.4751,3.4864,3.5629,3.6358,3.6358,3.6358,3.6358,3.6358,3.6358,3.6358,3.6358,3.6358,3.6358,3.6358,3.715,3.8456,4.0547,4.1239,4.2029,4.3155,4.3329,4.3329,4.3329,4.3329,4.3329,4.3329,4.3329,4.3329,4.3329,4.3329,4.3329,4.3329,4.3329,4.3329,4.3329,4.3329,4.3329,4.3329,4.3329,4.3329,4.3329,4.3329,4.3849,-1.3188,-0.9258,-0.4889,-0.0093,0.3605,0.6329,0.7736,0.8038,0.7839,0.7132,0.8616,1.0391,1.1653,1.3006,1.4364,1.5629,1.5832,1.5832,1.5832,1.5832,1.5832,1.5832,1.5832,1.5832,1.5832,1.5832,1.5832,1.5832,1.5832,1.6109,1.6669,1.6109,1.6109,1.6669,1.6109,1.5832,1.5832,1.5832,1.5832,1.5832,1.5832,1.5832,1.5832,1.5832,1.5832,1.5832,1.5832,1.6159,1.6707,1.6707,1.7054,1.7786,1.9826,2.1041,2.1954,2.3899,2.5118,2.5742,2.5742,2.6935,2.8495,2.8495,3.0135,3.214,3.214,3.2612,3.3081,3.3081,3.3684,3.4399,3.465,3.5341,3.6031,3.6295,3.6358,3.6358,3.6358,3.6358,3.6358,3.6358,3.6358,3.6534,3.715,3.8635,4.0204,4.142,4.2029,4.2629,4.325,4.3329,4.3329,4.3329,4.3329,4.3329,4.3329,4.3329,4.3329,4.3329,4.3329,4.3329,4.3329,4.3329,4.3329,4.3329,4.3329,4.3329,4.3329,4.3329,4.3329,4.3329,4.3329,4.3551,-1.253,-0.8862,-0.4634,0.2247,0.4984,0.6329,0.7736,0.8038,0.8038,0.8038,0.9019,1.0391,1.1653,1.3006,1.4364,1.5629,1.5832,1.5832,1.5832,1.5832,1.5832,1.5832,1.5832,1.5832,1.5832,1.6015,1.6109,1.6109,1.6292,1.685,1.7692,1.6669,1.648,1.7318,1.6386,1.5832,1.5832,1.5832,1.5832,1.5832,1.5832,1.5832,1.5832,1.5832,1.5832,1.5832,1.5832,1.6159,1.6707,1.6707,1.715,1.8199,2.0735,2.1853,2.2357,2.4815,2.5742,2.5742,2.5742,2.7295,2.9407,2.9407,3.1057,3.3081,3.3081,3.3081,3.3081,3.3081,3.347,3.4022,3.4575,3.514,3.568,3.6232,3.6358,3.6358,3.6358,3.6358,3.6358,3.6358,3.6534,3.707,3.8198,4.0204,4.167,4.185,4.2725,4.3329,4.3329,4.3329,4.3329,4.3329,4.3329,4.3329,4.3329,4.3329,4.3329,4.3329,4.3329,4.3329,4.3329,4.3329,4.3329,4.3329,4.3329,4.3329,4.3329,4.3329,4.3329,4.3329,4.3329,4.3329,-1.5843,-0.9432,-0.2509,0.2739,0.4984,0.6329,0.7736,0.8038,0.8038,0.8038,0.9019,1.0391,1.1653,1.3006,1.4364,1.5629,1.5832,1.5832,1.5832,1.5832,1.5832,1.5832,1.5832,1.5832,1.5832,1.6756,1.7412,1.7412,1.8403,1.8588,1.7785,1.7505,1.7037,1.6109,1.592,1.5832,1.5832,1.5832,1.5832,1.5832,1.5832,1.5832,1.5832,1.5832,1.5832,1.5832,1.5832,1.6159,1.6707,1.6707,1.7747,1.9524,2.1041,2.2366,2.3592,2.5118,2.5742,2.5742,2.5742,2.7295,2.9407,2.9407,3.1057,3.3081,3.3081,3.3081,3.3081,3.3081,3.347,3.4022,3.4575,3.514,3.568,3.6232,3.6358,3.6358,3.6358,3.6358,3.6358,3.6358,3.7243,3.8211,3.9448,4.0746,4.1932,4.29,4.317,4.3329,4.3329,4.3329,4.3329,4.3329,4.3329,4.3329,4.3329,4.3329,4.3329,4.3329,4.3329,4.3329,4.3329,4.3329,4.3329,4.3329,4.3329,4.3329,4.3329,4.3329,4.3329,4.3329,4.3329,4.3329,-1.4849,-0.913,-0.319,0.1793,0.39,0.5422,0.7534,0.8038,0.8237,0.892,0.9019,0.9509,1.156,1.3006,1.4364,1.5629,1.5832,1.5832,1.5832,1.5832,1.6015,1.6763,1.685,1.7124,1.7848,1.8403,1.868,1.868,1.9222,1.9314,1.8772,1.8048,1.7412,1.685,1.6197,1.5832,1.5832,1.5832,1.5832,1.5832,1.5832,1.5832,1.5832,1.5832,1.5832,1.5832,1.5832,1.6159,1.6707,1.6707,1.7848,1.9731,2.1143,2.2567,2.389,2.5226,2.5742,2.5742,2.5742,2.7295,2.9407,2.9407,3.1057,3.3081,3.3081,3.3081,3.3081,3.3081,3.3257,3.3571,3.4123,3.4675,3.5215,3.5768,3.6132,3.6358,3.6358,3.6358,3.6628,3.7243,3.8302,3.9434,4.0646,4.1782,4.2725,4.325,4.3329,4.3329,4.3329,4.3329,4.3329,4.3329,4.3329,4.3329,4.3329,4.3329,4.3329,4.3329,4.3329,4.3329,4.3329,4.3329,4.3329,4.3329,4.3329,4.3329,4.3329,4.3329,4.3329,4.3329,4.3329,4.3329,-1.3823,-0.9416,-0.5066,0.0,0.243,0.4212,0.693,0.7736,0.8233,0.9316,0.892,0.9213,1.1458,1.2716,1.3878,1.5534,1.5832,1.5832,1.5832,1.5832,1.6292,1.7598,1.7412,1.7863,1.9314,1.9497,1.9588,1.9943,2.0215,2.0133,1.9488,1.8688,1.7863,1.7225,1.6292,1.5832,1.5832,1.5832,1.5832,1.5832,1.5832,1.5832,1.5832,1.5832,1.5832,1.5832,1.5832,1.6159,1.6707,1.7093,1.8145,1.9731,2.155,2.2767,2.389,2.5226,2.5742,2.5732,2.611,2.7579,2.9498,2.9772,3.1323,3.3081,3.3081,3.3081,3.3081,3.3081,3.3081,3.3206,3.3759,3.4311,3.4864,3.5416,3.5968,3.6358,3.6358,3.6358,3.6709,3.7848,3.9094,4.0232,4.142,4.2548,4.3329,4.3329,4.3329,4.3329,4.3329,4.3329,4.3329,4.3329,4.3329,4.3329,4.3329,4.3329,4.3329,4.3329,4.3329,4.3329,4.3329,4.3329,4.3329,4.3329,4.3329,4.3329,4.3329,4.3329,4.3329,4.3329,4.3329,4.3329,-1.4378,-1.1292,-0.7578,-0.2525,0.0387,0.2801,0.552,0.7132,0.8041,0.8137,0.9019,1.0293,1.1658,1.1945,1.2818,1.5343,1.5832,1.5832,1.5832,1.5832,1.6292,1.7598,1.6669,1.6842,1.9314,1.9497,1.9943,2.1114,2.2315,2.1952,1.9579,1.9405,1.8303,1.6015,1.5832,1.5832,1.5832,1.5832,1.5832,1.5832,1.5832,1.5832,1.5832,1.5832,1.5832,1.5832,1.5832,1.6159,1.6807,1.8065,1.9037,1.9834,2.2567,2.3692,2.389,2.5226,2.5742,2.583,2.7125,2.8319,2.959,3.0765,3.2052,3.3081,3.3081,3.3081,3.3081,3.3081,3.3081,3.3206,3.3759,3.4311,3.4864,3.5416,3.5968,3.6358,3.6358,3.6358,3.6709,3.7848,3.9094,4.0232,4.142,4.2548,4.3329,4.3329,4.3329,4.3329,4.3329,4.3329,4.3329,4.3329,4.3329,4.3329,4.3329,4.3329,4.3329,4.3329,4.3329,4.3329,4.3329,4.3329,4.3329,4.3329,4.3329,4.3329,4.3329,4.3329,4.3329,4.3329,4.3329,4.3329,-1.5621,-1.3133,-1.0104,-0.5218,-0.154,0.149,0.4093,0.6412,0.8237,0.9118,0.9706,1.0681,1.2813,1.3199,1.3782,1.5534,1.5832,1.5832,1.5832,1.5832,1.6292,1.7598,1.7318,1.7948,2.0395,2.0666,2.1123,2.2403,2.2129,2.1212,1.9588,1.8772,1.7584,1.5825,1.5832,1.5832,1.5832,1.5832,1.5832,1.5832,1.5832,1.5832,1.5832,1.5832,1.5832,1.5832,1.5832,1.6159,1.68,1.8163,1.9621,2.1143,2.2976,2.4196,2.502,2.5528,2.5742,2.5927,2.7125,2.8412,2.959,3.0765,3.2052,3.3081,3.3081,3.3081,3.3081,3.3081,3.3081,3.3119,3.3319,3.3784,3.4424,3.5328,3.5968,3.6628,3.7322,3.7507,3.8017,3.9931,4.0732,4.1351,4.2467,4.2996,4.3329,4.3329,4.3329,4.3329,4.3329,4.3329,4.3329,4.3329,4.3329,4.3329,4.3329,4.3329,4.3329,4.3329,4.3329,4.3329,4.3329,4.3329,4.3329,4.3329,4.3329,4.3329,4.3329,4.3329,4.3329,4.3329,4.3329,4.3329,-1.6692,-1.4744,-1.2204,-0.7639,-0.4225,-0.0988,0.2489,0.5099,0.7211,0.8913,0.9998,1.1165,1.2909,1.3974,1.4848,1.5635,1.5832,1.5832,1.5832,1.5832,1.6292,1.7598,1.7318,1.8041,2.0486,2.0305,2.0576,2.1765,2.1123,2.0124,1.8956,1.8141,1.7131,1.5825,1.5832,1.5832,1.5832,1.5832,1.5832,1.5832,1.5832,1.5832,1.5832,1.5832,1.5832,1.5832,1.5832,1.6159,1.68,1.8163,1.9629,2.1143,2.2976,2.4205,2.5118,2.5528,2.6014,2.6476,2.7767,2.8947,3.0226,3.1412,3.2426,3.3081,3.3081,3.3081,3.3081,3.3081,3.3081,3.3081,3.3081,3.3621,3.4412,3.5328,3.6223,3.715,3.7939,3.8107,3.8801,4.1155,4.1587,4.1932,4.3076,4.3329,4.3329,4.3329,4.3329,4.3329,4.3329,4.3329,4.3329,4.3329,4.3329,4.3329,4.3329,4.3329,4.3329,4.3329,4.3329,4.3329,4.3329,4.3329,4.3329,4.3329,4.3329,4.3329,4.3329,4.3329,4.3329,4.3329,4.3329,4.3615,0.0,0.0,0.0,-1.009,-0.7604,-0.4749,0.0598,0.2794,0.4591,0.7325,0.9989,1.1843,1.1848,1.4082,1.5832,1.5832,1.5832,1.5832,1.5832,1.5832,1.6298,1.7505,1.6574,1.6749,1.9222,1.8411,1.8234,1.9405,1.9497,1.8956,1.7777,1.7692,1.7037,1.5825,1.5832,1.5832,1.5832,1.5832,1.5832,1.5832,1.5832,1.5832,1.5832,1.5832,1.5832,1.5832,1.5825,1.6166,1.68,1.8163,1.9137,2.0033,2.2676,2.3791,2.389,2.5226,2.6476,2.7778,2.8947,3.0226,3.1412,3.2698,3.3081,3.3081,3.3081,3.3081,3.3081,3.3081,3.3081,3.3081,3.3081,3.3884,3.4839,3.5391,3.6805,3.8094,3.8198,3.8198,3.8814,4.1155,4.1587,4.2029,4.3076,4.3329,4.3329,4.3329,4.3329,4.3329,4.3329,4.3329,4.3329,4.3329,4.3329,4.3329,4.3329,4.3329,4.3329,4.3329,4.3329,4.3329,4.3329,4.3329,4.3329,4.3329,4.3329,4.3329,4.3329,4.3329,4.3329,4.3329,4.3329,4.4403,-1.7819,0.0,0.0,0.0,0.0,0.0,-0.4546,-0.1976,0.0791,0.4386,0.714,0.9583,1.1536,1.4082,1.5832,1.5832,1.5832,1.5832,1.5832,1.5832,1.592,1.6292,1.6015,1.6473,1.8048,1.787,1.8234,1.9405,1.868,1.8048,1.7692,1.6857,1.6204,1.5832,1.5832,1.5832,1.5832,1.5832,1.5832,1.5832,1.5832,1.5832,1.5832,1.5832,1.5832,1.5825,1.6756,1.7014,1.69,1.9221,2.1195,2.2776,2.451,2.5128,2.5226,2.5538,2.6476,2.7778,2.8947,3.0226,3.1412,3.2698,3.3081,3.3081,3.3081,3.3081,3.3081,3.3081,3.3081,3.3081,3.3081,3.3608,3.4515,3.5911,3.6225,3.7001,4.002,3.9958,3.9885,4.1337,4.229,4.29,4.325,4.3329,4.3329,4.3329,4.3329,4.3329,4.3329,4.3329,4.3329,4.3329,4.3329,4.3329,4.3329,4.3329,4.3329,4.3329,4.3329,4.3329,4.3329,4.3329,4.3329,4.3329,4.3329,4.3329,4.3329,4.3329,4.3329,4.3329,4.4082,4.5064,-1.8096,-1.7818,-1.7391,-1.4041,0.0,0.0,-0.5417,-0.3056,-0.0493,0.4585,0.7356,0.9221,1.0858,1.3204,1.5045,1.5045,1.5439,1.5832,1.5832,1.6298,1.6574,1.6574,1.6574,1.685,1.7598,1.7225,1.7217,1.794,1.7311,1.6943,1.6943,1.6197,1.5832,1.5832,1.5832,1.5832,1.5832,1.5832,1.5832,1.5832,1.5832,1.5832,1.5832,1.5832,1.6109,1.6669,1.7412,1.824,1.9326,2.0858,2.2082,2.2976,2.4304,2.5226,2.5732,2.6294,2.7305,2.8495,2.9772,3.0956,3.214,3.2884,3.3081,3.3081,3.3081,3.3081,3.3081,3.3081,3.3081,3.3081,3.3081,3.3804,3.4773,3.559,3.674,3.8088,3.9806,4.0732,4.1518,4.2208,4.282,4.3329,4.3329,4.3329,4.3329,4.3329,4.3329,4.3329,4.3329,4.3329,4.3329,4.3329,4.3329,4.3329,4.3329,4.3329,4.3329,4.3329,4.3329,4.3329,4.3329,4.3329,4.3329,4.3329,4.3329,4.3329,4.3329,4.3329,4.3329,4.3329,4.4358,4.5285,-1.8354,-1.8209,-1.7747,-1.4793,-1.4145,0.0,-0.5194,-0.3439,-0.1476,0.5081,0.7477,0.8656,0.9178,1.1317,1.316,1.3375,1.4549,1.5432,1.573,1.6756,1.7505,1.7505,1.7598,1.7591,1.7505,1.6574,1.592,1.5832,1.5832,1.5832,1.5832,1.5832,1.5832,1.5832,1.5832,1.5832,1.5832,1.5832,1.5832,1.5832,1.5832,1.5832,1.5832,1.592,1.6574,1.7505,1.7956,1.9638,2.2218,2.2604,2.2575,2.2257,2.3484,2.4609,2.582,2.7125,2.8319,2.959,3.0765,3.2052,3.3081,3.3081,3.3081,3.3081,3.3081,3.3081,3.3081,3.3081,3.3081,3.3081,3.3081,3.4157,3.5174,3.4832,3.7574,3.9788,3.8674,4.0845,4.3155,4.325,4.3329,4.3329,4.3329,4.3329,4.3329,4.3329,4.3329,4.3329,4.3329,4.3329,4.3329,4.3329,4.3329,4.3329,4.3329,4.3329,4.3329,4.3329,4.3329,4.3329,4.3329,4.3329,4.3329,4.3329,4.3329,4.3329,4.3329,4.3329,4.3329,4.3329,4.4358,4.5285,-1.8633,-1.9264,-1.9826,-1.8386,-1.7499,0.0,-1.3607,-1.2278,-1.0043,-0.4438,-0.2158,0.0098,0.4352,0.6407,0.8157,1.029,1.1763,1.3431,1.5527,1.6015,1.6197,1.6197,1.7037,1.7318,1.6292,1.685,1.6943,1.5927,1.5832,1.5832,1.5832,1.5832,1.5832,1.5832,1.5832,1.5832,1.5832,1.5832,1.5832,1.5832,1.5832,1.5832,1.5832,1.685,1.6943,1.6386,1.9298,2.0172,1.9715,2.2784,2.4345,2.4922,2.5226,2.543,2.582,2.7125,2.8319,2.959,3.0765,3.2052,3.3081,3.3081,3.3081,3.3081,3.3081,3.3081,3.3081,3.3081,3.3081,3.3081,3.3081,3.3316,3.3849,3.5161,3.6385,3.7803,3.9843,4.1144,4.2193,4.3155,4.3329,4.3329,4.3329,4.3329,4.3329,4.3329,4.3329,4.3329,4.3329,4.3329,4.3329,4.3329,4.3329,4.3329,4.3329,4.3329,4.3329,4.3329,4.3329,4.3329,4.3329,4.3329,4.3329,4.3329,4.3329,4.3329,4.3329,4.3329,4.3329,4.3329,4.4358,4.5285,-1.8717,-1.9163,-1.9525,-1.8651,-1.8018,0.0,0.0,-1.2353,-1.0408,-0.5023,-0.344,-0.1767,0.2283,0.4058,0.5824,0.8543,1.0595,1.2352,1.368,1.5514,1.6763,1.6763,1.7318,1.7412,1.685,1.6763,1.648,1.5825,1.5832,1.5832,1.5832,1.5832,1.5832,1.5832,1.5832,1.5832,1.5832,1.5832,1.5832,1.5832,1.5832,1.5832,1.5825,1.7131,1.7318,1.6951,2.0237,2.1296,2.0883,2.3589,2.5137,2.5742,2.5742,2.611,2.6754,2.8038,2.9223,3.0496,3.1689,3.2612,3.3081,3.3081,3.3081,3.3081,3.3081,3.3081,3.3081,3.3081,3.3081,3.3081,3.3081,3.3471,3.4179,3.5318,3.6874,3.8629,4.0345,4.1578,4.2629,4.317,4.3329,4.3329,4.3329,4.3329,4.3329,4.3329,4.3329,4.3329,4.3329,4.3329,4.3329,4.3329,4.3329,4.3329,4.3329,4.3329,4.3329,4.3329,4.3329,4.3329,4.3329,4.3329,4.3329,4.3329,4.3329,4.3329,4.3329,4.3329,4.3551,4.4066,4.5064,4.5977,-1.8531,-1.8791,-1.8856,-1.8525,-1.8048,-1.6664,0.0,0.0,0.0,-0.4814,-0.3646,-0.2669,0.0299,0.1692,0.3472,0.6358,0.8807,1.0572,1.109,1.4082,1.6317,1.6532,1.721,1.7498,1.7016,1.5994,1.5534,1.5825,1.5534,1.5534,1.5825,1.5832,1.5832,1.5832,1.5832,1.5832,1.5832,1.5832,1.5832,1.5832,1.5832,1.592,1.6204,1.7498,1.8056,1.8249,2.1103,2.2437,2.2735,2.4402,2.5332,2.5742,2.5742,2.6294,2.74,2.8855,3.0045,3.1045,3.2612,3.3081,3.3081,3.3081,3.3081,3.3081,3.3081,3.3081,3.3081,3.3081,3.3081,3.3081,3.3081,3.3869,3.4782,3.5257,3.7522,3.978,4.0334,4.1821,4.318,4.3314,4.3329,4.3329,4.3329,4.3329,4.3329,4.3329,4.3329,4.3329,4.3329,4.3329,4.3329,4.3329,4.3329,4.3329,4.3329,4.3329,4.3329,4.3329,4.3329,4.3329,4.3329,4.3329,4.3329,4.3329,4.3329,4.3329,4.3329,4.3329,4.3693,4.451,4.5488,4.647,-1.7802,-1.8624,-1.962,-2.0648,-1.9314,-1.7855,-1.8325,0.0,-1.2962,-1.1113,0.0,-0.7878,-0.4007,0.0,0.0,0.2061,0.3953,0.5741,0.8093,0.982,1.1187,1.2415,1.5582,1.6828,1.4543,1.4166,1.4561,1.573,1.4752,1.4657,1.573,1.5832,1.5832,1.5832,1.5832,1.5832,1.5832,1.5832,1.5832,1.5832,1.5832,1.6386,1.7505,1.8772,1.9314,1.9422,2.2298,2.3183,2.2735,2.4402,2.5332,2.5742,2.5742,2.583,2.6197,2.8588,2.9498,2.9954,3.2251,3.3081,3.3081,3.3081,3.3081,3.3081,3.3081,3.3081,3.3081,3.3081,3.3081,3.3081,3.3081,3.3869,3.469,3.4756,3.6886,3.9131,3.9765,4.1254,4.2641,4.3225,4.3329,4.3329,4.3329,4.3329,4.3329,4.3329,4.3329,4.3329,4.3329,4.3329,4.3329,4.3329,4.3329,4.3329,4.3329,4.3329,4.3329,4.3329,4.3329,4.3329,4.3329,4.3329,4.3329,4.3329,4.3329,4.3329,4.3329,4.3329,4.3329,4.3472,4.451,4.5431,-1.7505,-1.7461,-1.7602,-1.8848,-1.7817,-1.6699,-1.7196,-1.5589,-1.3488,-1.2139,0.0,0.0,0.0,0.0,0.0,0.0,0.3087,0.4678,0.6541,0.8615,1.0418,1.1745,1.338,1.4244,1.3974,1.3878,1.4459,1.573,1.4657,1.4459,1.573,1.5832,1.5832,1.5832,1.5832,1.5832,1.5832,1.5832,1.5832,1.5832,1.5832,1.648,1.7777,1.8956,1.9497,1.9704,2.2822,2.3594,2.2753,2.4679,2.5566,2.5732,2.6476,2.721,2.7934,2.9039,3.0316,3.1701,3.2711,3.3081,3.3081,3.3081,3.3081,3.3081,3.3081,3.3081,3.3081,3.3081,3.3081,3.3081,3.3081,3.3869,3.4815,3.544,3.7251,3.9083,3.9927,4.1364,4.2432,4.2716,4.3075,4.3329,4.3329,4.3329,4.3329,4.3329,4.3329,4.3329,4.3329,4.3329,4.3329,4.3329,4.3329,4.3329,4.3329,4.3329,4.3329,4.3329,4.3329,4.3329,4.3329,4.3329,4.3329,4.3329,4.3329,4.3329,4.3329,4.3927,4.4143,4.422,4.5138,4.64,-1.5873,-1.5373,-1.507,-1.6706,-1.5934,-1.4886,-1.5596,-1.4256,-1.2517,-1.1556,-0.928,0.0,0.0,0.0,-0.1206,0.11,0.0,0.3498,0.5187,0.7063,0.8947,1.0672,1.1165,1.1945,1.3199,1.3006,1.3488,1.5146,1.407,1.4076,1.573,1.5832,1.5832,1.5832,1.5832,1.5832,1.5832,1.5832,1.5832,1.5832,1.5832,1.648,1.7692,1.8596,1.9405,2.0167,2.2815,2.356,2.3242,2.4977,2.5927,2.6294,2.722,2.8495,2.9852,2.9852,3.1045,3.2612,3.2982,3.3081,3.3081,3.3081,3.3081,3.3081,3.3081,3.3081,3.3081,3.3081,3.3081,3.3154,3.3484,3.4345,3.5359,3.6383,3.7839,3.9218,4.0204,4.1294,4.2147,4.2327,4.2895,4.3329,4.3329,4.3329,4.3329,4.3329,4.3329,4.3329,4.3329,4.3329,4.3329,4.3329,4.3329,4.3329,4.3329,4.3329,4.3329,4.3329,4.3329,4.3329,4.3329,4.3329,4.3329,4.3329,4.3329,4.3329,4.3329,4.4297,4.4946,4.5227,4.6119,4.7306,-1.2042,-1.2042,-1.2608,-1.5158,-1.3837,-1.2705,-1.5158,-1.2775,-1.0096,-1.0096,-0.7915,-0.5625,-0.4218,-0.2914,-0.1502,-0.0197,0.01,0.0,0.0,0.4171,0.5216,0.7832,0.9312,1.0583,1.1848,1.0877,1.1161,1.3776,1.2716,1.3108,1.5635,1.5832,1.5832,1.5832,1.5832,1.5832,1.5832,1.5832,1.5832,1.5832,1.5832,1.648,1.7692,1.7777,1.9039,2.1338,2.2251,2.3271,2.439,2.5275,2.638,2.7494,2.7589,2.9039,3.1122,3.1122,3.1223,3.1412,3.2698,3.3081,3.3081,3.3081,3.3081,3.3081,3.3081,3.3081,3.3081,3.3081,3.3081,3.3313,3.4345,3.544,3.6448,3.751,3.856,3.9546,4.0262,4.0935,4.1594,4.2237,4.2895,4.3329,4.3329,4.3329,4.3329,4.3329,4.3329,4.3329,4.3329,4.3329,4.3329,4.3329,4.3329,4.3329,4.3329,4.3329,4.3329,4.3329,4.3329,4.3329,4.3329,4.3329,4.3329,4.3329,4.3329,4.3329,4.3329,4.4297,4.53,4.6189,4.7104,4.7589,-1.0821,-0.9947,-0.9751,-1.1468,-1.0608,-0.9751,-1.1463,-1.0223,-0.8386,-0.7579,-0.5205,-0.2913,-0.1603,-0.1006,-0.0201,0.1099,0.0603,0.0604,0.0,0.3403,0.4316,0.522,0.7304,0.9186,1.0485,1.0253,1.1016,1.3674,1.3494,1.398,1.573,1.5832,1.5832,1.5832,1.5832,1.5832,1.5832,1.5832,1.5832,1.5832,1.5832,1.648,1.7692,1.8503,1.9761,2.1427,2.3091,2.4034,2.4482,2.5371,2.6476,2.7683,2.8495,2.9772,3.1223,3.1223,3.1765,3.2513,3.2982,3.3081,3.3081,3.3081,3.3081,3.3081,3.3081,3.3081,3.3081,3.3081,3.3081,3.3313,3.4428,3.4979,3.5682,3.7357,3.8069,3.8604,3.9548,4.0262,4.0935,4.1594,4.2237,4.2821,4.3254,4.3329,4.3329,4.3329,4.3329,4.3329,4.3329,4.3329,4.3329,4.3329,4.3329,4.3329,4.3329,4.3329,4.3329,4.3329,4.3329,4.3329,4.3329,4.3329,4.3329,4.3329,4.3329,4.363,4.4282,4.5285,4.6189,4.7155,4.808,4.8513,-0.8762,-0.7174,-0.6176,-0.7432,-0.6448,-0.5664,-0.7423,-0.6446,-0.5075,-0.4684,-0.2399,-0.0301,0.0601,0.1105,0.1711,0.2614,0.2013,0.1712,0.0,0.3414,0.4016,0.4016,0.5506,0.7294,0.9091,0.8773,1.0032,1.3674,1.3,1.3295,1.5045,1.5146,1.5146,1.5146,1.5534,1.5832,1.5832,1.5832,1.5832,1.5832,1.5832,1.6204,1.7037,1.8319,1.9497,2.0799,2.2907,2.4034,2.4482,2.5371,2.6658,2.8319,2.9131,3.0406,3.1877,3.1877,3.2426,3.3081,3.3081,3.3081,3.3081,3.3081,3.3081,3.3081,3.3081,3.3081,3.3081,3.3081,3.3081,3.3313,3.4428,3.4664,3.5224,3.7281,3.7829,3.8069,3.9177,3.9933,4.0531,4.095,4.1758,4.2491,4.291,4.318,4.3329,4.3329,4.3329,4.3329,4.3329,4.3329,4.3329,4.3329,4.3329,4.3329,4.3329,4.3329,4.3329,4.3329,4.3329,4.3329,4.3329,4.3329,4.3225,4.2985,4.3509,4.4021,4.444,4.5991,4.702,4.7589,4.8576,4.9001]}]]